<?xml version='1.0' encoding='UTF-8'?><gpx version="1.1" creator="JPX - https://github.com/jenetics/jpx" xmlns="http://www.topografix.com/GPX/1/1"><trk><trkseg><trkpt lat="43.8423268" lon="11.1851226"><ele>54.0</ele><time>2026-04-02T15:21:07.829Z</time></trkpt><trkpt lat="43.8422245" lon="11.1851729"><ele>54.00000000000001</ele><time>2026-04-02T15:21:10.837Z</time></trkpt><trkpt lat="43.8421714" lon="11.1853415"><ele>54.00000000000001</ele><time>2026-04-02T15:21:12.828Z</time></trkpt><trkpt lat="43.8421281" lon="11.1854525"><ele>54.0</ele><time>2026-04-02T15:21:13.834Z</time></trkpt><trkpt lat="43.8420799" lon="11.1855776"><ele>54.0</ele><time>2026-04-02T15:21:14.834Z</time></trkpt><trkpt lat="43.8420133" lon="11.1856955"><ele>53.75</ele><time>2026-04-02T15:21:15.833Z</time></trkpt><trkpt lat="43.8419369" lon="11.1858239"><ele>53.5</ele><time>2026-04-02T15:21:16.834Z</time></trkpt><trkpt lat="43.8418623" lon="11.1859625"><ele>53.25</ele><time>2026-04-02T15:21:17.832Z</time></trkpt><trkpt lat="43.8417855" lon="11.186103"><ele>53.0</ele><time>2026-04-02T15:21:18.829Z</time></trkpt><trkpt lat="43.8417099" lon="11.1862563"><ele>53.0</ele><time>2026-04-02T15:21:19.842Z</time></trkpt><trkpt lat="43.8416394" lon="11.1864125"><ele>53.0</ele><time>2026-04-02T15:21:20.838Z</time></trkpt><trkpt lat="43.8415563" lon="11.1865554"><ele>53.0</ele><time>2026-04-02T15:21:21.827Z</time></trkpt><trkpt lat="43.8414849" lon="11.1866789"><ele>53.0</ele><time>2026-04-02T15:21:22.83Z</time></trkpt><trkpt lat="43.8414104" lon="11.1867976"><ele>53.0</ele><time>2026-04-02T15:21:23.829Z</time></trkpt><trkpt lat="43.8413519" lon="11.1869117"><ele>53.0</ele><time>2026-04-02T15:21:24.833Z</time></trkpt><trkpt lat="43.8412962" lon="11.1870231"><ele>53.0</ele><time>2026-04-02T15:21:25.833Z</time></trkpt><trkpt lat="43.8412462" lon="11.1871149"><ele>53.0</ele><time>2026-04-02T15:21:26.837Z</time></trkpt><trkpt lat="43.8412145" lon="11.1872547"><ele>53.0</ele><time>2026-04-02T15:21:28.832Z</time></trkpt><trkpt lat="43.8412319" lon="11.1873879"><ele>53.0</ele><time>2026-04-02T15:21:30.83Z</time></trkpt><trkpt lat="43.8411886" lon="11.1874818"><ele>53.0</ele><time>2026-04-02T15:21:32.829Z</time></trkpt><trkpt lat="43.8411894" lon="11.1875741"><ele>53.0</ele><time>2026-04-02T15:21:36.833Z</time></trkpt><trkpt lat="43.8412475" lon="11.1875148"><ele>53.0</ele><time>2026-04-02T15:22:43.833Z</time></trkpt><trkpt lat="43.841305" lon="11.1874773"><ele>53.0</ele><time>2026-04-02T15:24:05.975Z</time></trkpt><trkpt lat="43.8412988" lon="11.1873849"><ele>53.0</ele><time>2026-04-02T15:24:09.964Z</time></trkpt><trkpt lat="43.8412721" lon="11.1872934"><ele>53.0</ele><time>2026-04-02T15:24:13.967Z</time></trkpt><trkpt lat="43.8413175" lon="11.1871738"><ele>53.0</ele><time>2026-04-02T15:24:20.966Z</time></trkpt><trkpt lat="43.8413815" lon="11.1870311"><ele>53.0</ele><time>2026-04-02T15:24:43.963Z</time></trkpt><trkpt lat="43.8414173" lon="11.1869408"><ele>53.0</ele><time>2026-04-02T15:24:44.963Z</time></trkpt><trkpt lat="43.84147" lon="11.1868407"><ele>53.0</ele><time>2026-04-02T15:24:45.981Z</time></trkpt><trkpt lat="43.8415384" lon="11.1867359"><ele>53.0</ele><time>2026-04-02T15:24:46.961Z</time></trkpt><trkpt lat="43.8416096" lon="11.1866251"><ele>53.0</ele><time>2026-04-02T15:24:47.969Z</time></trkpt><trkpt lat="43.8416783" lon="11.186501"><ele>53.0</ele><time>2026-04-02T15:24:48.965Z</time></trkpt><trkpt lat="43.8417424" lon="11.1863879"><ele>53.0</ele><time>2026-04-02T15:24:49.968Z</time></trkpt><trkpt lat="43.8418013" lon="11.1862709"><ele>53.0</ele><time>2026-04-02T15:24:50.967Z</time></trkpt><trkpt lat="43.8418579" lon="11.1861573"><ele>53.0</ele><time>2026-04-02T15:24:51.965Z</time></trkpt><trkpt lat="43.8419204" lon="11.1860267"><ele>53.0</ele><time>2026-04-02T15:24:52.965Z</time></trkpt><trkpt lat="43.8419801" lon="11.1859004"><ele>53.0</ele><time>2026-04-02T15:24:53.965Z</time></trkpt><trkpt lat="43.8420394" lon="11.1857852"><ele>53.0</ele><time>2026-04-02T15:24:54.969Z</time></trkpt><trkpt lat="43.8420983" lon="11.1856658"><ele>53.0</ele><time>2026-04-02T15:24:55.966Z</time></trkpt><trkpt lat="43.8421505" lon="11.1855632"><ele>53.0</ele><time>2026-04-02T15:24:56.971Z</time></trkpt><trkpt lat="43.8422006" lon="11.1854836"><ele>53.16666666666667</ele><time>2026-04-02T15:24:57.967Z</time></trkpt><trkpt lat="43.8422462" lon="11.1854027"><ele>53.333333333333336</ele><time>2026-04-02T15:24:58.975Z</time></trkpt><trkpt lat="43.8422991" lon="11.1853443"><ele>53.5</ele><time>2026-04-02T15:24:59.967Z</time></trkpt><trkpt lat="43.8423693" lon="11.1852671"><ele>53.66666666666667</ele><time>2026-04-02T15:25:01.97Z</time></trkpt><trkpt lat="43.8424393" lon="11.1852014"><ele>53.833333333333336</ele><time>2026-04-02T15:25:04.969Z</time></trkpt><trkpt lat="43.842523" lon="11.1851537"><ele>54.0</ele><time>2026-04-02T15:25:07.942Z</time></trkpt><trkpt lat="43.8425841" lon="11.1852121"><ele>54.0</ele><time>2026-04-02T15:25:09.954Z</time></trkpt><trkpt lat="43.8426305" lon="11.1852987"><ele>54.00000000000001</ele><time>2026-04-02T15:25:11.952Z</time></trkpt><trkpt lat="43.842671" lon="11.1854095"><ele>54.00000000000001</ele><time>2026-04-02T15:25:14.03Z</time></trkpt><trkpt lat="43.8427124" lon="11.1855341"><ele>54.0</ele><time>2026-04-02T15:25:15.975Z</time></trkpt><trkpt lat="43.8427607" lon="11.1856757"><ele>54.0</ele><time>2026-04-02T15:25:17.957Z</time></trkpt><trkpt lat="43.8428021" lon="11.1858256"><ele>53.833333333333336</ele><time>2026-04-02T15:25:19.961Z</time></trkpt><trkpt lat="43.8428256" lon="11.1859141"><ele>53.66666666666667</ele><time>2026-04-02T15:25:20.968Z</time></trkpt><trkpt lat="43.8428482" lon="11.1860062"><ele>53.5</ele><time>2026-04-02T15:25:21.967Z</time></trkpt><trkpt lat="43.8428674" lon="11.1860948"><ele>53.333333333333336</ele><time>2026-04-02T15:25:22.956Z</time></trkpt><trkpt lat="43.8429022" lon="11.18625"><ele>53.16666666666667</ele><time>2026-04-02T15:25:24.964Z</time></trkpt><trkpt lat="43.8429312" lon="11.1863917"><ele>53.0</ele><time>2026-04-02T15:25:26.965Z</time></trkpt><trkpt lat="43.8429628" lon="11.1865512"><ele>53.0</ele><time>2026-04-02T15:25:28.966Z</time></trkpt><trkpt lat="43.8430032" lon="11.186702"><ele>53.0</ele><time>2026-04-02T15:25:31.026Z</time></trkpt><trkpt lat="43.8430429" lon="11.1868312"><ele>53.0</ele><time>2026-04-02T15:25:32.971Z</time></trkpt><trkpt lat="43.8430781" lon="11.186962"><ele>53.0</ele><time>2026-04-02T15:25:34.965Z</time></trkpt><trkpt lat="43.8431141" lon="11.1871069"><ele>53.0</ele><time>2026-04-02T15:25:36.96Z</time></trkpt><trkpt lat="43.8431583" lon="11.187256"><ele>53.2</ele><time>2026-04-02T15:25:38.966Z</time></trkpt><trkpt lat="43.8431831" lon="11.1873826"><ele>53.4</ele><time>2026-04-02T15:25:40.956Z</time></trkpt><trkpt lat="43.8432208" lon="11.1875303"><ele>53.60000000000001</ele><time>2026-04-02T15:25:42.957Z</time></trkpt><trkpt lat="43.8432549" lon="11.1876861"><ele>53.800000000000004</ele><time>2026-04-02T15:25:45.011Z</time></trkpt><trkpt lat="43.8432941" lon="11.1878479"><ele>54.0</ele><time>2026-04-02T15:25:46.95Z</time></trkpt><trkpt lat="43.843314" lon="11.1879406"><ele>54.0</ele><time>2026-04-02T15:25:47.944Z</time></trkpt><trkpt lat="43.8433359" lon="11.1880342"><ele>54.0</ele><time>2026-04-02T15:25:48.957Z</time></trkpt><trkpt lat="43.8433611" lon="11.1881377"><ele>54.0</ele><time>2026-04-02T15:25:49.953Z</time></trkpt><trkpt lat="43.84339" lon="11.188255"><ele>54.0</ele><time>2026-04-02T15:25:50.954Z</time></trkpt><trkpt lat="43.8434169" lon="11.1883811"><ele>54.0</ele><time>2026-04-02T15:25:51.956Z</time></trkpt><trkpt lat="43.8434358" lon="11.188509"><ele>54.0</ele><time>2026-04-02T15:25:52.952Z</time></trkpt><trkpt lat="43.843451" lon="11.1886274"><ele>54.14285714285714</ele><time>2026-04-02T15:25:53.952Z</time></trkpt><trkpt lat="43.8434651" lon="11.1887368"><ele>54.285714285714285</ele><time>2026-04-02T15:25:54.947Z</time></trkpt><trkpt lat="43.8434827" lon="11.1888334"><ele>54.42857142857143</ele><time>2026-04-02T15:25:56.038Z</time></trkpt><trkpt lat="43.8434998" lon="11.1889305"><ele>54.57142857142857</ele><time>2026-04-02T15:25:57.039Z</time></trkpt><trkpt lat="43.843517" lon="11.1890253"><ele>54.714285714285715</ele><time>2026-04-02T15:25:57.953Z</time></trkpt><trkpt lat="43.8435335" lon="11.1891133"><ele>54.857142857142854</ele><time>2026-04-02T15:25:58.96Z</time></trkpt><trkpt lat="43.8435525" lon="11.1891986"><ele>55.0</ele><time>2026-04-02T15:25:59.954Z</time></trkpt><trkpt lat="43.8435707" lon="11.1892837"><ele>56.0</ele><time>2026-04-02T15:26:00.955Z</time></trkpt><trkpt lat="43.8435827" lon="11.1893836"><ele>57.0</ele><time>2026-04-02T15:26:01.958Z</time></trkpt><trkpt lat="43.843592" lon="11.1894999"><ele>58.0</ele><time>2026-04-02T15:26:02.951Z</time></trkpt><trkpt lat="43.8436135" lon="11.1896375"><ele>59.0</ele><time>2026-04-02T15:26:04.016Z</time></trkpt><trkpt lat="43.8436329" lon="11.1897842"><ele>60.0</ele><time>2026-04-02T15:26:04.957Z</time></trkpt><trkpt lat="43.8436602" lon="11.189931"><ele>60.4</ele><time>2026-04-02T15:26:06.021Z</time></trkpt><trkpt lat="43.8436812" lon="11.1900827"><ele>60.8</ele><time>2026-04-02T15:26:07.034Z</time></trkpt><trkpt lat="43.8437063" lon="11.1902328"><ele>61.2</ele><time>2026-04-02T15:26:07.96Z</time></trkpt><trkpt lat="43.8437292" lon="11.1903865"><ele>61.6</ele><time>2026-04-02T15:26:08.965Z</time></trkpt><trkpt lat="43.8437507" lon="11.1905376"><ele>62.0</ele><time>2026-04-02T15:26:09.97Z</time></trkpt><trkpt lat="43.8437566" lon="11.1906873"><ele>62.400000000000006</ele><time>2026-04-02T15:26:10.97Z</time></trkpt><trkpt lat="43.8437552" lon="11.1908252"><ele>62.800000000000004</ele><time>2026-04-02T15:26:11.96Z</time></trkpt><trkpt lat="43.843738" lon="11.1909534"><ele>63.2</ele><time>2026-04-02T15:26:12.959Z</time></trkpt><trkpt lat="43.8437111" lon="11.1910796"><ele>63.6</ele><time>2026-04-02T15:26:13.959Z</time></trkpt><trkpt lat="43.8436871" lon="11.1911964"><ele>64.0</ele><time>2026-04-02T15:26:14.988Z</time></trkpt><trkpt lat="43.8436567" lon="11.1913205"><ele>64.0</ele><time>2026-04-02T15:26:15.954Z</time></trkpt><trkpt lat="43.8436116" lon="11.1914241"><ele>64.0</ele><time>2026-04-02T15:26:16.963Z</time></trkpt><trkpt lat="43.8435641" lon="11.1915344"><ele>64.0</ele><time>2026-04-02T15:26:17.96Z</time></trkpt><trkpt lat="43.8435158" lon="11.1916376"><ele>64.0</ele><time>2026-04-02T15:26:19.034Z</time></trkpt><trkpt lat="43.8434636" lon="11.191754"><ele>64.0</ele><time>2026-04-02T15:26:20.03Z</time></trkpt><trkpt lat="43.8434109" lon="11.1918662"><ele>63.83333333333333</ele><time>2026-04-02T15:26:20.961Z</time></trkpt><trkpt lat="43.8433632" lon="11.1919712"><ele>63.666666666666664</ele><time>2026-04-02T15:26:22.032Z</time></trkpt><trkpt lat="43.8433208" lon="11.1920631"><ele>63.5</ele><time>2026-04-02T15:26:22.965Z</time></trkpt><trkpt lat="43.8432756" lon="11.1921619"><ele>63.33333333333333</ele><time>2026-04-02T15:26:23.966Z</time></trkpt><trkpt lat="43.8432302" lon="11.1922759"><ele>63.166666666666664</ele><time>2026-04-02T15:26:24.967Z</time></trkpt><trkpt lat="43.8431829" lon="11.1923914"><ele>63.0</ele><time>2026-04-02T15:26:25.984Z</time></trkpt><trkpt lat="43.8431321" lon="11.1925108"><ele>63.0</ele><time>2026-04-02T15:26:26.982Z</time></trkpt><trkpt lat="43.8430785" lon="11.192634"><ele>63.0</ele><time>2026-04-02T15:26:27.961Z</time></trkpt><trkpt lat="43.8430311" lon="11.1927622"><ele>63.0</ele><time>2026-04-02T15:26:29.019Z</time></trkpt><trkpt lat="43.8429811" lon="11.192901"><ele>63.0</ele><time>2026-04-02T15:26:30.032Z</time></trkpt><trkpt lat="43.8429329" lon="11.1930548"><ele>63.0</ele><time>2026-04-02T15:26:30.959Z</time></trkpt><trkpt lat="43.8428856" lon="11.1932171"><ele>63.25</ele><time>2026-04-02T15:26:31.963Z</time></trkpt><trkpt lat="43.8428481" lon="11.1933767"><ele>63.5</ele><time>2026-04-02T15:26:32.951Z</time></trkpt><trkpt lat="43.8428219" lon="11.1935341"><ele>63.75</ele><time>2026-04-02T15:26:33.958Z</time></trkpt><trkpt lat="43.8428022" lon="11.1936877"><ele>64.0</ele><time>2026-04-02T15:26:34.955Z</time></trkpt><trkpt lat="43.8427787" lon="11.1938328"><ele>64.0</ele><time>2026-04-02T15:26:35.991Z</time></trkpt><trkpt lat="43.8427459" lon="11.1939879"><ele>64.0</ele><time>2026-04-02T15:26:36.955Z</time></trkpt><trkpt lat="43.8427107" lon="11.1941501"><ele>64.0</ele><time>2026-04-02T15:26:37.963Z</time></trkpt><trkpt lat="43.8426773" lon="11.1943146"><ele>64.0</ele><time>2026-04-02T15:26:38.953Z</time></trkpt><trkpt lat="43.8426485" lon="11.1944883"><ele>63.800000000000004</ele><time>2026-04-02T15:26:39.966Z</time></trkpt><trkpt lat="43.8426256" lon="11.1946584"><ele>63.60000000000001</ele><time>2026-04-02T15:26:40.962Z</time></trkpt><trkpt lat="43.8426076" lon="11.1948134"><ele>63.4</ele><time>2026-04-02T15:26:41.956Z</time></trkpt><trkpt lat="43.8425879" lon="11.1949514"><ele>63.2</ele><time>2026-04-02T15:26:42.96Z</time></trkpt><trkpt lat="43.8425693" lon="11.1950874"><ele>63.0</ele><time>2026-04-02T15:26:43.955Z</time></trkpt><trkpt lat="43.8425499" lon="11.1952041"><ele>63.4</ele><time>2026-04-02T15:26:45.034Z</time></trkpt><trkpt lat="43.8425212" lon="11.1953072"><ele>63.8</ele><time>2026-04-02T15:26:46.031Z</time></trkpt><trkpt lat="43.8424916" lon="11.1954061"><ele>64.2</ele><time>2026-04-02T15:26:47.045Z</time></trkpt><trkpt lat="43.8424432" lon="11.1955482"><ele>64.6</ele><time>2026-04-02T15:26:48.963Z</time></trkpt><trkpt lat="43.8424014" lon="11.1956651"><ele>65.0</ele><time>2026-04-02T15:26:51.029Z</time></trkpt><trkpt lat="43.8424626" lon="11.1958318"><ele>65.5</ele><time>2026-04-02T15:26:52.95Z</time></trkpt><trkpt lat="43.8425226" lon="11.195908"><ele>66.0</ele><time>2026-04-02T15:26:53.99Z</time></trkpt><trkpt lat="43.8425895" lon="11.195985"><ele>66.5</ele><time>2026-04-02T15:26:55.026Z</time></trkpt><trkpt lat="43.8426507" lon="11.1960843"><ele>67.0</ele><time>2026-04-02T15:26:56.017Z</time></trkpt><trkpt lat="43.8427031" lon="11.1961947"><ele>67.5</ele><time>2026-04-02T15:26:57.042Z</time></trkpt><trkpt lat="43.8427522" lon="11.1963008"><ele>68.0</ele><time>2026-04-02T15:26:57.953Z</time></trkpt><trkpt lat="43.8427957" lon="11.1964087"><ele>69.0</ele><time>2026-04-02T15:26:58.956Z</time></trkpt><trkpt lat="43.8428314" lon="11.196523"><ele>70.0</ele><time>2026-04-02T15:26:59.966Z</time></trkpt><trkpt lat="43.8428445" lon="11.1966395"><ele>71.0</ele><time>2026-04-02T15:27:01.03Z</time></trkpt><trkpt lat="43.8428405" lon="11.1967444"><ele>72.0</ele><time>2026-04-02T15:27:02.039Z</time></trkpt><trkpt lat="43.8428739" lon="11.1968379"><ele>73.0</ele><time>2026-04-02T15:27:02.95Z</time></trkpt><trkpt lat="43.8429374" lon="11.1969079"><ele>74.0</ele><time>2026-04-02T15:27:03.954Z</time></trkpt><trkpt lat="43.8430291" lon="11.1969499"><ele>74.0</ele><time>2026-04-02T15:27:04.988Z</time></trkpt><trkpt lat="43.8431293" lon="11.1969981"><ele>74.0</ele><time>2026-04-02T15:27:05.997Z</time></trkpt><trkpt lat="43.8432285" lon="11.1970615"><ele>74.0</ele><time>2026-04-02T15:27:06.964Z</time></trkpt><trkpt lat="43.8433277" lon="11.1971325"><ele>74.0</ele><time>2026-04-02T15:27:07.95Z</time></trkpt><trkpt lat="43.8434365" lon="11.1972099"><ele>74.0</ele><time>2026-04-02T15:27:09.03Z</time></trkpt><trkpt lat="43.8435546" lon="11.197283"><ele>75.5</ele><time>2026-04-02T15:27:10.028Z</time></trkpt><trkpt lat="43.8436849" lon="11.1973662"><ele>77.0</ele><time>2026-04-02T15:27:11.047Z</time></trkpt><trkpt lat="43.84381" lon="11.1974508"><ele>78.5</ele><time>2026-04-02T15:27:11.954Z</time></trkpt><trkpt lat="43.8439373" lon="11.1975362"><ele>80.0</ele><time>2026-04-02T15:27:12.959Z</time></trkpt><trkpt lat="43.8440671" lon="11.1976064"><ele>80.0</ele><time>2026-04-02T15:27:13.959Z</time></trkpt><trkpt lat="43.8441926" lon="11.1976776"><ele>80.0</ele><time>2026-04-02T15:27:14.962Z</time></trkpt><trkpt lat="43.8443114" lon="11.197745"><ele>80.0</ele><time>2026-04-02T15:27:15.956Z</time></trkpt><trkpt lat="43.8444207" lon="11.1978014"><ele>80.0</ele><time>2026-04-02T15:27:16.967Z</time></trkpt><trkpt lat="43.8445181" lon="11.1978558"><ele>81.0</ele><time>2026-04-02T15:27:17.962Z</time></trkpt><trkpt lat="43.8445711" lon="11.1979237"><ele>82.0</ele><time>2026-04-02T15:27:18.963Z</time></trkpt><trkpt lat="43.8445294" lon="11.1981039"><ele>83.0</ele><time>2026-04-02T15:27:20.963Z</time></trkpt><trkpt lat="43.8444819" lon="11.1982214"><ele>84.0</ele><time>2026-04-02T15:27:21.957Z</time></trkpt><trkpt lat="43.8444437" lon="11.1983548"><ele>85.0</ele><time>2026-04-02T15:27:22.959Z</time></trkpt><trkpt lat="43.8444275" lon="11.1985201"><ele>85.0</ele><time>2026-04-02T15:27:23.958Z</time></trkpt><trkpt lat="43.8444497" lon="11.1986893"><ele>85.0</ele><time>2026-04-02T15:27:24.959Z</time></trkpt><trkpt lat="43.8445071" lon="11.1988479"><ele>85.0</ele><time>2026-04-02T15:27:26.033Z</time></trkpt><trkpt lat="43.8445545" lon="11.1989872"><ele>85.0</ele><time>2026-04-02T15:27:27.029Z</time></trkpt><trkpt lat="43.8445768" lon="11.199152"><ele>85.0</ele><time>2026-04-02T15:27:27.95Z</time></trkpt><trkpt lat="43.8445692" lon="11.1993232"><ele>85.0</ele><time>2026-04-02T15:27:29.023Z</time></trkpt><trkpt lat="43.8445618" lon="11.1995062"><ele>85.0</ele><time>2026-04-02T15:27:30.011Z</time></trkpt><trkpt lat="43.8445497" lon="11.1996951"><ele>85.0</ele><time>2026-04-02T15:27:31.03Z</time></trkpt><trkpt lat="43.8445451" lon="11.1998681"><ele>84.8</ele><time>2026-04-02T15:27:32.031Z</time></trkpt><trkpt lat="43.8445456" lon="11.2000247"><ele>84.6</ele><time>2026-04-02T15:27:32.971Z</time></trkpt><trkpt lat="43.8445372" lon="11.2001879"><ele>84.4</ele><time>2026-04-02T15:27:34.017Z</time></trkpt><trkpt lat="43.8445235" lon="11.2003451"><ele>84.2</ele><time>2026-04-02T15:27:34.961Z</time></trkpt><trkpt lat="43.8444931" lon="11.2004768"><ele>84.0</ele><time>2026-04-02T15:27:35.96Z</time></trkpt><trkpt lat="43.844433" lon="11.2005759"><ele>84.0</ele><time>2026-04-02T15:27:37.027Z</time></trkpt><trkpt lat="43.8443636" lon="11.2006551"><ele>84.0</ele><time>2026-04-02T15:27:37.944Z</time></trkpt><trkpt lat="43.8442769" lon="11.2007254"><ele>84.0</ele><time>2026-04-02T15:27:39.031Z</time></trkpt><trkpt lat="43.844205" lon="11.2008052"><ele>84.0</ele><time>2026-04-02T15:27:40.029Z</time></trkpt><trkpt lat="43.8441316" lon="11.2009064"><ele>84.0</ele><time>2026-04-02T15:27:41.024Z</time></trkpt><trkpt lat="43.844047" lon="11.2010053"><ele>84.0</ele><time>2026-04-02T15:27:41.952Z</time></trkpt><trkpt lat="43.843962" lon="11.2011016"><ele>84.0</ele><time>2026-04-02T15:27:42.95Z</time></trkpt><trkpt lat="43.8438668" lon="11.2011846"><ele>84.0</ele><time>2026-04-02T15:27:43.942Z</time></trkpt><trkpt lat="43.8437723" lon="11.2012566"><ele>84.0</ele><time>2026-04-02T15:27:44.97Z</time></trkpt><trkpt lat="43.843676" lon="11.2013245"><ele>84.0</ele><time>2026-04-02T15:27:45.958Z</time></trkpt><trkpt lat="43.8435776" lon="11.2014073"><ele>84.2</ele><time>2026-04-02T15:27:47.036Z</time></trkpt><trkpt lat="43.8434834" lon="11.2015011"><ele>84.4</ele><time>2026-04-02T15:27:47.949Z</time></trkpt><trkpt lat="43.8434032" lon="11.2015887"><ele>84.6</ele><time>2026-04-02T15:27:48.95Z</time></trkpt><trkpt lat="43.8433256" lon="11.201682"><ele>84.8</ele><time>2026-04-02T15:27:49.991Z</time></trkpt><trkpt lat="43.8432584" lon="11.2017693"><ele>85.0</ele><time>2026-04-02T15:27:51.031Z</time></trkpt><trkpt lat="43.8431838" lon="11.201861"><ele>84.66666666666666</ele><time>2026-04-02T15:27:52.031Z</time></trkpt><trkpt lat="43.8431091" lon="11.2019521"><ele>84.33333333333333</ele><time>2026-04-02T15:27:52.965Z</time></trkpt><trkpt lat="43.8430364" lon="11.2020324"><ele>84.0</ele><time>2026-04-02T15:27:53.968Z</time></trkpt><trkpt lat="43.8429593" lon="11.202099"><ele>83.66666666666667</ele><time>2026-04-02T15:27:54.962Z</time></trkpt><trkpt lat="43.8428917" lon="11.2021636"><ele>83.33333333333334</ele><time>2026-04-02T15:27:55.967Z</time></trkpt><trkpt lat="43.8428354" lon="11.2022294"><ele>83.0</ele><time>2026-04-02T15:27:56.97Z</time></trkpt><trkpt lat="43.8427818" lon="11.2022848"><ele>83.60000000000001</ele><time>2026-04-02T15:27:57.959Z</time></trkpt><trkpt lat="43.8427215" lon="11.2023982"><ele>84.2</ele><time>2026-04-02T15:28:00.038Z</time></trkpt><trkpt lat="43.8427518" lon="11.2024904"><ele>84.8</ele><time>2026-04-02T15:28:01.955Z</time></trkpt><trkpt lat="43.8428703" lon="11.2025765"><ele>85.4</ele><time>2026-04-02T15:28:03.985Z</time></trkpt><trkpt lat="43.8429361" lon="11.2026477"><ele>86.0</ele><time>2026-04-02T15:28:05.074Z</time></trkpt><trkpt lat="43.8431012" lon="11.2027894"><ele>86.0</ele><time>2026-04-02T15:28:06.949Z</time></trkpt><trkpt lat="43.8431898" lon="11.2028696"><ele>86.0</ele><time>2026-04-02T15:28:07.97Z</time></trkpt><trkpt lat="43.8432845" lon="11.2029508"><ele>86.0</ele><time>2026-04-02T15:28:08.949Z</time></trkpt><trkpt lat="43.8433856" lon="11.2030359"><ele>86.0</ele><time>2026-04-02T15:28:09.955Z</time></trkpt><trkpt lat="43.8434897" lon="11.2031151"><ele>88.0</ele><time>2026-04-02T15:28:10.95Z</time></trkpt><trkpt lat="43.8436073" lon="11.2031956"><ele>90.0</ele><time>2026-04-02T15:28:11.942Z</time></trkpt><trkpt lat="43.8437345" lon="11.2032757"><ele>92.0</ele><time>2026-04-02T15:28:12.981Z</time></trkpt><trkpt lat="43.8438583" lon="11.2033456"><ele>94.0</ele><time>2026-04-02T15:28:13.951Z</time></trkpt><trkpt lat="43.8439841" lon="11.2034175"><ele>94.0</ele><time>2026-04-02T15:28:15.047Z</time></trkpt><trkpt lat="43.8440954" lon="11.2034868"><ele>94.0</ele><time>2026-04-02T15:28:16.04Z</time></trkpt><trkpt lat="43.844184" lon="11.2035631"><ele>94.0</ele><time>2026-04-02T15:28:16.959Z</time></trkpt><trkpt lat="43.8442285" lon="11.2036539"><ele>94.0</ele><time>2026-04-02T15:28:17.965Z</time></trkpt><trkpt lat="43.8442347" lon="11.2037739"><ele>94.0</ele><time>2026-04-02T15:28:18.958Z</time></trkpt><trkpt lat="43.8442184" lon="11.2039005"><ele>94.5</ele><time>2026-04-02T15:28:19.952Z</time></trkpt><trkpt lat="43.8441708" lon="11.204023"><ele>95.0</ele><time>2026-04-02T15:28:20.972Z</time></trkpt><trkpt lat="43.8440927" lon="11.2041411"><ele>95.5</ele><time>2026-04-02T15:28:21.956Z</time></trkpt><trkpt lat="43.844018" lon="11.2042692"><ele>96.0</ele><time>2026-04-02T15:28:22.972Z</time></trkpt><trkpt lat="43.8439348" lon="11.2044119"><ele>96.0</ele><time>2026-04-02T15:28:23.958Z</time></trkpt><trkpt lat="43.8438426" lon="11.2045477"><ele>96.0</ele><time>2026-04-02T15:28:24.981Z</time></trkpt><trkpt lat="43.8437427" lon="11.2046761"><ele>96.0</ele><time>2026-04-02T15:28:25.958Z</time></trkpt><trkpt lat="43.8436442" lon="11.2048251"><ele>96.0</ele><time>2026-04-02T15:28:26.96Z</time></trkpt><trkpt lat="43.8435648" lon="11.2049748"><ele>95.75</ele><time>2026-04-02T15:28:27.963Z</time></trkpt><trkpt lat="43.843486" lon="11.20513"><ele>95.5</ele><time>2026-04-02T15:28:29.022Z</time></trkpt><trkpt lat="43.8434047" lon="11.2052722"><ele>95.25</ele><time>2026-04-02T15:28:30.039Z</time></trkpt><trkpt lat="43.8433343" lon="11.2054065"><ele>95.0</ele><time>2026-04-02T15:28:31.028Z</time></trkpt><trkpt lat="43.8432649" lon="11.2055473"><ele>95.0</ele><time>2026-04-02T15:28:32.006Z</time></trkpt><trkpt lat="43.8432033" lon="11.2057061"><ele>95.0</ele><time>2026-04-02T15:28:32.944Z</time></trkpt><trkpt lat="43.8431574" lon="11.2058888"><ele>95.0</ele><time>2026-04-02T15:28:33.946Z</time></trkpt><trkpt lat="43.8431109" lon="11.2060746"><ele>95.0</ele><time>2026-04-02T15:28:34.966Z</time></trkpt><trkpt lat="43.8430613" lon="11.2062609"><ele>95.0</ele><time>2026-04-02T15:28:36.039Z</time></trkpt><trkpt lat="43.8430113" lon="11.2064394"><ele>95.0</ele><time>2026-04-02T15:28:37.031Z</time></trkpt><trkpt lat="43.8429649" lon="11.2066024"><ele>95.0</ele><time>2026-04-02T15:28:37.952Z</time></trkpt><trkpt lat="43.8429123" lon="11.206742"><ele>95.0</ele><time>2026-04-02T15:28:39.032Z</time></trkpt><trkpt lat="43.8428483" lon="11.2068673"><ele>94.75</ele><time>2026-04-02T15:28:39.962Z</time></trkpt><trkpt lat="43.84277" lon="11.2069865"><ele>94.5</ele><time>2026-04-02T15:28:40.97Z</time></trkpt><trkpt lat="43.8426871" lon="11.2071029"><ele>94.25</ele><time>2026-04-02T15:28:41.963Z</time></trkpt><trkpt lat="43.8425983" lon="11.2072237"><ele>94.0</ele><time>2026-04-02T15:28:42.966Z</time></trkpt><trkpt lat="43.8425126" lon="11.2073364"><ele>93.83333333333333</ele><time>2026-04-02T15:28:43.967Z</time></trkpt><trkpt lat="43.8424362" lon="11.2074348"><ele>93.66666666666666</ele><time>2026-04-02T15:28:45.028Z</time></trkpt><trkpt lat="43.8423648" lon="11.2075214"><ele>93.5</ele><time>2026-04-02T15:28:46.039Z</time></trkpt><trkpt lat="43.8422934" lon="11.2075949"><ele>93.33333333333333</ele><time>2026-04-02T15:28:47.038Z</time></trkpt><trkpt lat="43.842227" lon="11.2076513"><ele>93.16666666666667</ele><time>2026-04-02T15:28:47.948Z</time></trkpt><trkpt lat="43.8421665" lon="11.2077105"><ele>93.0</ele><time>2026-04-02T15:28:48.951Z</time></trkpt><trkpt lat="43.8421041" lon="11.2077674"><ele>93.0</ele><time>2026-04-02T15:28:49.954Z</time></trkpt><trkpt lat="43.8420127" lon="11.2078562"><ele>93.0</ele><time>2026-04-02T15:28:51.954Z</time></trkpt><trkpt lat="43.8419659" lon="11.2079307"><ele>93.0</ele><time>2026-04-02T15:28:53.955Z</time></trkpt><trkpt lat="43.8419488" lon="11.2080513"><ele>93.0</ele><time>2026-04-02T15:28:56.037Z</time></trkpt><trkpt lat="43.8419503" lon="11.208142"><ele>93.0</ele><time>2026-04-02T15:28:56.958Z</time></trkpt><trkpt lat="43.8419527" lon="11.2082398"><ele>93.0</ele><time>2026-04-02T15:28:57.949Z</time></trkpt><trkpt lat="43.8419482" lon="11.2083415"><ele>93.33333333333333</ele><time>2026-04-02T15:28:58.947Z</time></trkpt><trkpt lat="43.8419371" lon="11.208446"><ele>93.66666666666667</ele><time>2026-04-02T15:28:59.949Z</time></trkpt><trkpt lat="43.8419119" lon="11.2085602"><ele>94.0</ele><time>2026-04-02T15:29:00.949Z</time></trkpt><trkpt lat="43.8418767" lon="11.2086784"><ele>94.33333333333334</ele><time>2026-04-02T15:29:02.013Z</time></trkpt><trkpt lat="43.8418486" lon="11.2087872"><ele>94.66666666666667</ele><time>2026-04-02T15:29:02.951Z</time></trkpt><trkpt lat="43.8418263" lon="11.2088887"><ele>95.0</ele><time>2026-04-02T15:29:03.949Z</time></trkpt><trkpt lat="43.8418279" lon="11.2090423"><ele>94.83333333333334</ele><time>2026-04-02T15:29:05.953Z</time></trkpt><trkpt lat="43.8418305" lon="11.2091469"><ele>94.66666666666667</ele><time>2026-04-02T15:29:07.953Z</time></trkpt><trkpt lat="43.8418223" lon="11.209241"><ele>94.5</ele><time>2026-04-02T15:29:09.956Z</time></trkpt><trkpt lat="43.8418267" lon="11.2093767"><ele>94.33333333333333</ele><time>2026-04-02T15:29:12.014Z</time></trkpt><trkpt lat="43.8418316" lon="11.2095283"><ele>94.16666666666666</ele><time>2026-04-02T15:29:13.952Z</time></trkpt><trkpt lat="43.8417864" lon="11.2096084"><ele>94.0</ele><time>2026-04-02T15:29:15.946Z</time></trkpt><trkpt lat="43.8416776" lon="11.2096707"><ele>94.0</ele><time>2026-04-02T15:29:17.953Z</time></trkpt><trkpt lat="43.8416096" lon="11.209723"><ele>94.0</ele><time>2026-04-02T15:29:18.949Z</time></trkpt><trkpt lat="43.8415501" lon="11.2097711"><ele>94.0</ele><time>2026-04-02T15:29:19.976Z</time></trkpt><trkpt lat="43.8414966" lon="11.2098198"><ele>94.0</ele><time>2026-04-02T15:29:20.977Z</time></trkpt><trkpt lat="43.8414659" lon="11.2099576"><ele>94.0</ele><time>2026-04-02T15:29:22.947Z</time></trkpt><trkpt lat="43.8414718" lon="11.2100509"><ele>94.0</ele><time>2026-04-02T15:29:23.946Z</time></trkpt><trkpt lat="43.8414668" lon="11.2101441"><ele>94.33333333333333</ele><time>2026-04-02T15:29:24.95Z</time></trkpt><trkpt lat="43.8414576" lon="11.2102425"><ele>94.66666666666666</ele><time>2026-04-02T15:29:25.953Z</time></trkpt><trkpt lat="43.8414401" lon="11.2103264"><ele>95.0</ele><time>2026-04-02T15:29:26.95Z</time></trkpt><trkpt lat="43.8414479" lon="11.2104502"><ele>95.33333333333333</ele><time>2026-04-02T15:29:28.947Z</time></trkpt><trkpt lat="43.8415234" lon="11.2105852"><ele>95.66666666666667</ele><time>2026-04-02T15:29:30.952Z</time></trkpt><trkpt lat="43.8415757" lon="11.2106697"><ele>96.0</ele><time>2026-04-02T15:29:31.952Z</time></trkpt><trkpt lat="43.8416285" lon="11.2107599"><ele>96.6</ele><time>2026-04-02T15:29:32.951Z</time></trkpt><trkpt lat="43.8416823" lon="11.2108609"><ele>97.19999999999999</ele><time>2026-04-02T15:29:33.956Z</time></trkpt><trkpt lat="43.8417383" lon="11.2109613"><ele>97.80000000000001</ele><time>2026-04-02T15:29:35.026Z</time></trkpt><trkpt lat="43.8417977" lon="11.2110637"><ele>98.4</ele><time>2026-04-02T15:29:35.963Z</time></trkpt><trkpt lat="43.8418551" lon="11.2111672"><ele>99.0</ele><time>2026-04-02T15:29:36.959Z</time></trkpt><trkpt lat="43.8419159" lon="11.2112667"><ele>100.0</ele><time>2026-04-02T15:29:37.97Z</time></trkpt><trkpt lat="43.8419772" lon="11.2113607"><ele>101.0</ele><time>2026-04-02T15:29:38.971Z</time></trkpt><trkpt lat="43.8420399" lon="11.2114583"><ele>102.0</ele><time>2026-04-02T15:29:40.038Z</time></trkpt><trkpt lat="43.8421035" lon="11.2115607"><ele>103.0</ele><time>2026-04-02T15:29:40.953Z</time></trkpt><trkpt lat="43.8421625" lon="11.2116546"><ele>104.0</ele><time>2026-04-02T15:29:42.015Z</time></trkpt><trkpt lat="43.8422167" lon="11.2117514"><ele>104.66666666666666</ele><time>2026-04-02T15:29:42.956Z</time></trkpt><trkpt lat="43.8422728" lon="11.2118449"><ele>105.33333333333333</ele><time>2026-04-02T15:29:43.959Z</time></trkpt><trkpt lat="43.8423254" lon="11.211943"><ele>106.0</ele><time>2026-04-02T15:29:44.958Z</time></trkpt><trkpt lat="43.8423809" lon="11.2120351"><ele>106.66666666666666</ele><time>2026-04-02T15:29:45.965Z</time></trkpt><trkpt lat="43.8424372" lon="11.2121212"><ele>107.33333333333333</ele><time>2026-04-02T15:29:46.98Z</time></trkpt><trkpt lat="43.8424954" lon="11.2122122"><ele>108.0</ele><time>2026-04-02T15:29:47.956Z</time></trkpt><trkpt lat="43.8425525" lon="11.212303"><ele>109.0</ele><time>2026-04-02T15:29:49.028Z</time></trkpt><trkpt lat="43.8426055" lon="11.2123943"><ele>110.00000000000001</ele><time>2026-04-02T15:29:50.029Z</time></trkpt><trkpt lat="43.8426589" lon="11.2124907"><ele>111.00000000000001</ele><time>2026-04-02T15:29:50.945Z</time></trkpt><trkpt lat="43.8427163" lon="11.2125926"><ele>112.0</ele><time>2026-04-02T15:29:52.029Z</time></trkpt><trkpt lat="43.8427765" lon="11.2126921"><ele>113.0</ele><time>2026-04-02T15:29:52.967Z</time></trkpt><trkpt lat="43.8428393" lon="11.2127864"><ele>113.49999999999999</ele><time>2026-04-02T15:29:54.018Z</time></trkpt><trkpt lat="43.8428996" lon="11.2128823"><ele>114.0</ele><time>2026-04-02T15:29:54.957Z</time></trkpt><trkpt lat="43.842953" lon="11.2129678"><ele>114.5</ele><time>2026-04-02T15:29:55.963Z</time></trkpt><trkpt lat="43.8430064" lon="11.2130514"><ele>115.0</ele><time>2026-04-02T15:29:56.96Z</time></trkpt><trkpt lat="43.8430614" lon="11.2131397"><ele>115.49999999999999</ele><time>2026-04-02T15:29:57.96Z</time></trkpt><trkpt lat="43.8431107" lon="11.213212"><ele>116.0</ele><time>2026-04-02T15:29:58.966Z</time></trkpt><trkpt lat="43.8431997" lon="11.2133197"><ele>117.33333333333333</ele><time>2026-04-02T15:30:00.95Z</time></trkpt><trkpt lat="43.8432469" lon="11.2134133"><ele>118.66666666666666</ele><time>2026-04-02T15:30:02.961Z</time></trkpt><trkpt lat="43.8432827" lon="11.2135035"><ele>120.0</ele><time>2026-04-02T15:30:06.962Z</time></trkpt><trkpt lat="43.8433408" lon="11.2136178"><ele>121.33333333333334</ele><time>2026-04-02T15:30:09.96Z</time></trkpt><trkpt lat="43.8434026" lon="11.2136764"><ele>122.66666666666667</ele><time>2026-04-02T15:30:11.959Z</time></trkpt><trkpt lat="43.8434725" lon="11.2137753"><ele>124.0</ele><time>2026-04-02T15:30:13.952Z</time></trkpt><trkpt lat="43.8435506" lon="11.2138865"><ele>127.50000000000001</ele><time>2026-04-02T15:30:15.956Z</time></trkpt><trkpt lat="43.8436164" lon="11.2139887"><ele>131.0</ele><time>2026-04-02T15:30:17.962Z</time></trkpt><trkpt lat="43.8436643" lon="11.2140474"><ele>134.5</ele><time>2026-04-02T15:30:19.954Z</time></trkpt><trkpt lat="43.843717" lon="11.2141192"><ele>138.0</ele><time>2026-04-02T15:30:21.965Z</time></trkpt><trkpt lat="43.8437636" lon="11.2141981"><ele>141.5</ele><time>2026-04-02T15:30:24.958Z</time></trkpt><trkpt lat="43.8438465" lon="11.2141804"><ele>145.0</ele><time>2026-04-02T15:30:29.961Z</time></trkpt><trkpt lat="43.843917" lon="11.2141907"><ele>145.0</ele><time>2026-04-02T15:30:32.969Z</time></trkpt><trkpt lat="43.8439863" lon="11.2142234"><ele>145.0</ele><time>2026-04-02T15:30:35.963Z</time></trkpt><trkpt lat="43.8440589" lon="11.2142661"><ele>145.0</ele><time>2026-04-02T15:30:38.969Z</time></trkpt><trkpt lat="43.8441372" lon="11.2142796"><ele>145.0</ele><time>2026-04-02T15:30:41.969Z</time></trkpt><trkpt lat="43.8442221" lon="11.214301"><ele>145.0</ele><time>2026-04-02T15:30:44.99Z</time></trkpt><trkpt lat="43.8442928" lon="11.2143171"><ele>145.0</ele><time>2026-04-02T15:30:47.03Z</time></trkpt><trkpt lat="43.8443558" lon="11.2143332"><ele>145.5</ele><time>2026-04-02T15:30:48.963Z</time></trkpt><trkpt lat="43.8444327" lon="11.2143594"><ele>146.0</ele><time>2026-04-02T15:30:50.964Z</time></trkpt><trkpt lat="43.8445236" lon="11.2143878"><ele>146.5</ele><time>2026-04-02T15:30:52.968Z</time></trkpt><trkpt lat="43.8446128" lon="11.2144248"><ele>147.0</ele><time>2026-04-02T15:30:54.968Z</time></trkpt><trkpt lat="43.8447199" lon="11.2144757"><ele>147.5</ele><time>2026-04-02T15:30:57.039Z</time></trkpt><trkpt lat="43.8447894" lon="11.2144905"><ele>148.0</ele><time>2026-04-02T15:30:57.958Z</time></trkpt><trkpt lat="43.844877" lon="11.2145052"><ele>148.0</ele><time>2026-04-02T15:30:58.964Z</time></trkpt><trkpt lat="43.8449693" lon="11.2144997"><ele>148.0</ele><time>2026-04-02T15:30:59.961Z</time></trkpt><trkpt lat="43.8450672" lon="11.2145064"><ele>148.0</ele><time>2026-04-02T15:31:00.965Z</time></trkpt><trkpt lat="43.8451537" lon="11.2145143"><ele>148.0</ele><time>2026-04-02T15:31:01.96Z</time></trkpt><trkpt lat="43.8452399" lon="11.2145249"><ele>148.0</ele><time>2026-04-02T15:31:02.969Z</time></trkpt><trkpt lat="43.8453513" lon="11.2145359"><ele>148.5</ele><time>2026-04-02T15:31:03.962Z</time></trkpt><trkpt lat="43.8454512" lon="11.2145482"><ele>149.0</ele><time>2026-04-02T15:31:04.961Z</time></trkpt><trkpt lat="43.845542" lon="11.2145544"><ele>149.5</ele><time>2026-04-02T15:31:05.962Z</time></trkpt><trkpt lat="43.8456145" lon="11.2145611"><ele>150.0</ele><time>2026-04-02T15:31:07.027Z</time></trkpt><trkpt lat="43.8456785" lon="11.2145409"><ele>150.5</ele><time>2026-04-02T15:31:07.963Z</time></trkpt><trkpt lat="43.8457315" lon="11.2144826"><ele>151.0</ele><time>2026-04-02T15:31:08.964Z</time></trkpt><trkpt lat="43.8457787" lon="11.2144159"><ele>151.0</ele><time>2026-04-02T15:31:09.965Z</time></trkpt><trkpt lat="43.8458298" lon="11.2143567"><ele>151.0</ele><time>2026-04-02T15:31:10.963Z</time></trkpt><trkpt lat="43.8459286" lon="11.2143069"><ele>151.0</ele><time>2026-04-02T15:31:12.954Z</time></trkpt><trkpt lat="43.846043" lon="11.2143042"><ele>151.0</ele><time>2026-04-02T15:31:15.027Z</time></trkpt><trkpt lat="43.8461133" lon="11.2143275"><ele>151.0</ele><time>2026-04-02T15:31:16.036Z</time></trkpt><trkpt lat="43.8461841" lon="11.2143451"><ele>151.0</ele><time>2026-04-02T15:31:17.038Z</time></trkpt><trkpt lat="43.8462532" lon="11.2143606"><ele>151.0</ele><time>2026-04-02T15:31:17.953Z</time></trkpt><trkpt lat="43.8463327" lon="11.2143679"><ele>151.0</ele><time>2026-04-02T15:31:19.028Z</time></trkpt><trkpt lat="43.8464193" lon="11.2143611"><ele>151.0</ele><time>2026-04-02T15:31:20.046Z</time></trkpt><trkpt lat="43.84651" lon="11.2143487"><ele>151.0</ele><time>2026-04-02T15:31:21.033Z</time></trkpt><trkpt lat="43.8466085" lon="11.2143389"><ele>151.0</ele><time>2026-04-02T15:31:21.979Z</time></trkpt><trkpt lat="43.8467114" lon="11.2143296"><ele>151.0</ele><time>2026-04-02T15:31:22.95Z</time></trkpt><trkpt lat="43.8467876" lon="11.214315"><ele>151.0</ele><time>2026-04-02T15:31:23.957Z</time></trkpt><trkpt lat="43.8468745" lon="11.214273"><ele>151.0</ele><time>2026-04-02T15:31:25.96Z</time></trkpt><trkpt lat="43.8469503" lon="11.2142519"><ele>151.0</ele><time>2026-04-02T15:31:26.954Z</time></trkpt><trkpt lat="43.8470363" lon="11.2142191"><ele>151.0</ele><time>2026-04-02T15:31:27.957Z</time></trkpt><trkpt lat="43.8471341" lon="11.2141935"><ele>151.0</ele><time>2026-04-02T15:31:29.02Z</time></trkpt><trkpt lat="43.8472413" lon="11.2141685"><ele>151.2</ele><time>2026-04-02T15:31:30.029Z</time></trkpt><trkpt lat="43.8473536" lon="11.2141427"><ele>151.39999999999998</ele><time>2026-04-02T15:31:31.028Z</time></trkpt><trkpt lat="43.8474607" lon="11.2141168"><ele>151.6</ele><time>2026-04-02T15:31:31.953Z</time></trkpt><trkpt lat="43.8475565" lon="11.2140928"><ele>151.79999999999998</ele><time>2026-04-02T15:31:32.953Z</time></trkpt><trkpt lat="43.8476352" lon="11.2140847"><ele>152.0</ele><time>2026-04-02T15:31:33.95Z</time></trkpt><trkpt lat="43.8477056" lon="11.2141132"><ele>151.4</ele><time>2026-04-02T15:31:34.954Z</time></trkpt><trkpt lat="43.8477673" lon="11.214157"><ele>150.79999999999998</ele><time>2026-04-02T15:31:35.953Z</time></trkpt><trkpt lat="43.8478308" lon="11.2142043"><ele>150.2</ele><time>2026-04-02T15:31:36.953Z</time></trkpt><trkpt lat="43.8479289" lon="11.2142956"><ele>149.6</ele><time>2026-04-02T15:31:38.95Z</time></trkpt><trkpt lat="43.8480318" lon="11.2143814"><ele>149.0</ele><time>2026-04-02T15:31:40.944Z</time></trkpt><trkpt lat="43.8481033" lon="11.2144224"><ele>149.0</ele><time>2026-04-02T15:31:41.953Z</time></trkpt><trkpt lat="43.8481732" lon="11.2144638"><ele>149.0</ele><time>2026-04-02T15:31:42.953Z</time></trkpt><trkpt lat="43.8482379" lon="11.2145003"><ele>149.0</ele><time>2026-04-02T15:31:43.955Z</time></trkpt><trkpt lat="43.8483009" lon="11.2145496"><ele>149.0</ele><time>2026-04-02T15:31:44.954Z</time></trkpt><trkpt lat="43.8483718" lon="11.2146212"><ele>149.0</ele><time>2026-04-02T15:31:45.948Z</time></trkpt><trkpt lat="43.8484478" lon="11.2147105"><ele>149.0</ele><time>2026-04-02T15:31:46.952Z</time></trkpt><trkpt lat="43.8485233" lon="11.2147896"><ele>151.66666666666666</ele><time>2026-04-02T15:31:47.953Z</time></trkpt><trkpt lat="43.8485775" lon="11.2148559"><ele>154.33333333333331</ele><time>2026-04-02T15:31:48.957Z</time></trkpt><trkpt lat="43.8486327" lon="11.214922"><ele>157.0</ele><time>2026-04-02T15:31:49.952Z</time></trkpt><trkpt lat="43.8486979" lon="11.2149878"><ele>159.66666666666666</ele><time>2026-04-02T15:31:50.951Z</time></trkpt><trkpt lat="43.8487678" lon="11.2150561"><ele>162.33333333333334</ele><time>2026-04-02T15:31:51.953Z</time></trkpt><trkpt lat="43.8488524" lon="11.2151204"><ele>165.0</ele><time>2026-04-02T15:31:52.944Z</time></trkpt><trkpt lat="43.8489343" lon="11.2151832"><ele>165.0</ele><time>2026-04-02T15:31:53.951Z</time></trkpt><trkpt lat="43.8490179" lon="11.2152482"><ele>165.0</ele><time>2026-04-02T15:31:54.953Z</time></trkpt><trkpt lat="43.8490997" lon="11.2153235"><ele>165.0</ele><time>2026-04-02T15:31:55.998Z</time></trkpt><trkpt lat="43.8491833" lon="11.2154093"><ele>165.0</ele><time>2026-04-02T15:31:56.959Z</time></trkpt><trkpt lat="43.8492712" lon="11.2154874"><ele>165.0</ele><time>2026-04-02T15:31:57.949Z</time></trkpt><trkpt lat="43.8493512" lon="11.2155765"><ele>168.2</ele><time>2026-04-02T15:31:58.949Z</time></trkpt><trkpt lat="43.8494304" lon="11.2156564"><ele>171.4</ele><time>2026-04-02T15:31:59.956Z</time></trkpt><trkpt lat="43.8495096" lon="11.215744"><ele>174.60000000000002</ele><time>2026-04-02T15:32:00.952Z</time></trkpt><trkpt lat="43.8495907" lon="11.2158349"><ele>177.8</ele><time>2026-04-02T15:32:01.946Z</time></trkpt><trkpt lat="43.8496663" lon="11.2159221"><ele>181.0</ele><time>2026-04-02T15:32:02.948Z</time></trkpt><trkpt lat="43.8497355" lon="11.2160097"><ele>181.0</ele><time>2026-04-02T15:32:03.947Z</time></trkpt><trkpt lat="43.8498073" lon="11.2161032"><ele>181.0</ele><time>2026-04-02T15:32:04.954Z</time></trkpt><trkpt lat="43.849889" lon="11.2161951"><ele>181.0</ele><time>2026-04-02T15:32:05.951Z</time></trkpt><trkpt lat="43.8499761" lon="11.2162812"><ele>181.0</ele><time>2026-04-02T15:32:06.966Z</time></trkpt><trkpt lat="43.8500696" lon="11.2163717"><ele>181.0</ele><time>2026-04-02T15:32:07.956Z</time></trkpt><trkpt lat="43.8501544" lon="11.2164504"><ele>183.0</ele><time>2026-04-02T15:32:08.95Z</time></trkpt><trkpt lat="43.8502372" lon="11.2165283"><ele>185.0</ele><time>2026-04-02T15:32:09.951Z</time></trkpt><trkpt lat="43.8503146" lon="11.216601"><ele>187.0</ele><time>2026-04-02T15:32:10.94Z</time></trkpt><trkpt lat="43.8503911" lon="11.2166725"><ele>189.0</ele><time>2026-04-02T15:32:11.957Z</time></trkpt><trkpt lat="43.8504709" lon="11.2167451"><ele>191.0</ele><time>2026-04-02T15:32:12.952Z</time></trkpt><trkpt lat="43.8505577" lon="11.216824"><ele>191.0</ele><time>2026-04-02T15:32:13.948Z</time></trkpt><trkpt lat="43.850641" lon="11.2169077"><ele>191.0</ele><time>2026-04-02T15:32:14.956Z</time></trkpt><trkpt lat="43.8507275" lon="11.2169892"><ele>191.0</ele><time>2026-04-02T15:32:15.952Z</time></trkpt><trkpt lat="43.8508142" lon="11.2170733"><ele>191.0</ele><time>2026-04-02T15:32:16.952Z</time></trkpt><trkpt lat="43.8508942" lon="11.2171468"><ele>191.0</ele><time>2026-04-02T15:32:17.947Z</time></trkpt><trkpt lat="43.8509779" lon="11.2172034"><ele>188.60000000000002</ele><time>2026-04-02T15:32:18.953Z</time></trkpt><trkpt lat="43.8510671" lon="11.2172426"><ele>186.2</ele><time>2026-04-02T15:32:19.948Z</time></trkpt><trkpt lat="43.8511552" lon="11.2172906"><ele>183.8</ele><time>2026-04-02T15:32:20.954Z</time></trkpt><trkpt lat="43.8512405" lon="11.2173441"><ele>181.39999999999998</ele><time>2026-04-02T15:32:21.952Z</time></trkpt><trkpt lat="43.8513291" lon="11.2173986"><ele>179.0</ele><time>2026-04-02T15:32:22.953Z</time></trkpt><trkpt lat="43.8514151" lon="11.2174608"><ele>183.0</ele><time>2026-04-02T15:32:23.953Z</time></trkpt><trkpt lat="43.851504" lon="11.217543"><ele>187.0</ele><time>2026-04-02T15:32:24.955Z</time></trkpt><trkpt lat="43.8515901" lon="11.2176265"><ele>191.0</ele><time>2026-04-02T15:32:25.949Z</time></trkpt><trkpt lat="43.8516962" lon="11.2177057"><ele>195.0</ele><time>2026-04-02T15:32:26.956Z</time></trkpt><trkpt lat="43.8518009" lon="11.2177878"><ele>195.0</ele><time>2026-04-02T15:32:27.957Z</time></trkpt><trkpt lat="43.8519074" lon="11.2178712"><ele>195.0</ele><time>2026-04-02T15:32:28.957Z</time></trkpt><trkpt lat="43.8520029" lon="11.2179517"><ele>195.0</ele><time>2026-04-02T15:32:29.949Z</time></trkpt><trkpt lat="43.8520987" lon="11.2180368"><ele>195.0</ele><time>2026-04-02T15:32:30.956Z</time></trkpt><trkpt lat="43.8521994" lon="11.2181116"><ele>199.25</ele><time>2026-04-02T15:32:31.95Z</time></trkpt><trkpt lat="43.8522924" lon="11.2181898"><ele>203.5</ele><time>2026-04-02T15:32:32.956Z</time></trkpt><trkpt lat="43.8523939" lon="11.2182629"><ele>207.75</ele><time>2026-04-02T15:32:33.955Z</time></trkpt><trkpt lat="43.8525014" lon="11.2183404"><ele>212.0</ele><time>2026-04-02T15:32:34.959Z</time></trkpt><trkpt lat="43.8526015" lon="11.2184208"><ele>210.0</ele><time>2026-04-02T15:32:35.948Z</time></trkpt><trkpt lat="43.8527003" lon="11.2184841"><ele>208.0</ele><time>2026-04-02T15:32:36.954Z</time></trkpt><trkpt lat="43.8528018" lon="11.2185411"><ele>206.0</ele><time>2026-04-02T15:32:37.95Z</time></trkpt><trkpt lat="43.8529056" lon="11.2186036"><ele>204.0</ele><time>2026-04-02T15:32:38.952Z</time></trkpt><trkpt lat="43.8530014" lon="11.2186719"><ele>202.0</ele><time>2026-04-02T15:32:39.951Z</time></trkpt><trkpt lat="43.8530996" lon="11.2187399"><ele>202.0</ele><time>2026-04-02T15:32:40.958Z</time></trkpt><trkpt lat="43.8531955" lon="11.21882"><ele>202.0</ele><time>2026-04-02T15:32:41.941Z</time></trkpt><trkpt lat="43.8532947" lon="11.2189026"><ele>202.0</ele><time>2026-04-02T15:32:42.949Z</time></trkpt><trkpt lat="43.8533931" lon="11.2189868"><ele>202.0</ele><time>2026-04-02T15:32:43.955Z</time></trkpt><trkpt lat="43.8534805" lon="11.2190706"><ele>204.8</ele><time>2026-04-02T15:32:45.027Z</time></trkpt><trkpt lat="43.8535753" lon="11.2191554"><ele>207.6</ele><time>2026-04-02T15:32:46.031Z</time></trkpt><trkpt lat="43.8536631" lon="11.2192364"><ele>210.40000000000003</ele><time>2026-04-02T15:32:46.961Z</time></trkpt><trkpt lat="43.853745" lon="11.2193149"><ele>213.20000000000002</ele><time>2026-04-02T15:32:47.956Z</time></trkpt><trkpt lat="43.8538336" lon="11.2193947"><ele>216.0</ele><time>2026-04-02T15:32:48.973Z</time></trkpt><trkpt lat="43.853917" lon="11.2194807"><ele>216.0</ele><time>2026-04-02T15:32:49.953Z</time></trkpt><trkpt lat="43.853995" lon="11.219562"><ele>216.00000000000003</ele><time>2026-04-02T15:32:50.945Z</time></trkpt><trkpt lat="43.8540706" lon="11.2196451"><ele>216.00000000000003</ele><time>2026-04-02T15:32:52.04Z</time></trkpt><trkpt lat="43.8541579" lon="11.21974"><ele>216.0</ele><time>2026-04-02T15:32:52.952Z</time></trkpt><trkpt lat="43.8542266" lon="11.2198381"><ele>216.0</ele><time>2026-04-02T15:32:53.958Z</time></trkpt><trkpt lat="43.8542953" lon="11.2199458"><ele>214.60000000000002</ele><time>2026-04-02T15:32:54.986Z</time></trkpt><trkpt lat="43.8543676" lon="11.2200591"><ele>213.20000000000002</ele><time>2026-04-02T15:32:55.958Z</time></trkpt><trkpt lat="43.8544365" lon="11.2201704"><ele>211.8</ele><time>2026-04-02T15:32:57.037Z</time></trkpt><trkpt lat="43.8544947" lon="11.2202693"><ele>210.39999999999998</ele><time>2026-04-02T15:32:57.953Z</time></trkpt><trkpt lat="43.8545516" lon="11.2203671"><ele>209.0</ele><time>2026-04-02T15:32:58.955Z</time></trkpt><trkpt lat="43.8545919" lon="11.2204632"><ele>209.0</ele><time>2026-04-02T15:32:59.957Z</time></trkpt><trkpt lat="43.8546293" lon="11.2205479"><ele>209.0</ele><time>2026-04-02T15:33:01.03Z</time></trkpt><trkpt lat="43.8546843" lon="11.2207001"><ele>209.0</ele><time>2026-04-02T15:33:02.955Z</time></trkpt><trkpt lat="43.8547271" lon="11.2207917"><ele>209.0</ele><time>2026-04-02T15:33:03.957Z</time></trkpt><trkpt lat="43.8547941" lon="11.2209658"><ele>209.0</ele><time>2026-04-02T15:33:05.962Z</time></trkpt><trkpt lat="43.8548371" lon="11.2210702"><ele>212.2</ele><time>2026-04-02T15:33:06.957Z</time></trkpt><trkpt lat="43.8548898" lon="11.221183"><ele>215.39999999999998</ele><time>2026-04-02T15:33:07.963Z</time></trkpt><trkpt lat="43.8549487" lon="11.2213062"><ele>218.6</ele><time>2026-04-02T15:33:08.963Z</time></trkpt><trkpt lat="43.8550155" lon="11.221427"><ele>221.8</ele><time>2026-04-02T15:33:09.962Z</time></trkpt><trkpt lat="43.8550599" lon="11.2215387"><ele>225.0</ele><time>2026-04-02T15:33:10.959Z</time></trkpt><trkpt lat="43.8551048" lon="11.221663"><ele>225.16666666666666</ele><time>2026-04-02T15:33:11.963Z</time></trkpt><trkpt lat="43.8551479" lon="11.2217591"><ele>225.33333333333331</ele><time>2026-04-02T15:33:12.962Z</time></trkpt><trkpt lat="43.8551798" lon="11.2218776"><ele>225.5</ele><time>2026-04-02T15:33:13.959Z</time></trkpt><trkpt lat="43.8552028" lon="11.2219634"><ele>225.66666666666666</ele><time>2026-04-02T15:33:14.957Z</time></trkpt><trkpt lat="43.8552151" lon="11.2220532"><ele>225.83333333333331</ele><time>2026-04-02T15:33:15.956Z</time></trkpt><trkpt lat="43.8552124" lon="11.2222003"><ele>226.0</ele><time>2026-04-02T15:33:17.958Z</time></trkpt><trkpt lat="43.8552469" lon="11.2223157"><ele>227.28571428571428</ele><time>2026-04-02T15:33:20.962Z</time></trkpt><trkpt lat="43.8552878" lon="11.2223951"><ele>228.57142857142856</ele><time>2026-04-02T15:33:38.965Z</time></trkpt><trkpt lat="43.8553192" lon="11.2224768"><ele>229.85714285714283</ele><time>2026-04-02T15:33:53.959Z</time></trkpt><trkpt lat="43.8553819" lon="11.2224535"><ele>231.14285714285714</ele><time>2026-04-02T15:34:07.956Z</time></trkpt><trkpt lat="43.85544" lon="11.2224088"><ele>232.4285714285714</ele><time>2026-04-02T15:34:11.958Z</time></trkpt><trkpt lat="43.8553885" lon="11.222461"><ele>233.7142857142857</ele><time>2026-04-02T15:34:29.964Z</time></trkpt><trkpt lat="43.8553388" lon="11.2225288"><ele>235.0</ele><time>2026-04-02T15:36:07.951Z</time></trkpt><trkpt lat="43.8553903" lon="11.2226111"><ele>234.99999999999997</ele><time>2026-04-02T15:40:00.949Z</time></trkpt><trkpt lat="43.855429" lon="11.2227074"><ele>235.0</ele><time>2026-04-02T15:40:07.948Z</time></trkpt><trkpt lat="43.85536" lon="11.222539"><ele>235.0</ele><time>2026-04-02T15:41:05.95Z</time></trkpt><trkpt lat="43.8553299" lon="11.222452"><ele>235.0</ele><time>2026-04-02T15:41:29.951Z</time></trkpt><trkpt lat="43.8552899" lon="11.2223454"><ele>234.99999999999997</ele><time>2026-04-02T15:41:32.956Z</time></trkpt><trkpt lat="43.855245" lon="11.2222806"><ele>235.0</ele><time>2026-04-02T15:41:34.947Z</time></trkpt><trkpt lat="43.8551981" lon="11.2222173"><ele>235.99999999999997</ele><time>2026-04-02T15:41:36.952Z</time></trkpt><trkpt lat="43.8551415" lon="11.2221479"><ele>237.0</ele><time>2026-04-02T15:41:38.955Z</time></trkpt><trkpt lat="43.8550838" lon="11.2220756"><ele>238.0</ele><time>2026-04-02T15:41:40.947Z</time></trkpt><trkpt lat="43.8550013" lon="11.2220253"><ele>239.0</ele><time>2026-04-02T15:41:41.953Z</time></trkpt><trkpt lat="43.8549423" lon="11.2219844"><ele>239.99999999999997</ele><time>2026-04-02T15:41:42.946Z</time></trkpt><trkpt lat="43.854848" lon="11.2219121"><ele>241.0</ele><time>2026-04-02T15:41:44.96Z</time></trkpt><trkpt lat="43.8547931" lon="11.2218596"><ele>241.0</ele><time>2026-04-02T15:41:45.955Z</time></trkpt><trkpt lat="43.8546848" lon="11.2217787"><ele>241.00000000000003</ele><time>2026-04-02T15:41:47.941Z</time></trkpt><trkpt lat="43.8545812" lon="11.2217104"><ele>241.00000000000003</ele><time>2026-04-02T15:41:49.953Z</time></trkpt><trkpt lat="43.8544924" lon="11.2216641"><ele>241.0</ele><time>2026-04-02T15:41:51.951Z</time></trkpt><trkpt lat="43.854402" lon="11.2215986"><ele>241.0</ele><time>2026-04-02T15:41:53.949Z</time></trkpt><trkpt lat="43.8543007" lon="11.2215263"><ele>242.33333333333331</ele><time>2026-04-02T15:41:56.007Z</time></trkpt><trkpt lat="43.8542465" lon="11.2214817"><ele>243.66666666666666</ele><time>2026-04-02T15:41:57.015Z</time></trkpt><trkpt lat="43.8541715" lon="11.2214551"><ele>245.0</ele><time>2026-04-02T15:41:59.951Z</time></trkpt><trkpt lat="43.854166" lon="11.221549"><ele>246.33333333333331</ele><time>2026-04-02T15:42:03.95Z</time></trkpt><trkpt lat="43.854198" lon="11.2216531"><ele>247.66666666666666</ele><time>2026-04-02T15:42:05.949Z</time></trkpt><trkpt lat="43.8542364" lon="11.2217733"><ele>249.0</ele><time>2026-04-02T15:42:07.94Z</time></trkpt><trkpt lat="43.8542818" lon="11.2219018"><ele>247.66666666666666</ele><time>2026-04-02T15:42:09.95Z</time></trkpt><trkpt lat="43.8543256" lon="11.2220248"><ele>246.33333333333331</ele><time>2026-04-02T15:42:11.951Z</time></trkpt><trkpt lat="43.854369" lon="11.2221327"><ele>245.0</ele><time>2026-04-02T15:42:13.951Z</time></trkpt><trkpt lat="43.8544021" lon="11.2222458"><ele>243.66666666666666</ele><time>2026-04-02T15:42:15.949Z</time></trkpt><trkpt lat="43.8544186" lon="11.2223437"><ele>242.33333333333331</ele><time>2026-04-02T15:42:18.02Z</time></trkpt><trkpt lat="43.8544451" lon="11.2224484"><ele>241.0</ele><time>2026-04-02T15:42:19.951Z</time></trkpt><trkpt lat="43.854452" lon="11.2225423"><ele>243.83333333333331</ele><time>2026-04-02T15:42:21.953Z</time></trkpt><trkpt lat="43.8543855" lon="11.222575"><ele>246.66666666666666</ele><time>2026-04-02T15:42:23.946Z</time></trkpt><trkpt lat="43.854307" lon="11.2225302"><ele>249.5</ele><time>2026-04-02T15:42:26.953Z</time></trkpt><trkpt lat="43.854244" lon="11.2225228"><ele>252.33333333333331</ele><time>2026-04-02T15:42:30.033Z</time></trkpt><trkpt lat="43.8542438" lon="11.2226416"><ele>255.16666666666666</ele><time>2026-04-02T15:42:32.971Z</time></trkpt><trkpt lat="43.8542703" lon="11.2227403"><ele>258.0</ele><time>2026-04-02T15:42:34.965Z</time></trkpt><trkpt lat="43.854301" lon="11.2228916"><ele>258.0</ele><time>2026-04-02T15:42:36.978Z</time></trkpt><trkpt lat="43.8543243" lon="11.2229764"><ele>258.0</ele><time>2026-04-02T15:42:37.963Z</time></trkpt><trkpt lat="43.8543384" lon="11.2230658"><ele>258.0</ele><time>2026-04-02T15:42:38.965Z</time></trkpt><trkpt lat="43.8543527" lon="11.2231509"><ele>258.0</ele><time>2026-04-02T15:42:39.971Z</time></trkpt><trkpt lat="43.8543793" lon="11.2233053"><ele>258.0</ele><time>2026-04-02T15:42:41.969Z</time></trkpt><trkpt lat="43.8543867" lon="11.2234666"><ele>258.0</ele><time>2026-04-02T15:42:43.971Z</time></trkpt><trkpt lat="43.854394" lon="11.2236352"><ele>260.6</ele><time>2026-04-02T15:42:45.969Z</time></trkpt><trkpt lat="43.854374" lon="11.2237589"><ele>263.20000000000005</ele><time>2026-04-02T15:42:47.97Z</time></trkpt><trkpt lat="43.8543082" lon="11.2238887"><ele>265.8</ele><time>2026-04-02T15:42:49.971Z</time></trkpt><trkpt lat="43.854236" lon="11.2239993"><ele>268.40000000000003</ele><time>2026-04-02T15:42:52.042Z</time></trkpt><trkpt lat="43.8541845" lon="11.2241166"><ele>271.0</ele><time>2026-04-02T15:42:53.97Z</time></trkpt><trkpt lat="43.8541616" lon="11.2242635"><ele>279.2</ele><time>2026-04-02T15:42:55.973Z</time></trkpt><trkpt lat="43.8541388" lon="11.2244256"><ele>287.40000000000003</ele><time>2026-04-02T15:42:57.969Z</time></trkpt><trkpt lat="43.8541272" lon="11.2245736"><ele>295.6</ele><time>2026-04-02T15:43:00.028Z</time></trkpt><trkpt lat="43.8541314" lon="11.2246965"><ele>303.8</ele><time>2026-04-02T15:43:01.962Z</time></trkpt><trkpt lat="43.8541473" lon="11.2248426"><ele>312.0</ele><time>2026-04-02T15:43:03.971Z</time></trkpt><trkpt lat="43.8541514" lon="11.2249752"><ele>313.0</ele><time>2026-04-02T15:43:05.971Z</time></trkpt><trkpt lat="43.8541429" lon="11.2250921"><ele>314.0</ele><time>2026-04-02T15:43:07.974Z</time></trkpt><trkpt lat="43.8541402" lon="11.2252211"><ele>315.0</ele><time>2026-04-02T15:43:09.97Z</time></trkpt><trkpt lat="43.8541373" lon="11.2253559"><ele>316.0</ele><time>2026-04-02T15:43:11.964Z</time></trkpt><trkpt lat="43.8541363" lon="11.2254789"><ele>317.0</ele><time>2026-04-02T15:43:13.968Z</time></trkpt><trkpt lat="43.8541057" lon="11.2255909"><ele>317.6666666666667</ele><time>2026-04-02T15:43:15.972Z</time></trkpt><trkpt lat="43.8540697" lon="11.2256712"><ele>318.33333333333337</ele><time>2026-04-02T15:43:17.969Z</time></trkpt><trkpt lat="43.8540225" lon="11.2257541"><ele>319.0</ele><time>2026-04-02T15:43:19.971Z</time></trkpt><trkpt lat="43.8540072" lon="11.2258657"><ele>319.6666666666667</ele><time>2026-04-02T15:43:21.972Z</time></trkpt><trkpt lat="43.854" lon="11.2259765"><ele>320.3333333333333</ele><time>2026-04-02T15:43:23.968Z</time></trkpt><trkpt lat="43.8539599" lon="11.2260719"><ele>321.0</ele><time>2026-04-02T15:43:26.971Z</time></trkpt><trkpt lat="43.8539068" lon="11.2260053"><ele>320.99999999999994</ele><time>2026-04-02T15:43:29.966Z</time></trkpt><trkpt lat="43.8538617" lon="11.2259218"><ele>321.0</ele><time>2026-04-02T15:43:32.961Z</time></trkpt><trkpt lat="43.8538127" lon="11.2258216"><ele>321.0</ele><time>2026-04-02T15:43:35.959Z</time></trkpt><trkpt lat="43.8537361" lon="11.2258091"><ele>321.0</ele><time>2026-04-02T15:43:38.98Z</time></trkpt><trkpt lat="43.8537043" lon="11.2258867"><ele>321.0</ele><time>2026-04-02T15:43:40.97Z</time></trkpt><trkpt lat="43.8536721" lon="11.2259718"><ele>320.99999999999994</ele><time>2026-04-02T15:43:42.976Z</time></trkpt><trkpt lat="43.8536631" lon="11.2260584"><ele>321.0</ele><time>2026-04-02T15:43:44.968Z</time></trkpt><trkpt lat="43.8536505" lon="11.2261588"><ele>321.0</ele><time>2026-04-02T15:43:46.97Z</time></trkpt><trkpt lat="43.8535993" lon="11.2262811"><ele>321.0</ele><time>2026-04-02T15:43:48.976Z</time></trkpt><trkpt lat="43.8535475" lon="11.2263846"><ele>321.0</ele><time>2026-04-02T15:43:50.971Z</time></trkpt><trkpt lat="43.853554" lon="11.226507"><ele>321.0</ele><time>2026-04-02T15:43:52.974Z</time></trkpt><trkpt lat="43.8535773" lon="11.2266225"><ele>321.0</ele><time>2026-04-02T15:43:54.974Z</time></trkpt><trkpt lat="43.853588" lon="11.2267146"><ele>321.0</ele><time>2026-04-02T15:43:56.968Z</time></trkpt><trkpt lat="43.8535969" lon="11.2268654"><ele>321.6</ele><time>2026-04-02T15:43:58.972Z</time></trkpt><trkpt lat="43.8535913" lon="11.2270374"><ele>322.20000000000005</ele><time>2026-04-02T15:44:00.97Z</time></trkpt><trkpt lat="43.8535553" lon="11.2271934"><ele>322.79999999999995</ele><time>2026-04-02T15:44:02.973Z</time></trkpt><trkpt lat="43.8535169" lon="11.2273303"><ele>323.4</ele><time>2026-04-02T15:44:04.971Z</time></trkpt><trkpt lat="43.8534816" lon="11.227437"><ele>324.0</ele><time>2026-04-02T15:44:06.969Z</time></trkpt><trkpt lat="43.8534597" lon="11.2275243"><ele>324.5</ele><time>2026-04-02T15:44:08.974Z</time></trkpt><trkpt lat="43.8534576" lon="11.227622"><ele>325.0</ele><time>2026-04-02T15:44:10.971Z</time></trkpt><trkpt lat="43.8534431" lon="11.2277186"><ele>325.5</ele><time>2026-04-02T15:44:12.971Z</time></trkpt><trkpt lat="43.8534157" lon="11.2278348"><ele>326.0</ele><time>2026-04-02T15:44:14.972Z</time></trkpt><trkpt lat="43.8533692" lon="11.2279619"><ele>326.5</ele><time>2026-04-02T15:44:16.978Z</time></trkpt><trkpt lat="43.8533368" lon="11.2280757"><ele>327.0</ele><time>2026-04-02T15:44:18.973Z</time></trkpt><trkpt lat="43.8533127" lon="11.2281749"><ele>333.5</ele><time>2026-04-02T15:44:21.007Z</time></trkpt><trkpt lat="43.8532699" lon="11.2282621"><ele>340.0</ele><time>2026-04-02T15:44:23.971Z</time></trkpt><trkpt lat="43.8532515" lon="11.2281584"><ele>346.5</ele><time>2026-04-02T15:44:27.97Z</time></trkpt><trkpt lat="43.8532818" lon="11.2280794"><ele>353.0</ele><time>2026-04-02T15:44:37.966Z</time></trkpt><trkpt lat="43.8532716" lon="11.227976"><ele>359.5</ele><time>2026-04-02T15:44:41.965Z</time></trkpt><trkpt lat="43.8532492" lon="11.2278632"><ele>366.0</ele><time>2026-04-02T15:44:44.972Z</time></trkpt><trkpt lat="43.8532344" lon="11.2277579"><ele>366.0</ele><time>2026-04-02T15:44:46.975Z</time></trkpt><trkpt lat="43.8532272" lon="11.2276249"><ele>366.0</ele><time>2026-04-02T15:44:48.974Z</time></trkpt><trkpt lat="43.8531903" lon="11.2274732"><ele>366.0</ele><time>2026-04-02T15:44:50.972Z</time></trkpt><trkpt lat="43.853171" lon="11.227385"><ele>366.0</ele><time>2026-04-02T15:44:51.972Z</time></trkpt><trkpt lat="43.8531431" lon="11.2272254"><ele>366.0</ele><time>2026-04-02T15:44:53.972Z</time></trkpt><trkpt lat="43.8531403" lon="11.2270597"><ele>365.4</ele><time>2026-04-02T15:44:55.97Z</time></trkpt><trkpt lat="43.8531323" lon="11.2269724"><ele>364.8</ele><time>2026-04-02T15:44:56.969Z</time></trkpt><trkpt lat="43.8531026" lon="11.2267974"><ele>364.2</ele><time>2026-04-02T15:44:58.969Z</time></trkpt><trkpt lat="43.8530836" lon="11.2266402"><ele>363.59999999999997</ele><time>2026-04-02T15:45:00.975Z</time></trkpt><trkpt lat="43.8530556" lon="11.2265129"><ele>363.0</ele><time>2026-04-02T15:45:02.965Z</time></trkpt><trkpt lat="43.8530179" lon="11.2263917"><ele>362.2</ele><time>2026-04-02T15:45:04.97Z</time></trkpt><trkpt lat="43.8529643" lon="11.2262591"><ele>361.4</ele><time>2026-04-02T15:45:06.972Z</time></trkpt><trkpt lat="43.8529218" lon="11.2261343"><ele>360.59999999999997</ele><time>2026-04-02T15:45:08.967Z</time></trkpt><trkpt lat="43.8528819" lon="11.2260208"><ele>359.79999999999995</ele><time>2026-04-02T15:45:10.973Z</time></trkpt><trkpt lat="43.8528667" lon="11.2259161"><ele>359.0</ele><time>2026-04-02T15:45:12.964Z</time></trkpt><trkpt lat="43.8528539" lon="11.2258106"><ele>359.0</ele><time>2026-04-02T15:45:14.974Z</time></trkpt><trkpt lat="43.852835" lon="11.2256842"><ele>359.0</ele><time>2026-04-02T15:45:16.969Z</time></trkpt><trkpt lat="43.8528164" lon="11.2255548"><ele>359.0</ele><time>2026-04-02T15:45:18.97Z</time></trkpt><trkpt lat="43.8528071" lon="11.2254507"><ele>359.0</ele><time>2026-04-02T15:45:21.033Z</time></trkpt><trkpt lat="43.8527975" lon="11.2253557"><ele>359.0</ele><time>2026-04-02T15:45:22.972Z</time></trkpt><trkpt lat="43.8527784" lon="11.2252548"><ele>359.0</ele><time>2026-04-02T15:45:24.971Z</time></trkpt><trkpt lat="43.8527525" lon="11.2251183"><ele>359.0</ele><time>2026-04-02T15:45:26.969Z</time></trkpt><trkpt lat="43.852742" lon="11.2249871"><ele>359.0</ele><time>2026-04-02T15:45:28.971Z</time></trkpt><trkpt lat="43.8527151" lon="11.2248641"><ele>359.0</ele><time>2026-04-02T15:45:30.975Z</time></trkpt><trkpt lat="43.852687" lon="11.2247618"><ele>359.0</ele><time>2026-04-02T15:45:32.968Z</time></trkpt><trkpt lat="43.8526589" lon="11.2246832"><ele>359.0</ele><time>2026-04-02T15:45:34.967Z</time></trkpt><trkpt lat="43.8526218" lon="11.2246075"><ele>359.0</ele><time>2026-04-02T15:45:36.966Z</time></trkpt><trkpt lat="43.8525708" lon="11.2245138"><ele>363.1666666666667</ele><time>2026-04-02T15:45:39.968Z</time></trkpt><trkpt lat="43.8525208" lon="11.2244567"><ele>367.33333333333337</ele><time>2026-04-02T15:45:42.013Z</time></trkpt><trkpt lat="43.8524556" lon="11.224362"><ele>371.5</ele><time>2026-04-02T15:45:44.953Z</time></trkpt><trkpt lat="43.852388" lon="11.2242743"><ele>375.6666666666667</ele><time>2026-04-02T15:45:48.039Z</time></trkpt><trkpt lat="43.8523325" lon="11.2241961"><ele>379.8333333333333</ele><time>2026-04-02T15:45:50.031Z</time></trkpt><trkpt lat="43.8522768" lon="11.2241034"><ele>384.0</ele><time>2026-04-02T15:45:51.961Z</time></trkpt><trkpt lat="43.8521825" lon="11.224006"><ele>385.2</ele><time>2026-04-02T15:45:53.967Z</time></trkpt><trkpt lat="43.8520902" lon="11.2239085"><ele>386.4</ele><time>2026-04-02T15:45:55.967Z</time></trkpt><trkpt lat="43.8520109" lon="11.2238191"><ele>387.6</ele><time>2026-04-02T15:45:58.054Z</time></trkpt><trkpt lat="43.8519242" lon="11.2237217"><ele>388.8</ele><time>2026-04-02T15:45:59.962Z</time></trkpt><trkpt lat="43.8518371" lon="11.2236396"><ele>390.0</ele><time>2026-04-02T15:46:01.963Z</time></trkpt><trkpt lat="43.8517556" lon="11.2235688"><ele>390.0</ele><time>2026-04-02T15:46:03.962Z</time></trkpt><trkpt lat="43.8516687" lon="11.2234886"><ele>390.0</ele><time>2026-04-02T15:46:05.957Z</time></trkpt><trkpt lat="43.8515803" lon="11.2234221"><ele>390.0</ele><time>2026-04-02T15:46:07.964Z</time></trkpt><trkpt lat="43.8515021" lon="11.2233701"><ele>390.0</ele><time>2026-04-02T15:46:09.955Z</time></trkpt><trkpt lat="43.8514121" lon="11.2233249"><ele>390.0</ele><time>2026-04-02T15:46:11.958Z</time></trkpt><trkpt lat="43.8513178" lon="11.2232956"><ele>390.0</ele><time>2026-04-02T15:46:13.963Z</time></trkpt><trkpt lat="43.8512453" lon="11.2232701"><ele>390.0</ele><time>2026-04-02T15:46:15.959Z</time></trkpt><trkpt lat="43.8511775" lon="11.2232394"><ele>390.0</ele><time>2026-04-02T15:46:17.954Z</time></trkpt><trkpt lat="43.8511203" lon="11.2231922"><ele>390.0</ele><time>2026-04-02T15:46:19.953Z</time></trkpt><trkpt lat="43.8510381" lon="11.2231463"><ele>390.0</ele><time>2026-04-02T15:46:21.967Z</time></trkpt><trkpt lat="43.8509375" lon="11.2231072"><ele>390.0</ele><time>2026-04-02T15:46:23.959Z</time></trkpt><trkpt lat="43.8508536" lon="11.2230891"><ele>389.4</ele><time>2026-04-02T15:46:26.065Z</time></trkpt><trkpt lat="43.850763" lon="11.2230651"><ele>388.8</ele><time>2026-04-02T15:46:27.953Z</time></trkpt><trkpt lat="43.8506585" lon="11.2230322"><ele>388.20000000000005</ele><time>2026-04-02T15:46:29.95Z</time></trkpt><trkpt lat="43.8505572" lon="11.2230047"><ele>387.6</ele><time>2026-04-02T15:46:31.954Z</time></trkpt><trkpt lat="43.8504506" lon="11.2229586"><ele>387.0</ele><time>2026-04-02T15:46:33.951Z</time></trkpt><trkpt lat="43.8503502" lon="11.2229078"><ele>387.0</ele><time>2026-04-02T15:46:35.953Z</time></trkpt><trkpt lat="43.8502522" lon="11.222852"><ele>387.0</ele><time>2026-04-02T15:46:37.947Z</time></trkpt><trkpt lat="43.8501629" lon="11.2228166"><ele>387.0</ele><time>2026-04-02T15:46:39.977Z</time></trkpt><trkpt lat="43.8500583" lon="11.2228038"><ele>387.0</ele><time>2026-04-02T15:46:41.954Z</time></trkpt><trkpt lat="43.8499773" lon="11.2227952"><ele>387.0</ele><time>2026-04-02T15:46:43.951Z</time></trkpt><trkpt lat="43.8498741" lon="11.2227672"><ele>388.6666666666667</ele><time>2026-04-02T15:46:46.955Z</time></trkpt><trkpt lat="43.849799" lon="11.2227392"><ele>390.33333333333337</ele><time>2026-04-02T15:46:48.954Z</time></trkpt><trkpt lat="43.849698" lon="11.2226873"><ele>392.0</ele><time>2026-04-02T15:46:51.021Z</time></trkpt><trkpt lat="43.8496371" lon="11.222661"><ele>393.6666666666667</ele><time>2026-04-02T15:46:51.951Z</time></trkpt><trkpt lat="43.8495524" lon="11.222651"><ele>395.33333333333337</ele><time>2026-04-02T15:46:53.95Z</time></trkpt><trkpt lat="43.8494676" lon="11.2226488"><ele>397.0</ele><time>2026-04-02T15:46:55.952Z</time></trkpt><trkpt lat="43.8493822" lon="11.2226521"><ele>397.00000000000006</ele><time>2026-04-02T15:46:58.031Z</time></trkpt><trkpt lat="43.8493114" lon="11.222688"><ele>397.0</ele><time>2026-04-02T15:46:59.958Z</time></trkpt><trkpt lat="43.8492245" lon="11.2227232"><ele>397.0</ele><time>2026-04-02T15:47:02.959Z</time></trkpt><trkpt lat="43.8491403" lon="11.2227674"><ele>397.0</ele><time>2026-04-02T15:47:05.96Z</time></trkpt><trkpt lat="43.8490727" lon="11.2227962"><ele>397.00000000000006</ele><time>2026-04-02T15:47:07.963Z</time></trkpt><trkpt lat="43.8489935" lon="11.2228126"><ele>397.0</ele><time>2026-04-02T15:47:09.954Z</time></trkpt><trkpt lat="43.8489235" lon="11.2228367"><ele>398.42857142857144</ele><time>2026-04-02T15:47:11.959Z</time></trkpt><trkpt lat="43.8488369" lon="11.222875"><ele>399.85714285714283</ele><time>2026-04-02T15:47:14.956Z</time></trkpt><trkpt lat="43.8487688" lon="11.2229098"><ele>401.28571428571433</ele><time>2026-04-02T15:47:16.983Z</time></trkpt><trkpt lat="43.8487079" lon="11.2229573"><ele>402.7142857142857</ele><time>2026-04-02T15:47:18.96Z</time></trkpt><trkpt lat="43.8487055" lon="11.2230448"><ele>404.14285714285717</ele><time>2026-04-02T15:47:22.963Z</time></trkpt><trkpt lat="43.8487691" lon="11.2230324"><ele>405.5714285714286</ele><time>2026-04-02T15:47:25.955Z</time></trkpt><trkpt lat="43.8488316" lon="11.2230538"><ele>407.0</ele><time>2026-04-02T15:47:28.959Z</time></trkpt><trkpt lat="43.8488932" lon="11.2230735"><ele>407.00000000000006</ele><time>2026-04-02T15:47:30.968Z</time></trkpt><trkpt lat="43.8489688" lon="11.2231041"><ele>407.0</ele><time>2026-04-02T15:47:32.949Z</time></trkpt><trkpt lat="43.8490482" lon="11.2231168"><ele>407.0</ele><time>2026-04-02T15:47:34.958Z</time></trkpt><trkpt lat="43.8491228" lon="11.223138"><ele>407.0</ele><time>2026-04-02T15:47:37.953Z</time></trkpt><trkpt lat="43.8491777" lon="11.2231808"><ele>407.0</ele><time>2026-04-02T15:47:39.948Z</time></trkpt><trkpt lat="43.8491966" lon="11.2232777"><ele>407.00000000000006</ele><time>2026-04-02T15:47:44.958Z</time></trkpt><trkpt lat="43.8491277" lon="11.2233281"><ele>407.0</ele><time>2026-04-02T15:47:48.958Z</time></trkpt><trkpt lat="43.8490667" lon="11.2233674"><ele>409.8571428571429</ele><time>2026-04-02T15:47:51.959Z</time></trkpt><trkpt lat="43.8489839" lon="11.2234211"><ele>412.7142857142857</ele><time>2026-04-02T15:47:54.964Z</time></trkpt><trkpt lat="43.8489206" lon="11.2234512"><ele>415.57142857142856</ele><time>2026-04-02T15:47:56.961Z</time></trkpt><trkpt lat="43.8488559" lon="11.223485"><ele>418.42857142857144</ele><time>2026-04-02T15:47:58.958Z</time></trkpt><trkpt lat="43.8487955" lon="11.2235356"><ele>421.2857142857143</ele><time>2026-04-02T15:48:00.958Z</time></trkpt><trkpt lat="43.8487442" lon="11.2235937"><ele>424.14285714285717</ele><time>2026-04-02T15:48:02.953Z</time></trkpt><trkpt lat="43.8486841" lon="11.2236734"><ele>427.0</ele><time>2026-04-02T15:48:05.959Z</time></trkpt><trkpt lat="43.848619" lon="11.2237662"><ele>427.00000000000006</ele><time>2026-04-02T15:48:08.951Z</time></trkpt><trkpt lat="43.8485649" lon="11.2238454"><ele>427.0</ele><time>2026-04-02T15:48:10.96Z</time></trkpt><trkpt lat="43.8485007" lon="11.2239159"><ele>427.0</ele><time>2026-04-02T15:48:13.04Z</time></trkpt><trkpt lat="43.848441" lon="11.2239801"><ele>427.0</ele><time>2026-04-02T15:48:14.948Z</time></trkpt><trkpt lat="43.8483924" lon="11.2240483"><ele>427.00000000000006</ele><time>2026-04-02T15:48:16.948Z</time></trkpt><trkpt lat="43.8483228" lon="11.2241158"><ele>427.0</ele><time>2026-04-02T15:48:18.95Z</time></trkpt><trkpt lat="43.8482606" lon="11.2241867"><ele>430.1666666666667</ele><time>2026-04-02T15:48:21.06Z</time></trkpt><trkpt lat="43.8482058" lon="11.2242648"><ele>433.33333333333337</ele><time>2026-04-02T15:48:22.953Z</time></trkpt><trkpt lat="43.8481598" lon="11.2243406"><ele>436.5</ele><time>2026-04-02T15:48:26.026Z</time></trkpt><trkpt lat="43.8482263" lon="11.2243862"><ele>439.66666666666663</ele><time>2026-04-02T15:48:30.954Z</time></trkpt><trkpt lat="43.84829" lon="11.2243973"><ele>442.8333333333333</ele><time>2026-04-02T15:48:33.952Z</time></trkpt><trkpt lat="43.8483725" lon="11.2243949"><ele>446.0</ele><time>2026-04-02T15:48:37.948Z</time></trkpt><trkpt lat="43.8484523" lon="11.2243975"><ele>446.66666666666663</ele><time>2026-04-02T15:48:40.95Z</time></trkpt><trkpt lat="43.8485399" lon="11.2244077"><ele>447.3333333333333</ele><time>2026-04-02T15:48:43.954Z</time></trkpt><trkpt lat="43.8486318" lon="11.2244117"><ele>448.0</ele><time>2026-04-02T15:48:47.031Z</time></trkpt><trkpt lat="43.8486942" lon="11.2244"><ele>448.66666666666663</ele><time>2026-04-02T15:48:48.952Z</time></trkpt><trkpt lat="43.8487596" lon="11.2243926"><ele>449.3333333333333</ele><time>2026-04-02T15:48:50.955Z</time></trkpt><trkpt lat="43.848821" lon="11.2244641"><ele>450.0</ele><time>2026-04-02T15:48:53.951Z</time></trkpt><trkpt lat="43.8487781" lon="11.2245426"><ele>450.00000000000006</ele><time>2026-04-02T15:48:56.975Z</time></trkpt><trkpt lat="43.848713" lon="11.2246015"><ele>450.0</ele><time>2026-04-02T15:49:00.961Z</time></trkpt><trkpt lat="43.848647" lon="11.2246424"><ele>450.00000000000006</ele><time>2026-04-02T15:49:03.952Z</time></trkpt><trkpt lat="43.8485851" lon="11.2246759"><ele>450.00000000000006</ele><time>2026-04-02T15:49:05.96Z</time></trkpt><trkpt lat="43.848521" lon="11.2247253"><ele>450.0</ele><time>2026-04-02T15:49:08.958Z</time></trkpt><trkpt lat="43.8485791" lon="11.2247644"><ele>450.00000000000006</ele><time>2026-04-02T15:49:12.961Z</time></trkpt><trkpt lat="43.8486613" lon="11.2247318"><ele>450.00000000000006</ele><time>2026-04-02T15:49:15.953Z</time></trkpt><trkpt lat="43.8487504" lon="11.2247209"><ele>450.0</ele><time>2026-04-02T15:49:18.958Z</time></trkpt><trkpt lat="43.8488394" lon="11.2247049"><ele>450.0</ele><time>2026-04-02T15:49:21.959Z</time></trkpt><trkpt lat="43.8489067" lon="11.2247192"><ele>450.0</ele><time>2026-04-02T15:49:23.955Z</time></trkpt><trkpt lat="43.8489802" lon="11.2247431"><ele>450.0</ele><time>2026-04-02T15:49:25.956Z</time></trkpt><trkpt lat="43.8490704" lon="11.2247442"><ele>450.0</ele><time>2026-04-02T15:49:27.96Z</time></trkpt><trkpt lat="43.8491387" lon="11.2247305"><ele>450.0</ele><time>2026-04-02T15:49:29.947Z</time></trkpt><trkpt lat="43.8492081" lon="11.2247259"><ele>450.0</ele><time>2026-04-02T15:49:31.952Z</time></trkpt><trkpt lat="43.8492818" lon="11.2247524"><ele>450.0</ele><time>2026-04-02T15:49:33.958Z</time></trkpt><trkpt lat="43.8493594" lon="11.2247825"><ele>450.0</ele><time>2026-04-02T15:49:35.961Z</time></trkpt><trkpt lat="43.8494454" lon="11.2247918"><ele>450.0</ele><time>2026-04-02T15:49:37.959Z</time></trkpt><trkpt lat="43.8495099" lon="11.2248065"><ele>450.0</ele><time>2026-04-02T15:49:39.959Z</time></trkpt><trkpt lat="43.8495804" lon="11.2248373"><ele>450.0</ele><time>2026-04-02T15:49:43.951Z</time></trkpt><trkpt lat="43.8496603" lon="11.2248513"><ele>454.4</ele><time>2026-04-02T15:50:11.958Z</time></trkpt><trkpt lat="43.8497553" lon="11.2248255"><ele>458.8</ele><time>2026-04-02T15:50:14.962Z</time></trkpt><trkpt lat="43.8498341" lon="11.2248379"><ele>463.20000000000005</ele><time>2026-04-02T15:50:16.963Z</time></trkpt><trkpt lat="43.8499058" lon="11.2249081"><ele>467.6</ele><time>2026-04-02T15:50:18.964Z</time></trkpt><trkpt lat="43.8499876" lon="11.2249856"><ele>472.0</ele><time>2026-04-02T15:50:20.963Z</time></trkpt><trkpt lat="43.8500845" lon="11.2250726"><ele>469.40000000000003</ele><time>2026-04-02T15:50:22.962Z</time></trkpt><trkpt lat="43.8501803" lon="11.2251458"><ele>466.80000000000007</ele><time>2026-04-02T15:50:24.959Z</time></trkpt><trkpt lat="43.8502483" lon="11.2252093"><ele>464.2</ele><time>2026-04-02T15:50:26.961Z</time></trkpt><trkpt lat="43.8503031" lon="11.2252873"><ele>461.6</ele><time>2026-04-02T15:50:28.963Z</time></trkpt><trkpt lat="43.8503585" lon="11.2253683"><ele>459.0</ele><time>2026-04-02T15:50:31.034Z</time></trkpt><trkpt lat="43.8504299" lon="11.2254691"><ele>459.0</ele><time>2026-04-02T15:50:32.977Z</time></trkpt><trkpt lat="43.8504809" lon="11.2255348"><ele>459.0</ele><time>2026-04-02T15:50:34.973Z</time></trkpt><trkpt lat="43.8504689" lon="11.2256233"><ele>459.0</ele><time>2026-04-02T15:50:37.967Z</time></trkpt><trkpt lat="43.850396" lon="11.22565"><ele>459.0</ele><time>2026-04-02T15:50:42.059Z</time></trkpt><trkpt lat="43.8503166" lon="11.225682"><ele>459.0</ele><time>2026-04-02T15:50:44.966Z</time></trkpt><trkpt lat="43.8502499" lon="11.2256928"><ele>459.0</ele><time>2026-04-02T15:50:46.974Z</time></trkpt><trkpt lat="43.8501774" lon="11.2257139"><ele>459.0</ele><time>2026-04-02T15:50:49.043Z</time></trkpt><trkpt lat="43.850101" lon="11.2257232"><ele>465.1666666666667</ele><time>2026-04-02T15:50:50.97Z</time></trkpt><trkpt lat="43.850004" lon="11.2257388"><ele>471.33333333333337</ele><time>2026-04-02T15:50:52.968Z</time></trkpt><trkpt lat="43.8499393" lon="11.2257565"><ele>477.5</ele><time>2026-04-02T15:50:53.969Z</time></trkpt><trkpt lat="43.8498268" lon="11.2257662"><ele>483.6666666666667</ele><time>2026-04-02T15:50:55.971Z</time></trkpt><trkpt lat="43.849748" lon="11.2257959"><ele>489.83333333333337</ele><time>2026-04-02T15:50:57.972Z</time></trkpt><trkpt lat="43.84968" lon="11.2258273"><ele>496.0</ele><time>2026-04-02T15:50:59.964Z</time></trkpt><trkpt lat="43.8496275" lon="11.2258825"><ele>496.00000000000006</ele><time>2026-04-02T15:51:01.972Z</time></trkpt><trkpt lat="43.8495652" lon="11.2259434"><ele>496.0</ele><time>2026-04-02T15:51:04.014Z</time></trkpt><trkpt lat="43.8495032" lon="11.2259915"><ele>496.0</ele><time>2026-04-02T15:51:05.972Z</time></trkpt><trkpt lat="43.8494588" lon="11.2260634"><ele>496.0</ele><time>2026-04-02T15:51:07.97Z</time></trkpt><trkpt lat="43.849431" lon="11.2261924"><ele>496.00000000000006</ele><time>2026-04-02T15:51:10.971Z</time></trkpt><trkpt lat="43.8494198" lon="11.2263022"><ele>496.0</ele><time>2026-04-02T15:51:13.966Z</time></trkpt><trkpt lat="43.8494581" lon="11.2263881"><ele>496.00000000000006</ele><time>2026-04-02T15:51:16.971Z</time></trkpt><trkpt lat="43.8495333" lon="11.2264469"><ele>496.0</ele><time>2026-04-02T15:51:19.967Z</time></trkpt><trkpt lat="43.8496108" lon="11.2265199"><ele>496.0</ele><time>2026-04-02T15:51:21.974Z</time></trkpt><trkpt lat="43.8496738" lon="11.2265904"><ele>496.0</ele><time>2026-04-02T15:51:23.972Z</time></trkpt><trkpt lat="43.8497274" lon="11.2266771"><ele>496.00000000000006</ele><time>2026-04-02T15:51:25.963Z</time></trkpt><trkpt lat="43.8497782" lon="11.2267812"><ele>496.0</ele><time>2026-04-02T15:51:27.972Z</time></trkpt><trkpt lat="43.849816" lon="11.2269037"><ele>498.33333333333337</ele><time>2026-04-02T15:51:29.975Z</time></trkpt><trkpt lat="43.8498177" lon="11.2269944"><ele>500.6666666666667</ele><time>2026-04-02T15:51:31.969Z</time></trkpt><trkpt lat="43.8498167" lon="11.2271386"><ele>503.0</ele><time>2026-04-02T15:51:34.979Z</time></trkpt><trkpt lat="43.8498443" lon="11.2272241"><ele>505.33333333333337</ele><time>2026-04-02T15:51:36.969Z</time></trkpt><trkpt lat="43.8498644" lon="11.2273244"><ele>507.6666666666667</ele><time>2026-04-02T15:51:38.973Z</time></trkpt><trkpt lat="43.8498839" lon="11.2274281"><ele>510.0</ele><time>2026-04-02T15:51:40.967Z</time></trkpt><trkpt lat="43.8498972" lon="11.227523"><ele>511.42857142857144</ele><time>2026-04-02T15:51:42.973Z</time></trkpt><trkpt lat="43.8498927" lon="11.2276141"><ele>512.8571428571429</ele><time>2026-04-02T15:51:44.971Z</time></trkpt><trkpt lat="43.8498852" lon="11.2277118"><ele>514.2857142857143</ele><time>2026-04-02T15:51:46.97Z</time></trkpt><trkpt lat="43.8498816" lon="11.2278014"><ele>515.7142857142858</ele><time>2026-04-02T15:51:48.968Z</time></trkpt><trkpt lat="43.8498823" lon="11.2279061"><ele>517.1428571428571</ele><time>2026-04-02T15:51:50.969Z</time></trkpt><trkpt lat="43.8498601" lon="11.2280157"><ele>518.5714285714287</ele><time>2026-04-02T15:51:52.975Z</time></trkpt><trkpt lat="43.8497911" lon="11.2280884"><ele>520.0</ele><time>2026-04-02T15:51:54.973Z</time></trkpt><trkpt lat="43.8497259" lon="11.2280988"><ele>520.0</ele><time>2026-04-02T15:51:56.975Z</time></trkpt><trkpt lat="43.8496651" lon="11.2281223"><ele>520.0</ele><time>2026-04-02T15:51:57.97Z</time></trkpt><trkpt lat="43.8495576" lon="11.2281523"><ele>520.0</ele><time>2026-04-02T15:51:59.973Z</time></trkpt><trkpt lat="43.849442" lon="11.2281557"><ele>520.0</ele><time>2026-04-02T15:52:01.968Z</time></trkpt><trkpt lat="43.8493107" lon="11.2281576"><ele>520.0</ele><time>2026-04-02T15:52:03.966Z</time></trkpt><trkpt lat="43.8491978" lon="11.2281817"><ele>523.0</ele><time>2026-04-02T15:52:05.972Z</time></trkpt><trkpt lat="43.8490938" lon="11.2282325"><ele>526.0</ele><time>2026-04-02T15:52:07.973Z</time></trkpt><trkpt lat="43.8490028" lon="11.2282315"><ele>529.0</ele><time>2026-04-02T15:52:09.972Z</time></trkpt><trkpt lat="43.8489025" lon="11.2281912"><ele>532.0</ele><time>2026-04-02T15:52:11.974Z</time></trkpt><trkpt lat="43.8488037" lon="11.2281769"><ele>535.0</ele><time>2026-04-02T15:52:13.972Z</time></trkpt><trkpt lat="43.8486963" lon="11.2282093"><ele>535.0</ele><time>2026-04-02T15:52:15.955Z</time></trkpt><trkpt lat="43.8486026" lon="11.2282381"><ele>535.0</ele><time>2026-04-02T15:52:17.965Z</time></trkpt><trkpt lat="43.848499" lon="11.2282611"><ele>535.0</ele><time>2026-04-02T15:52:19.968Z</time></trkpt><trkpt lat="43.8484011" lon="11.2282941"><ele>535.0</ele><time>2026-04-02T15:52:21.96Z</time></trkpt><trkpt lat="43.8483093" lon="11.2283441"><ele>535.0</ele><time>2026-04-02T15:52:23.973Z</time></trkpt><trkpt lat="43.8482177" lon="11.228387"><ele>534.1666666666667</ele><time>2026-04-02T15:52:25.965Z</time></trkpt><trkpt lat="43.848153" lon="11.2284193"><ele>533.3333333333334</ele><time>2026-04-02T15:52:27.981Z</time></trkpt><trkpt lat="43.8481349" lon="11.2285182"><ele>532.5</ele><time>2026-04-02T15:52:32.977Z</time></trkpt><trkpt lat="43.8481792" lon="11.2285819"><ele>531.6666666666666</ele><time>2026-04-02T15:52:35.968Z</time></trkpt><trkpt lat="43.848215" lon="11.228672"><ele>530.8333333333333</ele><time>2026-04-02T15:52:38.971Z</time></trkpt><trkpt lat="43.8482724" lon="11.2287597"><ele>530.0</ele><time>2026-04-02T15:52:41.969Z</time></trkpt><trkpt lat="43.8483384" lon="11.2288438"><ele>530.0</ele><time>2026-04-02T15:52:44.967Z</time></trkpt><trkpt lat="43.8483837" lon="11.2289085"><ele>530.0</ele><time>2026-04-02T15:52:46.968Z</time></trkpt><trkpt lat="43.8484258" lon="11.2290072"><ele>530.0</ele><time>2026-04-02T15:52:48.975Z</time></trkpt><trkpt lat="43.8484657" lon="11.2290996"><ele>530.0</ele><time>2026-04-02T15:52:50.974Z</time></trkpt><trkpt lat="43.8484895" lon="11.2292124"><ele>530.0</ele><time>2026-04-02T15:52:53.959Z</time></trkpt><trkpt lat="43.8484568" lon="11.2293127"><ele>530.0</ele><time>2026-04-02T15:52:56.968Z</time></trkpt><trkpt lat="43.8484052" lon="11.2293835"><ele>532.4</ele><time>2026-04-02T15:52:58.973Z</time></trkpt><trkpt lat="43.8483379" lon="11.2294757"><ele>534.8</ele><time>2026-04-02T15:53:00.972Z</time></trkpt><trkpt lat="43.8482649" lon="11.2295421"><ele>537.2</ele><time>2026-04-02T15:53:02.963Z</time></trkpt><trkpt lat="43.8482006" lon="11.2296069"><ele>539.6</ele><time>2026-04-02T15:53:04.962Z</time></trkpt><trkpt lat="43.8481316" lon="11.2297206"><ele>542.0</ele><time>2026-04-02T15:53:06.97Z</time></trkpt><trkpt lat="43.8480547" lon="11.2298405"><ele>547.0</ele><time>2026-04-02T15:53:08.967Z</time></trkpt><trkpt lat="43.8479478" lon="11.2299129"><ele>552.0</ele><time>2026-04-02T15:53:10.971Z</time></trkpt><trkpt lat="43.8478437" lon="11.2300094"><ele>557.0</ele><time>2026-04-02T15:53:12.966Z</time></trkpt><trkpt lat="43.8477503" lon="11.2301089"><ele>562.0</ele><time>2026-04-02T15:53:14.972Z</time></trkpt><trkpt lat="43.8476881" lon="11.2302154"><ele>562.0</ele><time>2026-04-02T15:53:16.966Z</time></trkpt><trkpt lat="43.8476301" lon="11.230303"><ele>562.0</ele><time>2026-04-02T15:53:18.964Z</time></trkpt><trkpt lat="43.8475331" lon="11.230392"><ele>562.0</ele><time>2026-04-02T15:53:20.967Z</time></trkpt><trkpt lat="43.8474361" lon="11.2304775"><ele>562.0</ele><time>2026-04-02T15:53:22.968Z</time></trkpt><trkpt lat="43.8473594" lon="11.2305664"><ele>562.0</ele><time>2026-04-02T15:53:24.972Z</time></trkpt><trkpt lat="43.8472948" lon="11.2306827"><ele>562.5</ele><time>2026-04-02T15:53:26.972Z</time></trkpt><trkpt lat="43.847225" lon="11.2307802"><ele>563.0</ele><time>2026-04-02T15:53:28.967Z</time></trkpt><trkpt lat="43.8471568" lon="11.2308701"><ele>563.5</ele><time>2026-04-02T15:53:30.974Z</time></trkpt><trkpt lat="43.8471152" lon="11.2309401"><ele>564.0</ele><time>2026-04-02T15:53:32.969Z</time></trkpt><trkpt lat="43.8471089" lon="11.2310468"><ele>564.5</ele><time>2026-04-02T15:53:35.968Z</time></trkpt><trkpt lat="43.8471251" lon="11.2311452"><ele>565.0</ele><time>2026-04-02T15:53:55.967Z</time></trkpt><trkpt lat="43.8471486" lon="11.2312542"><ele>565.0</ele><time>2026-04-02T15:53:58.969Z</time></trkpt><trkpt lat="43.8471696" lon="11.2313516"><ele>565.0</ele><time>2026-04-02T15:54:00.973Z</time></trkpt><trkpt lat="43.8472009" lon="11.2314621"><ele>565.0</ele><time>2026-04-02T15:54:02.976Z</time></trkpt><trkpt lat="43.8472407" lon="11.2315596"><ele>565.0</ele><time>2026-04-02T15:54:04.968Z</time></trkpt><trkpt lat="43.8472737" lon="11.2316544"><ele>565.0</ele><time>2026-04-02T15:54:06.968Z</time></trkpt><trkpt lat="43.847289" lon="11.2317478"><ele>565.0</ele><time>2026-04-02T15:54:08.967Z</time></trkpt><trkpt lat="43.8472972" lon="11.2318455"><ele>565.8</ele><time>2026-04-02T15:54:10.969Z</time></trkpt><trkpt lat="43.8473066" lon="11.2319828"><ele>566.6</ele><time>2026-04-02T15:54:12.976Z</time></trkpt><trkpt lat="43.8473258" lon="11.2321279"><ele>567.4</ele><time>2026-04-02T15:54:14.973Z</time></trkpt><trkpt lat="43.8473422" lon="11.2322873"><ele>568.2</ele><time>2026-04-02T15:54:16.967Z</time></trkpt><trkpt lat="43.8473648" lon="11.2324497"><ele>569.0</ele><time>2026-04-02T15:54:18.967Z</time></trkpt><trkpt lat="43.8473892" lon="11.2326205"><ele>567.6666666666666</ele><time>2026-04-02T15:54:20.963Z</time></trkpt><trkpt lat="43.8474172" lon="11.2327801"><ele>566.3333333333333</ele><time>2026-04-02T15:54:22.966Z</time></trkpt><trkpt lat="43.8474318" lon="11.2328665"><ele>565.0</ele><time>2026-04-02T15:54:23.963Z</time></trkpt><trkpt lat="43.8474465" lon="11.2329557"><ele>563.6666666666666</ele><time>2026-04-02T15:54:24.964Z</time></trkpt><trkpt lat="43.8474682" lon="11.2330451"><ele>562.3333333333334</ele><time>2026-04-02T15:54:25.968Z</time></trkpt><trkpt lat="43.8474925" lon="11.2331313"><ele>561.0</ele><time>2026-04-02T15:54:26.97Z</time></trkpt><trkpt lat="43.8475276" lon="11.2332823"><ele>558.6</ele><time>2026-04-02T15:54:28.961Z</time></trkpt><trkpt lat="43.8475671" lon="11.2334214"><ele>556.2</ele><time>2026-04-02T15:54:30.965Z</time></trkpt><trkpt lat="43.8476011" lon="11.2335598"><ele>553.8</ele><time>2026-04-02T15:54:32.973Z</time></trkpt><trkpt lat="43.8476437" lon="11.2336918"><ele>551.4</ele><time>2026-04-02T15:54:34.966Z</time></trkpt><trkpt lat="43.8476803" lon="11.2338256"><ele>549.0</ele><time>2026-04-02T15:54:36.966Z</time></trkpt><trkpt lat="43.8477243" lon="11.2339628"><ele>552.2857142857142</ele><time>2026-04-02T15:54:38.975Z</time></trkpt><trkpt lat="43.8477456" lon="11.2340471"><ele>555.5714285714286</ele><time>2026-04-02T15:54:39.968Z</time></trkpt><trkpt lat="43.8477767" lon="11.2341362"><ele>558.8571428571429</ele><time>2026-04-02T15:54:40.968Z</time></trkpt><trkpt lat="43.8478128" lon="11.2342267"><ele>562.1428571428571</ele><time>2026-04-02T15:54:41.963Z</time></trkpt><trkpt lat="43.8478472" lon="11.2343251"><ele>565.4285714285714</ele><time>2026-04-02T15:54:42.965Z</time></trkpt><trkpt lat="43.8478813" lon="11.2344152"><ele>568.7142857142857</ele><time>2026-04-02T15:54:43.964Z</time></trkpt><trkpt lat="43.8479146" lon="11.2345009"><ele>572.0</ele><time>2026-04-02T15:54:44.97Z</time></trkpt><trkpt lat="43.8479427" lon="11.2345801"><ele>572.0</ele><time>2026-04-02T15:54:45.969Z</time></trkpt><trkpt lat="43.8480134" lon="11.2347286"><ele>572.0</ele><time>2026-04-02T15:54:47.961Z</time></trkpt><trkpt lat="43.8480579" lon="11.2347935"><ele>572.0</ele><time>2026-04-02T15:54:48.964Z</time></trkpt><trkpt lat="43.8481025" lon="11.2348597"><ele>572.0</ele><time>2026-04-02T15:54:49.966Z</time></trkpt><trkpt lat="43.8481814" lon="11.2349907"><ele>572.0</ele><time>2026-04-02T15:54:51.966Z</time></trkpt><trkpt lat="43.8482517" lon="11.2351186"><ele>573.0</ele><time>2026-04-02T15:54:53.963Z</time></trkpt><trkpt lat="43.8483081" lon="11.235282"><ele>574.0</ele><time>2026-04-02T15:54:55.965Z</time></trkpt><trkpt lat="43.8483519" lon="11.2353734"><ele>575.0</ele><time>2026-04-02T15:54:56.959Z</time></trkpt><trkpt lat="43.8484039" lon="11.2354306"><ele>576.0</ele><time>2026-04-02T15:54:57.961Z</time></trkpt><trkpt lat="43.8484605" lon="11.2355147"><ele>577.0</ele><time>2026-04-02T15:54:58.967Z</time></trkpt><trkpt lat="43.8485104" lon="11.2355978"><ele>578.0</ele><time>2026-04-02T15:54:59.964Z</time></trkpt><trkpt lat="43.8485585" lon="11.235682"><ele>578.0</ele><time>2026-04-02T15:55:00.965Z</time></trkpt><trkpt lat="43.8486054" lon="11.2357715"><ele>578.0</ele><time>2026-04-02T15:55:01.956Z</time></trkpt><trkpt lat="43.8486436" lon="11.23586"><ele>578.0</ele><time>2026-04-02T15:55:02.962Z</time></trkpt><trkpt lat="43.8486995" lon="11.2360063"><ele>578.0</ele><time>2026-04-02T15:55:04.959Z</time></trkpt><trkpt lat="43.8487043" lon="11.2360935"><ele>578.0</ele><time>2026-04-02T15:55:05.96Z</time></trkpt><trkpt lat="43.8487197" lon="11.2362488"><ele>578.0</ele><time>2026-04-02T15:55:07.967Z</time></trkpt><trkpt lat="43.848742" lon="11.2363702"><ele>578.0</ele><time>2026-04-02T15:55:09.969Z</time></trkpt><trkpt lat="43.8487917" lon="11.2364777"><ele>578.0</ele><time>2026-04-02T15:55:11.966Z</time></trkpt><trkpt lat="43.8488456" lon="11.2365778"><ele>578.0</ele><time>2026-04-02T15:55:13.963Z</time></trkpt><trkpt lat="43.8488961" lon="11.2366348"><ele>578.0</ele><time>2026-04-02T15:55:15.967Z</time></trkpt><trkpt lat="43.8489475" lon="11.2366906"><ele>578.0</ele><time>2026-04-02T15:55:17.968Z</time></trkpt><trkpt lat="43.849001" lon="11.2367541"><ele>576.1666666666666</ele><time>2026-04-02T15:55:19.964Z</time></trkpt><trkpt lat="43.8490544" lon="11.2368053"><ele>574.3333333333333</ele><time>2026-04-02T15:55:21.963Z</time></trkpt><trkpt lat="43.8491194" lon="11.236864"><ele>572.5</ele><time>2026-04-02T15:55:23.965Z</time></trkpt><trkpt lat="43.8491939" lon="11.2369738"><ele>570.6666666666666</ele><time>2026-04-02T15:55:25.962Z</time></trkpt><trkpt lat="43.8492696" lon="11.2370564"><ele>568.8333333333334</ele><time>2026-04-02T15:55:27.97Z</time></trkpt><trkpt lat="43.8493344" lon="11.237149"><ele>567.0</ele><time>2026-04-02T15:55:29.958Z</time></trkpt><trkpt lat="43.8494061" lon="11.23725"><ele>568.8571428571429</ele><time>2026-04-02T15:55:31.966Z</time></trkpt><trkpt lat="43.8494579" lon="11.237338"><ele>570.7142857142858</ele><time>2026-04-02T15:55:33.96Z</time></trkpt><trkpt lat="43.8495014" lon="11.2374091"><ele>572.5714285714286</ele><time>2026-04-02T15:55:35.969Z</time></trkpt><trkpt lat="43.8495487" lon="11.2374715"><ele>574.4285714285714</ele><time>2026-04-02T15:55:37.968Z</time></trkpt><trkpt lat="43.8495941" lon="11.2375327"><ele>576.2857142857143</ele><time>2026-04-02T15:55:39.97Z</time></trkpt><trkpt lat="43.8496683" lon="11.2375955"><ele>578.1428571428571</ele><time>2026-04-02T15:55:42.969Z</time></trkpt><trkpt lat="43.8497428" lon="11.2376506"><ele>580.0</ele><time>2026-04-02T15:55:45.969Z</time></trkpt><trkpt lat="43.8498201" lon="11.2377044"><ele>580.0</ele><time>2026-04-02T15:55:48.964Z</time></trkpt><trkpt lat="43.8498811" lon="11.2377811"><ele>580.0</ele><time>2026-04-02T15:55:51.964Z</time></trkpt><trkpt lat="43.849947" lon="11.2378384"><ele>580.0</ele><time>2026-04-02T15:55:54.968Z</time></trkpt><trkpt lat="43.8500221" lon="11.2378897"><ele>580.0</ele><time>2026-04-02T15:55:57.963Z</time></trkpt><trkpt lat="43.8501137" lon="11.237939"><ele>580.0</ele><time>2026-04-02T15:56:00.97Z</time></trkpt><trkpt lat="43.8501964" lon="11.2379591"><ele>580.0</ele><time>2026-04-02T15:56:02.967Z</time></trkpt><trkpt lat="43.8502633" lon="11.2379797"><ele>581.5</ele><time>2026-04-02T15:56:04.961Z</time></trkpt><trkpt lat="43.8503424" lon="11.237981"><ele>583.0</ele><time>2026-04-02T15:56:07.974Z</time></trkpt><trkpt lat="43.850424" lon="11.2379981"><ele>584.5</ele><time>2026-04-02T15:56:10.972Z</time></trkpt><trkpt lat="43.8505044" lon="11.2379974"><ele>586.0</ele><time>2026-04-02T15:56:13.963Z</time></trkpt><trkpt lat="43.8505795" lon="11.2380244"><ele>587.5</ele><time>2026-04-02T15:56:15.969Z</time></trkpt><trkpt lat="43.8506657" lon="11.2380568"><ele>589.0</ele><time>2026-04-02T15:56:17.965Z</time></trkpt><trkpt lat="43.8507428" lon="11.2380946"><ele>589.0</ele><time>2026-04-02T15:56:19.963Z</time></trkpt><trkpt lat="43.8508177" lon="11.2381603"><ele>589.0</ele><time>2026-04-02T15:56:21.97Z</time></trkpt><trkpt lat="43.8508746" lon="11.2382745"><ele>589.0</ele><time>2026-04-02T15:56:23.968Z</time></trkpt><trkpt lat="43.850925" lon="11.2383647"><ele>589.0</ele><time>2026-04-02T15:56:25.97Z</time></trkpt><trkpt lat="43.8509655" lon="11.2384476"><ele>589.0</ele><time>2026-04-02T15:56:28.958Z</time></trkpt><trkpt lat="43.8510236" lon="11.2385303"><ele>589.0</ele><time>2026-04-02T15:56:49.954Z</time></trkpt><trkpt lat="43.8511023" lon="11.2385463"><ele>589.0</ele><time>2026-04-02T15:56:53.953Z</time></trkpt><trkpt lat="43.8511617" lon="11.238464"><ele>589.0</ele><time>2026-04-02T15:56:56.955Z</time></trkpt><trkpt lat="43.8511653" lon="11.2383751"><ele>589.0</ele><time>2026-04-02T15:56:59.954Z</time></trkpt><trkpt lat="43.8510919" lon="11.2383777"><ele>589.0</ele><time>2026-04-02T15:57:02.956Z</time></trkpt><trkpt lat="43.8510429" lon="11.2382705"><ele>589.0</ele><time>2026-04-02T15:57:05.958Z</time></trkpt><trkpt lat="43.8510009" lon="11.2381199"><ele>589.0</ele><time>2026-04-02T15:57:07.957Z</time></trkpt><trkpt lat="43.8509509" lon="11.2380367"><ele>589.0</ele><time>2026-04-02T15:57:08.957Z</time></trkpt><trkpt lat="43.8508894" lon="11.2379639"><ele>589.0</ele><time>2026-04-02T15:57:09.957Z</time></trkpt><trkpt lat="43.8508112" lon="11.2378995"><ele>589.0</ele><time>2026-04-02T15:57:11.027Z</time></trkpt><trkpt lat="43.8507315" lon="11.2378368"><ele>589.0</ele><time>2026-04-02T15:57:12.031Z</time></trkpt><trkpt lat="43.8506476" lon="11.237766"><ele>589.0</ele><time>2026-04-02T15:57:13.047Z</time></trkpt><trkpt lat="43.8505643" lon="11.2376915"><ele>589.0</ele><time>2026-04-02T15:57:14.042Z</time></trkpt><trkpt lat="43.8504794" lon="11.237624"><ele>589.0</ele><time>2026-04-02T15:57:14.949Z</time></trkpt><trkpt lat="43.8503936" lon="11.2375556"><ele>589.0</ele><time>2026-04-02T15:57:15.96Z</time></trkpt><trkpt lat="43.8503093" lon="11.2374909"><ele>589.0</ele><time>2026-04-02T15:57:16.953Z</time></trkpt><trkpt lat="43.8502251" lon="11.2374145"><ele>589.0</ele><time>2026-04-02T15:57:17.952Z</time></trkpt><trkpt lat="43.85015" lon="11.2373445"><ele>589.8</ele><time>2026-04-02T15:57:18.948Z</time></trkpt><trkpt lat="43.8500801" lon="11.2372658"><ele>590.5999999999999</ele><time>2026-04-02T15:57:19.95Z</time></trkpt><trkpt lat="43.8500139" lon="11.2371815"><ele>591.4</ele><time>2026-04-02T15:57:20.968Z</time></trkpt><trkpt lat="43.8499567" lon="11.2370867"><ele>592.1999999999999</ele><time>2026-04-02T15:57:21.948Z</time></trkpt><trkpt lat="43.8499042" lon="11.2369824"><ele>593.0</ele><time>2026-04-02T15:57:22.954Z</time></trkpt><trkpt lat="43.8498552" lon="11.2368736"><ele>593.0</ele><time>2026-04-02T15:57:23.949Z</time></trkpt><trkpt lat="43.8498063" lon="11.2367634"><ele>593.0</ele><time>2026-04-02T15:57:24.946Z</time></trkpt><trkpt lat="43.8497594" lon="11.2366516"><ele>593.0</ele><time>2026-04-02T15:57:25.953Z</time></trkpt><trkpt lat="43.8497138" lon="11.2365465"><ele>593.0</ele><time>2026-04-02T15:57:26.945Z</time></trkpt><trkpt lat="43.8496706" lon="11.2364351"><ele>593.0</ele><time>2026-04-02T15:57:27.951Z</time></trkpt><trkpt lat="43.8496242" lon="11.2363175"><ele>594.4</ele><time>2026-04-02T15:57:28.967Z</time></trkpt><trkpt lat="43.849577" lon="11.2361875"><ele>595.8</ele><time>2026-04-02T15:57:29.948Z</time></trkpt><trkpt lat="43.8495264" lon="11.2360584"><ele>597.2</ele><time>2026-04-02T15:57:31.013Z</time></trkpt><trkpt lat="43.8494769" lon="11.2359293"><ele>598.6</ele><time>2026-04-02T15:57:31.952Z</time></trkpt><trkpt lat="43.8494221" lon="11.2358029"><ele>600.0</ele><time>2026-04-02T15:57:32.954Z</time></trkpt><trkpt lat="43.8493698" lon="11.2356702"><ele>600.0</ele><time>2026-04-02T15:57:33.95Z</time></trkpt><trkpt lat="43.8493159" lon="11.2355372"><ele>600.0</ele><time>2026-04-02T15:57:34.953Z</time></trkpt><trkpt lat="43.8492607" lon="11.2354013"><ele>600.0</ele><time>2026-04-02T15:57:35.949Z</time></trkpt><trkpt lat="43.8492024" lon="11.2352643"><ele>600.0</ele><time>2026-04-02T15:57:36.951Z</time></trkpt><trkpt lat="43.8491385" lon="11.2351217"><ele>599.5</ele><time>2026-04-02T15:57:38.03Z</time></trkpt><trkpt lat="43.8490732" lon="11.234972"><ele>599.0</ele><time>2026-04-02T15:57:39.041Z</time></trkpt><trkpt lat="43.8490087" lon="11.2348179"><ele>598.5</ele><time>2026-04-02T15:57:39.95Z</time></trkpt><trkpt lat="43.8489471" lon="11.2346607"><ele>598.0</ele><time>2026-04-02T15:57:40.949Z</time></trkpt><trkpt lat="43.8488803" lon="11.2344998"><ele>598.0</ele><time>2026-04-02T15:57:41.955Z</time></trkpt><trkpt lat="43.8488187" lon="11.2343382"><ele>598.0</ele><time>2026-04-02T15:57:43.022Z</time></trkpt><trkpt lat="43.8487513" lon="11.2341818"><ele>598.0</ele><time>2026-04-02T15:57:44.005Z</time></trkpt><trkpt lat="43.8486816" lon="11.2340133"><ele>598.0</ele><time>2026-04-02T15:57:44.953Z</time></trkpt><trkpt lat="43.8486099" lon="11.233848"><ele>599.5</ele><time>2026-04-02T15:57:45.947Z</time></trkpt><trkpt lat="43.8485352" lon="11.2336784"><ele>601.0</ele><time>2026-04-02T15:57:47Z</time></trkpt><trkpt lat="43.8484589" lon="11.233508"><ele>602.5</ele><time>2026-04-02T15:57:47.945Z</time></trkpt><trkpt lat="43.8483822" lon="11.2333451"><ele>604.0</ele><time>2026-04-02T15:57:49.007Z</time></trkpt><trkpt lat="43.8483057" lon="11.2331733"><ele>601.0</ele><time>2026-04-02T15:57:49.941Z</time></trkpt><trkpt lat="43.8482264" lon="11.233006"><ele>598.0</ele><time>2026-04-02T15:57:50.949Z</time></trkpt><trkpt lat="43.8481492" lon="11.2328356"><ele>595.0</ele><time>2026-04-02T15:57:51.952Z</time></trkpt><trkpt lat="43.8480701" lon="11.2326676"><ele>592.0</ele><time>2026-04-02T15:57:52.938Z</time></trkpt><trkpt lat="43.8479932" lon="11.2324967"><ele>592.0</ele><time>2026-04-02T15:57:54.03Z</time></trkpt><trkpt lat="43.8479264" lon="11.2323147"><ele>592.0</ele><time>2026-04-02T15:57:54.959Z</time></trkpt><trkpt lat="43.8478712" lon="11.2321371"><ele>592.0</ele><time>2026-04-02T15:57:55.962Z</time></trkpt><trkpt lat="43.8478443" lon="11.2319584"><ele>592.0</ele><time>2026-04-02T15:57:56.989Z</time></trkpt><trkpt lat="43.847853" lon="11.231785"><ele>591.25</ele><time>2026-04-02T15:57:57.956Z</time></trkpt><trkpt lat="43.8479129" lon="11.2316137"><ele>590.5</ele><time>2026-04-02T15:57:59.029Z</time></trkpt><trkpt lat="43.8480107" lon="11.2314731"><ele>589.75</ele><time>2026-04-02T15:57:59.954Z</time></trkpt><trkpt lat="43.8481368" lon="11.2313484"><ele>589.0</ele><time>2026-04-02T15:58:00.961Z</time></trkpt><trkpt lat="43.8482737" lon="11.2312464"><ele>584.0</ele><time>2026-04-02T15:58:01.994Z</time></trkpt><trkpt lat="43.8484277" lon="11.2311768"><ele>579.0</ele><time>2026-04-02T15:58:02.959Z</time></trkpt><trkpt lat="43.8485977" lon="11.2311414"><ele>574.0</ele><time>2026-04-02T15:58:04.039Z</time></trkpt><trkpt lat="43.8487719" lon="11.2311226"><ele>573.6666666666667</ele><time>2026-04-02T15:58:04.964Z</time></trkpt><trkpt lat="43.8489336" lon="11.231126"><ele>573.3333333333334</ele><time>2026-04-02T15:58:05.947Z</time></trkpt><trkpt lat="43.8490782" lon="11.2311582"><ele>573.0</ele><time>2026-04-02T15:58:06.959Z</time></trkpt><trkpt lat="43.8492176" lon="11.231225"><ele>572.0</ele><time>2026-04-02T15:58:07.961Z</time></trkpt><trkpt lat="43.8493594" lon="11.2313421"><ele>571.0</ele><time>2026-04-02T15:58:08.955Z</time></trkpt><trkpt lat="43.8494975" lon="11.2315068"><ele>570.0</ele><time>2026-04-02T15:58:09.944Z</time></trkpt><trkpt lat="43.8496258" lon="11.2317363"><ele>570.0</ele><time>2026-04-02T15:58:10.947Z</time></trkpt><trkpt lat="43.8497438" lon="11.2319654"><ele>570.0</ele><time>2026-04-02T15:58:11.95Z</time></trkpt><trkpt lat="43.8498691" lon="11.2322014"><ele>570.0</ele><time>2026-04-02T15:58:12.958Z</time></trkpt><trkpt lat="43.8499973" lon="11.2324412"><ele>573.0</ele><time>2026-04-02T15:58:13.964Z</time></trkpt><trkpt lat="43.8501246" lon="11.2326826"><ele>576.0</ele><time>2026-04-02T15:58:14.964Z</time></trkpt><trkpt lat="43.8502529" lon="11.2329303"><ele>579.0</ele><time>2026-04-02T15:58:15.96Z</time></trkpt><trkpt lat="43.850378" lon="11.2331798"><ele>568.0</ele><time>2026-04-02T15:58:16.961Z</time></trkpt><trkpt lat="43.8504906" lon="11.2334559"><ele>557.0</ele><time>2026-04-02T15:58:17.976Z</time></trkpt><trkpt lat="43.8505935" lon="11.2337555"><ele>562.5</ele><time>2026-04-02T15:58:18.952Z</time></trkpt><trkpt lat="43.8506781" lon="11.2340673"><ele>568.0</ele><time>2026-04-02T15:58:19.961Z</time></trkpt><trkpt lat="43.8507526" lon="11.2343847"><ele>568.0</ele><time>2026-04-02T15:58:21.027Z</time></trkpt><trkpt lat="43.8508105" lon="11.2347053"><ele>568.0</ele><time>2026-04-02T15:58:21.957Z</time></trkpt><trkpt lat="43.8508549" lon="11.2350062"><ele>570.3333333333334</ele><time>2026-04-02T15:58:22.953Z</time></trkpt><trkpt lat="43.8509053" lon="11.2352865"><ele>572.6666666666666</ele><time>2026-04-02T15:58:23.951Z</time></trkpt><trkpt lat="43.8509463" lon="11.2355479"><ele>575.0</ele><time>2026-04-02T15:58:24.955Z</time></trkpt><trkpt lat="43.8509858" lon="11.235793"><ele>566.3333333333333</ele><time>2026-04-02T15:58:25.953Z</time></trkpt><trkpt lat="43.8510243" lon="11.2360216"><ele>557.6666666666666</ele><time>2026-04-02T15:58:27.031Z</time></trkpt><trkpt lat="43.8510624" lon="11.2362435"><ele>549.0</ele><time>2026-04-02T15:58:27.963Z</time></trkpt><trkpt lat="43.8510974" lon="11.2364376"><ele>552.25</ele><time>2026-04-02T15:58:29.03Z</time></trkpt><trkpt lat="43.8511454" lon="11.236616"><ele>555.5</ele><time>2026-04-02T15:58:29.951Z</time></trkpt><trkpt lat="43.8512036" lon="11.2367833"><ele>558.75</ele><time>2026-04-02T15:58:30.96Z</time></trkpt><trkpt lat="43.851279" lon="11.2369247"><ele>562.0</ele><time>2026-04-02T15:58:31.971Z</time></trkpt><trkpt lat="43.8513766" lon="11.2370234"><ele>562.0</ele><time>2026-04-02T15:58:32.958Z</time></trkpt><trkpt lat="43.8514824" lon="11.2370912"><ele>562.0</ele><time>2026-04-02T15:58:33.954Z</time></trkpt><trkpt lat="43.8516006" lon="11.2371169"><ele>562.0</ele><time>2026-04-02T15:58:34.951Z</time></trkpt><trkpt lat="43.8517239" lon="11.237078"><ele>562.0</ele><time>2026-04-02T15:58:36.033Z</time></trkpt><trkpt lat="43.85183" lon="11.2369853"><ele>564.25</ele><time>2026-04-02T15:58:37.034Z</time></trkpt><trkpt lat="43.8519329" lon="11.2368649"><ele>566.5</ele><time>2026-04-02T15:58:37.955Z</time></trkpt><trkpt lat="43.8520453" lon="11.2367479"><ele>568.75</ele><time>2026-04-02T15:58:38.952Z</time></trkpt><trkpt lat="43.8521505" lon="11.2366321"><ele>571.0</ele><time>2026-04-02T15:58:39.948Z</time></trkpt><trkpt lat="43.852269" lon="11.2365184"><ele>562.6666666666667</ele><time>2026-04-02T15:58:40.951Z</time></trkpt><trkpt lat="43.8523929" lon="11.2364018"><ele>554.3333333333334</ele><time>2026-04-02T15:58:42.048Z</time></trkpt><trkpt lat="43.8525247" lon="11.2362948"><ele>546.0</ele><time>2026-04-02T15:58:43.023Z</time></trkpt><trkpt lat="43.8526598" lon="11.2362115"><ele>546.0</ele><time>2026-04-02T15:58:43.954Z</time></trkpt><trkpt lat="43.8528065" lon="11.2361456"><ele>546.0</ele><time>2026-04-02T15:58:44.955Z</time></trkpt><trkpt lat="43.8529595" lon="11.2360973"><ele>546.0</ele><time>2026-04-02T15:58:45.953Z</time></trkpt><trkpt lat="43.8531184" lon="11.2360503"><ele>546.0</ele><time>2026-04-02T15:58:47.027Z</time></trkpt><trkpt lat="43.8532813" lon="11.2359968"><ele>546.0</ele><time>2026-04-02T15:58:47.969Z</time></trkpt><trkpt lat="43.8534455" lon="11.2359432"><ele>546.0</ele><time>2026-04-02T15:58:48.967Z</time></trkpt><trkpt lat="43.8536134" lon="11.2358944"><ele>547.6666666666666</ele><time>2026-04-02T15:58:49.964Z</time></trkpt><trkpt lat="43.853775" lon="11.2358461"><ele>549.3333333333333</ele><time>2026-04-02T15:58:50.971Z</time></trkpt><trkpt lat="43.8539429" lon="11.235802"><ele>551.0</ele><time>2026-04-02T15:58:51.96Z</time></trkpt><trkpt lat="43.8541051" lon="11.2357685"><ele>551.0</ele><time>2026-04-02T15:58:53.034Z</time></trkpt><trkpt lat="43.8542721" lon="11.2357891"><ele>551.0</ele><time>2026-04-02T15:58:53.964Z</time></trkpt><trkpt lat="43.8544462" lon="11.2358425"><ele>551.0</ele><time>2026-04-02T15:58:54.972Z</time></trkpt><trkpt lat="43.8546081" lon="11.2359182"><ele>548.6666666666666</ele><time>2026-04-02T15:58:55.963Z</time></trkpt><trkpt lat="43.8547729" lon="11.2359564"><ele>546.3333333333334</ele><time>2026-04-02T15:58:56.966Z</time></trkpt><trkpt lat="43.8549424" lon="11.2359446"><ele>544.0</ele><time>2026-04-02T15:58:57.972Z</time></trkpt><trkpt lat="43.8551128" lon="11.2359203"><ele>544.0</ele><time>2026-04-02T15:58:59Z</time></trkpt><trkpt lat="43.8552793" lon="11.235882"><ele>544.0</ele><time>2026-04-02T15:58:59.968Z</time></trkpt><trkpt lat="43.8554366" lon="11.2358452"><ele>544.0</ele><time>2026-04-02T15:59:00.971Z</time></trkpt><trkpt lat="43.855601" lon="11.2358086"><ele>544.0</ele><time>2026-04-02T15:59:01.982Z</time></trkpt><trkpt lat="43.8557684" lon="11.2357726"><ele>544.0</ele><time>2026-04-02T15:59:02.971Z</time></trkpt><trkpt lat="43.8559309" lon="11.2357245"><ele>544.0</ele><time>2026-04-02T15:59:03.968Z</time></trkpt><trkpt lat="43.8560959" lon="11.2356707"><ele>538.6666666666667</ele><time>2026-04-02T15:59:04.971Z</time></trkpt><trkpt lat="43.8562583" lon="11.2356055"><ele>533.3333333333334</ele><time>2026-04-02T15:59:05.966Z</time></trkpt><trkpt lat="43.8564195" lon="11.2355276"><ele>528.0</ele><time>2026-04-02T15:59:06.974Z</time></trkpt><trkpt lat="43.8565788" lon="11.2354483"><ele>528.0</ele><time>2026-04-02T15:59:08.039Z</time></trkpt><trkpt lat="43.8567429" lon="11.2353606"><ele>528.0</ele><time>2026-04-02T15:59:09.038Z</time></trkpt><trkpt lat="43.8569048" lon="11.2352748"><ele>528.0</ele><time>2026-04-02T15:59:09.953Z</time></trkpt><trkpt lat="43.8570698" lon="11.2351946"><ele>533.0</ele><time>2026-04-02T15:59:10.959Z</time></trkpt><trkpt lat="43.8572345" lon="11.2351138"><ele>538.0</ele><time>2026-04-02T15:59:11.968Z</time></trkpt><trkpt lat="43.857397" lon="11.2350189"><ele>543.0</ele><time>2026-04-02T15:59:13.034Z</time></trkpt><trkpt lat="43.8575507" lon="11.2349072"><ele>542.6666666666666</ele><time>2026-04-02T15:59:14.027Z</time></trkpt><trkpt lat="43.857698" lon="11.2347922"><ele>542.3333333333333</ele><time>2026-04-02T15:59:14.973Z</time></trkpt><trkpt lat="43.8578414" lon="11.2346595"><ele>542.0</ele><time>2026-04-02T15:59:15.971Z</time></trkpt><trkpt lat="43.8579796" lon="11.2345187"><ele>542.0</ele><time>2026-04-02T15:59:16.994Z</time></trkpt><trkpt lat="43.8581154" lon="11.2343781"><ele>542.0</ele><time>2026-04-02T15:59:18.046Z</time></trkpt><trkpt lat="43.8582476" lon="11.2342331"><ele>542.0</ele><time>2026-04-02T15:59:19.029Z</time></trkpt><trkpt lat="43.8583813" lon="11.2340803"><ele>537.3333333333333</ele><time>2026-04-02T15:59:19.967Z</time></trkpt><trkpt lat="43.8585177" lon="11.2339395"><ele>532.6666666666666</ele><time>2026-04-02T15:59:20.968Z</time></trkpt><trkpt lat="43.8586606" lon="11.2338063"><ele>528.0</ele><time>2026-04-02T15:59:21.966Z</time></trkpt><trkpt lat="43.8588156" lon="11.2336958"><ele>528.0</ele><time>2026-04-02T15:59:22.959Z</time></trkpt><trkpt lat="43.8589779" lon="11.2336097"><ele>528.0</ele><time>2026-04-02T15:59:24.025Z</time></trkpt><trkpt lat="43.8591656" lon="11.233579"><ele>528.0</ele><time>2026-04-02T15:59:24.963Z</time></trkpt><trkpt lat="43.8593503" lon="11.2335779"><ele>526.0</ele><time>2026-04-02T15:59:26.028Z</time></trkpt><trkpt lat="43.8595355" lon="11.2335859"><ele>524.0</ele><time>2026-04-02T15:59:26.964Z</time></trkpt><trkpt lat="43.8597225" lon="11.233608"><ele>522.0</ele><time>2026-04-02T15:59:28.03Z</time></trkpt><trkpt lat="43.8599113" lon="11.233641"><ele>522.0</ele><time>2026-04-02T15:59:29.028Z</time></trkpt><trkpt lat="43.8600971" lon="11.2336712"><ele>522.0</ele><time>2026-04-02T15:59:29.942Z</time></trkpt><trkpt lat="43.8602876" lon="11.2336967"><ele>522.0</ele><time>2026-04-02T15:59:30.956Z</time></trkpt><trkpt lat="43.8604674" lon="11.2337327"><ele>524.0</ele><time>2026-04-02T15:59:31.969Z</time></trkpt><trkpt lat="43.8606377" lon="11.2337674"><ele>526.0</ele><time>2026-04-02T15:59:33.028Z</time></trkpt><trkpt lat="43.8607931" lon="11.2338388"><ele>528.0</ele><time>2026-04-02T15:59:34.018Z</time></trkpt><trkpt lat="43.8609434" lon="11.2339823"><ele>522.6666666666666</ele><time>2026-04-02T15:59:34.959Z</time></trkpt><trkpt lat="43.8610877" lon="11.2341303"><ele>517.3333333333333</ele><time>2026-04-02T15:59:35.955Z</time></trkpt><trkpt lat="43.8612094" lon="11.2343146"><ele>512.0</ele><time>2026-04-02T15:59:36.959Z</time></trkpt><trkpt lat="43.8613174" lon="11.2344907"><ele>512.0</ele><time>2026-04-02T15:59:37.958Z</time></trkpt><trkpt lat="43.8614283" lon="11.2346537"><ele>512.0</ele><time>2026-04-02T15:59:38.96Z</time></trkpt><trkpt lat="43.8615517" lon="11.2347902"><ele>512.0</ele><time>2026-04-02T15:59:39.965Z</time></trkpt><trkpt lat="43.8616989" lon="11.2348896"><ele>514.0</ele><time>2026-04-02T15:59:41.044Z</time></trkpt><trkpt lat="43.8618618" lon="11.2349426"><ele>516.0</ele><time>2026-04-02T15:59:42.024Z</time></trkpt><trkpt lat="43.8620382" lon="11.234955"><ele>518.0</ele><time>2026-04-02T15:59:43.031Z</time></trkpt><trkpt lat="43.8622144" lon="11.2349204"><ele>518.0</ele><time>2026-04-02T15:59:43.951Z</time></trkpt><trkpt lat="43.8623988" lon="11.2348429"><ele>518.0</ele><time>2026-04-02T15:59:44.945Z</time></trkpt><trkpt lat="43.8625741" lon="11.2347412"><ele>518.0</ele><time>2026-04-02T15:59:45.95Z</time></trkpt><trkpt lat="43.8627607" lon="11.2346371"><ele>510.66666666666663</ele><time>2026-04-02T15:59:46.949Z</time></trkpt><trkpt lat="43.8629446" lon="11.2345372"><ele>503.33333333333337</ele><time>2026-04-02T15:59:47.955Z</time></trkpt><trkpt lat="43.8631282" lon="11.2344276"><ele>496.0</ele><time>2026-04-02T15:59:49.02Z</time></trkpt><trkpt lat="43.8633052" lon="11.2343148"><ele>498.0</ele><time>2026-04-02T15:59:49.95Z</time></trkpt><trkpt lat="43.8634739" lon="11.2341858"><ele>500.0</ele><time>2026-04-02T15:59:50.953Z</time></trkpt><trkpt lat="43.8636406" lon="11.2340414"><ele>502.0</ele><time>2026-04-02T15:59:51.977Z</time></trkpt><trkpt lat="43.8638082" lon="11.2338903"><ele>496.0</ele><time>2026-04-02T15:59:52.96Z</time></trkpt><trkpt lat="43.8639712" lon="11.2337554"><ele>490.0</ele><time>2026-04-02T15:59:53.948Z</time></trkpt><trkpt lat="43.8641391" lon="11.2336361"><ele>484.0</ele><time>2026-04-02T15:59:54.954Z</time></trkpt><trkpt lat="43.8643144" lon="11.2335561"><ele>484.0</ele><time>2026-04-02T15:59:55.951Z</time></trkpt><trkpt lat="43.8644995" lon="11.2335046"><ele>484.0</ele><time>2026-04-02T15:59:56.942Z</time></trkpt><trkpt lat="43.8646892" lon="11.2334689"><ele>484.0</ele><time>2026-04-02T15:59:58.023Z</time></trkpt><trkpt lat="43.8648761" lon="11.2334436"><ele>484.0</ele><time>2026-04-02T15:59:58.95Z</time></trkpt><trkpt lat="43.8650609" lon="11.2334156"><ele>484.0</ele><time>2026-04-02T15:59:59.949Z</time></trkpt><trkpt lat="43.8652468" lon="11.2333884"><ele>484.0</ele><time>2026-04-02T16:00:00.948Z</time></trkpt><trkpt lat="43.8654173" lon="11.2333618"><ele>484.0</ele><time>2026-04-02T16:00:01.951Z</time></trkpt><trkpt lat="43.8655791" lon="11.2333375"><ele>484.0</ele><time>2026-04-02T16:00:02.951Z</time></trkpt><trkpt lat="43.8657347" lon="11.2333116"><ele>484.0</ele><time>2026-04-02T16:00:03.957Z</time></trkpt><trkpt lat="43.865875" lon="11.2332861"><ele>486.79999999999995</ele><time>2026-04-02T16:00:04.953Z</time></trkpt><trkpt lat="43.8659934" lon="11.2332435"><ele>489.59999999999997</ele><time>2026-04-02T16:00:05.94Z</time></trkpt><trkpt lat="43.8660863" lon="11.2331851"><ele>492.4</ele><time>2026-04-02T16:00:06.958Z</time></trkpt><trkpt lat="43.8661585" lon="11.2331248"><ele>495.2</ele><time>2026-04-02T16:00:07.953Z</time></trkpt><trkpt lat="43.8662596" lon="11.2329998"><ele>498.0</ele><time>2026-04-02T16:00:09.938Z</time></trkpt><trkpt lat="43.866303" lon="11.2329327"><ele>498.0</ele><time>2026-04-02T16:00:10.952Z</time></trkpt><trkpt lat="43.8663321" lon="11.2328544"><ele>497.99999999999994</ele><time>2026-04-02T16:00:11.953Z</time></trkpt><trkpt lat="43.8663706" lon="11.2327637"><ele>498.0</ele><time>2026-04-02T16:00:12.949Z</time></trkpt><trkpt lat="43.8663937" lon="11.2326613"><ele>498.0</ele><time>2026-04-02T16:00:13.955Z</time></trkpt><trkpt lat="43.8664084" lon="11.2325666"><ele>497.99999999999994</ele><time>2026-04-02T16:00:14.952Z</time></trkpt><trkpt lat="43.8664196" lon="11.2324781"><ele>498.0</ele><time>2026-04-02T16:00:15.953Z</time></trkpt><trkpt lat="43.8664255" lon="11.2323815"><ele>498.0</ele><time>2026-04-02T16:00:16.957Z</time></trkpt><trkpt lat="43.8664216" lon="11.2322861"><ele>497.8333333333333</ele><time>2026-04-02T16:00:17.946Z</time></trkpt><trkpt lat="43.8664132" lon="11.2321846"><ele>497.66666666666663</ele><time>2026-04-02T16:00:18.951Z</time></trkpt><trkpt lat="43.8663983" lon="11.2320809"><ele>497.5</ele><time>2026-04-02T16:00:19.947Z</time></trkpt><trkpt lat="43.8663753" lon="11.2319839"><ele>497.3333333333333</ele><time>2026-04-02T16:00:20.952Z</time></trkpt><trkpt lat="43.8663382" lon="11.2318923"><ele>497.16666666666663</ele><time>2026-04-02T16:00:21.957Z</time></trkpt><trkpt lat="43.8663111" lon="11.2317853"><ele>497.0</ele><time>2026-04-02T16:00:22.952Z</time></trkpt><trkpt lat="43.8662816" lon="11.2316808"><ele>496.99999999999994</ele><time>2026-04-02T16:00:23.943Z</time></trkpt><trkpt lat="43.8662533" lon="11.2315726"><ele>497.0</ele><time>2026-04-02T16:00:24.954Z</time></trkpt><trkpt lat="43.8662328" lon="11.2314768"><ele>497.0</ele><time>2026-04-02T16:00:25.95Z</time></trkpt><trkpt lat="43.8662144" lon="11.2313641"><ele>497.0</ele><time>2026-04-02T16:00:26.95Z</time></trkpt><trkpt lat="43.8661987" lon="11.2312422"><ele>496.99999999999994</ele><time>2026-04-02T16:00:27.952Z</time></trkpt><trkpt lat="43.8661932" lon="11.2311074"><ele>497.0</ele><time>2026-04-02T16:00:28.952Z</time></trkpt><trkpt lat="43.8661988" lon="11.2309795"><ele>497.0</ele><time>2026-04-02T16:00:29.951Z</time></trkpt><trkpt lat="43.8662034" lon="11.2308326"><ele>497.00000000000006</ele><time>2026-04-02T16:00:30.959Z</time></trkpt><trkpt lat="43.866203" lon="11.230676"><ele>497.00000000000006</ele><time>2026-04-02T16:00:31.945Z</time></trkpt><trkpt lat="43.8661979" lon="11.2305141"><ele>497.0</ele><time>2026-04-02T16:00:32.953Z</time></trkpt><trkpt lat="43.866185" lon="11.2303581"><ele>497.0</ele><time>2026-04-02T16:00:33.945Z</time></trkpt><trkpt lat="43.8661689" lon="11.2301979"><ele>496.25</ele><time>2026-04-02T16:00:34.948Z</time></trkpt><trkpt lat="43.8661413" lon="11.230036"><ele>495.5</ele><time>2026-04-02T16:00:35.952Z</time></trkpt><trkpt lat="43.8661103" lon="11.2298692"><ele>494.75</ele><time>2026-04-02T16:00:36.947Z</time></trkpt><trkpt lat="43.8660725" lon="11.2296873"><ele>494.0</ele><time>2026-04-02T16:00:37.947Z</time></trkpt><trkpt lat="43.8660372" lon="11.2294942"><ele>496.5</ele><time>2026-04-02T16:00:38.954Z</time></trkpt><trkpt lat="43.8660072" lon="11.2293"><ele>499.0</ele><time>2026-04-02T16:00:39.95Z</time></trkpt><trkpt lat="43.865972" lon="11.229112"><ele>501.5</ele><time>2026-04-02T16:00:40.951Z</time></trkpt><trkpt lat="43.8659411" lon="11.2289197"><ele>504.0</ele><time>2026-04-02T16:00:41.954Z</time></trkpt><trkpt lat="43.8659107" lon="11.2287382"><ele>493.0</ele><time>2026-04-02T16:00:42.955Z</time></trkpt><trkpt lat="43.8658781" lon="11.228557"><ele>482.0</ele><time>2026-04-02T16:00:43.95Z</time></trkpt><trkpt lat="43.8658369" lon="11.2283761"><ele>471.0</ele><time>2026-04-02T16:00:44.949Z</time></trkpt><trkpt lat="43.8657938" lon="11.2281951"><ele>460.0</ele><time>2026-04-02T16:00:45.954Z</time></trkpt><trkpt lat="43.8657457" lon="11.228021"><ele>460.0</ele><time>2026-04-02T16:00:46.945Z</time></trkpt><trkpt lat="43.8656927" lon="11.2278482"><ele>460.0</ele><time>2026-04-02T16:00:47.947Z</time></trkpt><trkpt lat="43.8656357" lon="11.2276845"><ele>460.0</ele><time>2026-04-02T16:00:48.951Z</time></trkpt><trkpt lat="43.865583" lon="11.2275101"><ele>460.0</ele><time>2026-04-02T16:00:49.951Z</time></trkpt><trkpt lat="43.865535" lon="11.2273351"><ele>463.0</ele><time>2026-04-02T16:00:50.951Z</time></trkpt><trkpt lat="43.8654883" lon="11.2271726"><ele>466.0</ele><time>2026-04-02T16:00:51.949Z</time></trkpt><trkpt lat="43.865437" lon="11.2270092"><ele>469.0</ele><time>2026-04-02T16:00:52.947Z</time></trkpt><trkpt lat="43.865387" lon="11.226838"><ele>472.0</ele><time>2026-04-02T16:00:53.944Z</time></trkpt><trkpt lat="43.8653396" lon="11.2266712"><ele>472.0</ele><time>2026-04-02T16:00:54.946Z</time></trkpt><trkpt lat="43.8652936" lon="11.226507"><ele>472.0</ele><time>2026-04-02T16:00:56.015Z</time></trkpt><trkpt lat="43.8652437" lon="11.2263405"><ele>472.0</ele><time>2026-04-02T16:00:57.006Z</time></trkpt><trkpt lat="43.8652024" lon="11.2261753"><ele>472.0</ele><time>2026-04-02T16:00:58.039Z</time></trkpt><trkpt lat="43.8651506" lon="11.2260061"><ele>463.25</ele><time>2026-04-02T16:00:59.033Z</time></trkpt><trkpt lat="43.8650844" lon="11.2258601"><ele>454.5</ele><time>2026-04-02T16:00:59.949Z</time></trkpt><trkpt lat="43.865" lon="11.2257222"><ele>445.75</ele><time>2026-04-02T16:01:00.949Z</time></trkpt><trkpt lat="43.8649103" lon="11.2255854"><ele>437.0</ele><time>2026-04-02T16:01:01.966Z</time></trkpt><trkpt lat="43.8648013" lon="11.2254681"><ele>437.0</ele><time>2026-04-02T16:01:03.029Z</time></trkpt><trkpt lat="43.8646984" lon="11.2253525"><ele>437.0</ele><time>2026-04-02T16:01:04.028Z</time></trkpt><trkpt lat="43.8645897" lon="11.225249"><ele>437.0</ele><time>2026-04-02T16:01:04.995Z</time></trkpt><trkpt lat="43.8644807" lon="11.2251498"><ele>437.0</ele><time>2026-04-02T16:01:06.038Z</time></trkpt><trkpt lat="43.8643625" lon="11.2250793"><ele>432.75</ele><time>2026-04-02T16:01:07.031Z</time></trkpt><trkpt lat="43.8642359" lon="11.2250348"><ele>428.5</ele><time>2026-04-02T16:01:07.956Z</time></trkpt><trkpt lat="43.8641042" lon="11.2250055"><ele>424.25</ele><time>2026-04-02T16:01:09.032Z</time></trkpt><trkpt lat="43.863974" lon="11.2249685"><ele>420.0</ele><time>2026-04-02T16:01:09.973Z</time></trkpt><trkpt lat="43.8638498" lon="11.2249176"><ele>420.0</ele><time>2026-04-02T16:01:10.957Z</time></trkpt><trkpt lat="43.8637314" lon="11.22484"><ele>420.0</ele><time>2026-04-02T16:01:12.024Z</time></trkpt><trkpt lat="43.8636156" lon="11.2247209"><ele>420.0</ele><time>2026-04-02T16:01:12.963Z</time></trkpt><trkpt lat="43.863501" lon="11.2245888"><ele>420.0</ele><time>2026-04-02T16:01:13.964Z</time></trkpt><trkpt lat="43.8633847" lon="11.2244646"><ele>417.25</ele><time>2026-04-02T16:01:14.958Z</time></trkpt><trkpt lat="43.8632658" lon="11.2243452"><ele>414.5</ele><time>2026-04-02T16:01:15.954Z</time></trkpt><trkpt lat="43.8631599" lon="11.224216"><ele>411.75</ele><time>2026-04-02T16:01:16.962Z</time></trkpt><trkpt lat="43.8630802" lon="11.2240681"><ele>409.0</ele><time>2026-04-02T16:01:17.963Z</time></trkpt><trkpt lat="43.8630106" lon="11.2239146"><ele>405.75</ele><time>2026-04-02T16:01:18.957Z</time></trkpt><trkpt lat="43.8629748" lon="11.2237484"><ele>402.5</ele><time>2026-04-02T16:01:19.964Z</time></trkpt><trkpt lat="43.8629564" lon="11.2235684"><ele>399.25</ele><time>2026-04-02T16:01:20.959Z</time></trkpt><trkpt lat="43.8629567" lon="11.2233862"><ele>396.0</ele><time>2026-04-02T16:01:21.96Z</time></trkpt><trkpt lat="43.8629518" lon="11.2231843"><ele>392.0</ele><time>2026-04-02T16:01:22.961Z</time></trkpt><trkpt lat="43.8629264" lon="11.2229756"><ele>388.0</ele><time>2026-04-02T16:01:23.959Z</time></trkpt><trkpt lat="43.8629023" lon="11.2227725"><ele>384.0</ele><time>2026-04-02T16:01:24.963Z</time></trkpt><trkpt lat="43.8628738" lon="11.2225765"><ele>380.0</ele><time>2026-04-02T16:01:25.954Z</time></trkpt><trkpt lat="43.8628223" lon="11.222391"><ele>376.33333333333337</ele><time>2026-04-02T16:01:26.962Z</time></trkpt><trkpt lat="43.8627477" lon="11.2222196"><ele>372.6666666666667</ele><time>2026-04-02T16:01:27.958Z</time></trkpt><trkpt lat="43.8626551" lon="11.2220454"><ele>369.0</ele><time>2026-04-02T16:01:28.965Z</time></trkpt><trkpt lat="43.8625694" lon="11.2218646"><ele>369.0</ele><time>2026-04-02T16:01:29.959Z</time></trkpt><trkpt lat="43.8624817" lon="11.2216677"><ele>369.0</ele><time>2026-04-02T16:01:30.958Z</time></trkpt><trkpt lat="43.8624341" lon="11.2214652"><ele>369.0</ele><time>2026-04-02T16:01:31.956Z</time></trkpt><trkpt lat="43.8623884" lon="11.2212472"><ele>364.6666666666667</ele><time>2026-04-02T16:01:32.963Z</time></trkpt><trkpt lat="43.8623365" lon="11.2210314"><ele>360.33333333333337</ele><time>2026-04-02T16:01:33.962Z</time></trkpt><trkpt lat="43.8622655" lon="11.2208238"><ele>356.0</ele><time>2026-04-02T16:01:34.962Z</time></trkpt><trkpt lat="43.8621742" lon="11.2206248"><ele>352.33333333333337</ele><time>2026-04-02T16:01:35.961Z</time></trkpt><trkpt lat="43.8620757" lon="11.2204444"><ele>348.6666666666667</ele><time>2026-04-02T16:01:36.961Z</time></trkpt><trkpt lat="43.8619754" lon="11.2202558"><ele>345.0</ele><time>2026-04-02T16:01:37.962Z</time></trkpt><trkpt lat="43.8618731" lon="11.2200755"><ele>345.0</ele><time>2026-04-02T16:01:38.963Z</time></trkpt><trkpt lat="43.8617706" lon="11.2198927"><ele>345.0</ele><time>2026-04-02T16:01:39.961Z</time></trkpt><trkpt lat="43.8616706" lon="11.2197127"><ele>345.0</ele><time>2026-04-02T16:01:40.964Z</time></trkpt><trkpt lat="43.8615689" lon="11.2195411"><ele>343.0</ele><time>2026-04-02T16:01:41.962Z</time></trkpt><trkpt lat="43.8614814" lon="11.2193652"><ele>341.0</ele><time>2026-04-02T16:01:42.967Z</time></trkpt><trkpt lat="43.8614098" lon="11.2191945"><ele>339.0</ele><time>2026-04-02T16:01:43.958Z</time></trkpt><trkpt lat="43.8613614" lon="11.2190067"><ele>337.0</ele><time>2026-04-02T16:01:44.962Z</time></trkpt><trkpt lat="43.8613355" lon="11.2187987"><ele>335.5</ele><time>2026-04-02T16:01:45.956Z</time></trkpt><trkpt lat="43.8613144" lon="11.2185791"><ele>334.0</ele><time>2026-04-02T16:01:46.959Z</time></trkpt><trkpt lat="43.8612952" lon="11.2183794"><ele>332.5</ele><time>2026-04-02T16:01:47.963Z</time></trkpt><trkpt lat="43.861273" lon="11.2181911"><ele>331.0</ele><time>2026-04-02T16:01:48.965Z</time></trkpt><trkpt lat="43.8612539" lon="11.218002"><ele>330.20000000000005</ele><time>2026-04-02T16:01:49.955Z</time></trkpt><trkpt lat="43.8612289" lon="11.2178406"><ele>329.40000000000003</ele><time>2026-04-02T16:01:50.967Z</time></trkpt><trkpt lat="43.8612082" lon="11.2176977"><ele>328.6</ele><time>2026-04-02T16:01:51.961Z</time></trkpt><trkpt lat="43.8611914" lon="11.2175808"><ele>327.8</ele><time>2026-04-02T16:01:52.952Z</time></trkpt><trkpt lat="43.8611804" lon="11.2174295"><ele>327.0</ele><time>2026-04-02T16:01:54.96Z</time></trkpt><trkpt lat="43.8612231" lon="11.2173398"><ele>327.0</ele><time>2026-04-02T16:01:57.963Z</time></trkpt><trkpt lat="43.8612861" lon="11.2173271"><ele>327.0</ele><time>2026-04-02T16:01:59.96Z</time></trkpt><trkpt lat="43.8613498" lon="11.2172962"><ele>327.0</ele><time>2026-04-02T16:02:01.96Z</time></trkpt><trkpt lat="43.8613443" lon="11.2171748"><ele>327.0</ele><time>2026-04-02T16:02:04.958Z</time></trkpt><trkpt lat="43.861327" lon="11.2170394"><ele>327.0</ele><time>2026-04-02T16:02:06.958Z</time></trkpt><trkpt lat="43.8612893" lon="11.2168581"><ele>326.0</ele><time>2026-04-02T16:02:08.957Z</time></trkpt><trkpt lat="43.8612714" lon="11.216765"><ele>325.0</ele><time>2026-04-02T16:02:09.964Z</time></trkpt><trkpt lat="43.8612552" lon="11.2166672"><ele>324.0</ele><time>2026-04-02T16:02:10.961Z</time></trkpt><trkpt lat="43.8612412" lon="11.21657"><ele>323.0</ele><time>2026-04-02T16:02:11.963Z</time></trkpt><trkpt lat="43.8612025" lon="11.2164342"><ele>322.0</ele><time>2026-04-02T16:02:13.957Z</time></trkpt><trkpt lat="43.8611239" lon="11.216362"><ele>321.0</ele><time>2026-04-02T16:02:15.965Z</time></trkpt><trkpt lat="43.8610515" lon="11.2162818"><ele>319.6666666666667</ele><time>2026-04-02T16:02:17.959Z</time></trkpt><trkpt lat="43.861014" lon="11.2161353"><ele>318.3333333333333</ele><time>2026-04-02T16:02:19.962Z</time></trkpt><trkpt lat="43.8609891" lon="11.2160409"><ele>317.0</ele><time>2026-04-02T16:02:20.961Z</time></trkpt><trkpt lat="43.8609607" lon="11.2159474"><ele>315.66666666666663</ele><time>2026-04-02T16:02:21.971Z</time></trkpt><trkpt lat="43.8609355" lon="11.215858"><ele>314.3333333333333</ele><time>2026-04-02T16:02:22.962Z</time></trkpt><trkpt lat="43.8609119" lon="11.2157718"><ele>313.0</ele><time>2026-04-02T16:02:23.963Z</time></trkpt><trkpt lat="43.8608799" lon="11.2156216"><ele>315.8333333333333</ele><time>2026-04-02T16:02:25.964Z</time></trkpt><trkpt lat="43.8608497" lon="11.2155197"><ele>318.66666666666663</ele><time>2026-04-02T16:02:27.962Z</time></trkpt><trkpt lat="43.8608113" lon="11.2154011"><ele>321.5</ele><time>2026-04-02T16:02:30.969Z</time></trkpt><trkpt lat="43.8607794" lon="11.2153194"><ele>324.3333333333333</ele><time>2026-04-02T16:02:32.966Z</time></trkpt><trkpt lat="43.8607476" lon="11.2152142"><ele>327.1666666666667</ele><time>2026-04-02T16:02:34.956Z</time></trkpt><trkpt lat="43.8607138" lon="11.2150857"><ele>330.0</ele><time>2026-04-02T16:02:36.966Z</time></trkpt><trkpt lat="43.860669" lon="11.2149356"><ele>330.00000000000006</ele><time>2026-04-02T16:02:38.967Z</time></trkpt><trkpt lat="43.8606436" lon="11.2148408"><ele>330.0</ele><time>2026-04-02T16:02:39.962Z</time></trkpt><trkpt lat="43.8606236" lon="11.2147315"><ele>330.0</ele><time>2026-04-02T16:02:40.962Z</time></trkpt><trkpt lat="43.8605991" lon="11.2146365"><ele>330.0</ele><time>2026-04-02T16:02:41.958Z</time></trkpt><trkpt lat="43.8605784" lon="11.2145463"><ele>330.0</ele><time>2026-04-02T16:02:42.958Z</time></trkpt><trkpt lat="43.8605598" lon="11.2144465"><ele>330.00000000000006</ele><time>2026-04-02T16:02:43.959Z</time></trkpt><trkpt lat="43.8605387" lon="11.2143493"><ele>330.0</ele><time>2026-04-02T16:02:44.96Z</time></trkpt><trkpt lat="43.8605156" lon="11.2142578"><ele>329.5</ele><time>2026-04-02T16:02:45.963Z</time></trkpt><trkpt lat="43.8604781" lon="11.2141793"><ele>329.0</ele><time>2026-04-02T16:02:46.963Z</time></trkpt><trkpt lat="43.8604292" lon="11.2141065"><ele>328.5</ele><time>2026-04-02T16:02:47.965Z</time></trkpt><trkpt lat="43.8603854" lon="11.2140271"><ele>328.0</ele><time>2026-04-02T16:02:48.966Z</time></trkpt><trkpt lat="43.8603403" lon="11.2139514"><ele>327.5</ele><time>2026-04-02T16:02:49.959Z</time></trkpt><trkpt lat="43.8602959" lon="11.2138793"><ele>327.0</ele><time>2026-04-02T16:02:50.968Z</time></trkpt><trkpt lat="43.8602055" lon="11.2137734"><ele>328.3333333333333</ele><time>2026-04-02T16:02:52.963Z</time></trkpt><trkpt lat="43.8600946" lon="11.2136867"><ele>329.6666666666667</ele><time>2026-04-02T16:02:54.966Z</time></trkpt><trkpt lat="43.8600313" lon="11.2136457"><ele>331.0</ele><time>2026-04-02T16:02:55.965Z</time></trkpt><trkpt lat="43.8599692" lon="11.213624"><ele>332.33333333333337</ele><time>2026-04-02T16:02:56.966Z</time></trkpt><trkpt lat="43.8599085" lon="11.2135915"><ele>333.6666666666667</ele><time>2026-04-02T16:02:57.96Z</time></trkpt><trkpt lat="43.8598151" lon="11.2134879"><ele>335.0</ele><time>2026-04-02T16:02:59.96Z</time></trkpt><trkpt lat="43.8597676" lon="11.2134166"><ele>335.0</ele><time>2026-04-02T16:03:00.968Z</time></trkpt><trkpt lat="43.8597243" lon="11.2133517"><ele>335.0</ele><time>2026-04-02T16:03:01.953Z</time></trkpt><trkpt lat="43.8596639" lon="11.213256"><ele>335.0</ele><time>2026-04-02T16:03:03.948Z</time></trkpt><trkpt lat="43.8595816" lon="11.2131613"><ele>335.0</ele><time>2026-04-02T16:03:05.96Z</time></trkpt><trkpt lat="43.8595065" lon="11.2130454"><ele>335.0</ele><time>2026-04-02T16:03:07.96Z</time></trkpt><trkpt lat="43.8594297" lon="11.212935"><ele>334.0</ele><time>2026-04-02T16:03:09.961Z</time></trkpt><trkpt lat="43.8593487" lon="11.2128349"><ele>333.0</ele><time>2026-04-02T16:03:11.955Z</time></trkpt><trkpt lat="43.8592737" lon="11.2127644"><ele>332.0</ele><time>2026-04-02T16:03:13.962Z</time></trkpt><trkpt lat="43.8592217" lon="11.2127075"><ele>331.0</ele><time>2026-04-02T16:03:15.966Z</time></trkpt><trkpt lat="43.8591968" lon="11.2125823"><ele>330.0</ele><time>2026-04-02T16:03:18.96Z</time></trkpt><trkpt lat="43.859166" lon="11.2124713"><ele>329.0</ele><time>2026-04-02T16:03:21.966Z</time></trkpt><trkpt lat="43.8590988" lon="11.2124518"><ele>329.0</ele><time>2026-04-02T16:03:24.965Z</time></trkpt><trkpt lat="43.8590564" lon="11.2123406"><ele>329.0</ele><time>2026-04-02T16:03:27.963Z</time></trkpt><trkpt lat="43.8590267" lon="11.212252"><ele>329.0</ele><time>2026-04-02T16:03:29.965Z</time></trkpt><trkpt lat="43.8589916" lon="11.2121258"><ele>329.0</ele><time>2026-04-02T16:03:32.962Z</time></trkpt><trkpt lat="43.8589781" lon="11.2120401"><ele>329.0</ele><time>2026-04-02T16:03:34.962Z</time></trkpt><trkpt lat="43.8589641" lon="11.2119374"><ele>329.0</ele><time>2026-04-02T16:03:36.968Z</time></trkpt><trkpt lat="43.8589465" lon="11.2118188"><ele>328.0</ele><time>2026-04-02T16:03:38.959Z</time></trkpt><trkpt lat="43.8589214" lon="11.2117174"><ele>327.0</ele><time>2026-04-02T16:03:40.962Z</time></trkpt><trkpt lat="43.8588961" lon="11.2116362"><ele>326.0</ele><time>2026-04-02T16:03:43.961Z</time></trkpt><trkpt lat="43.8588922" lon="11.2115409"><ele>325.0</ele><time>2026-04-02T16:03:57.961Z</time></trkpt><trkpt lat="43.8589259" lon="11.211431"><ele>324.0</ele><time>2026-04-02T16:03:59.963Z</time></trkpt><trkpt lat="43.8589571" lon="11.2113431"><ele>323.0</ele><time>2026-04-02T16:04:01.97Z</time></trkpt><trkpt lat="43.8590015" lon="11.2112456"><ele>323.00000000000006</ele><time>2026-04-02T16:04:04.966Z</time></trkpt><trkpt lat="43.8590205" lon="11.2111324"><ele>323.0</ele><time>2026-04-02T16:04:07.961Z</time></trkpt><trkpt lat="43.8590455" lon="11.2110507"><ele>323.0</ele><time>2026-04-02T16:04:09.957Z</time></trkpt><trkpt lat="43.8590476" lon="11.2109605"><ele>323.0</ele><time>2026-04-02T16:04:12.962Z</time></trkpt><trkpt lat="43.859047" lon="11.2108512"><ele>323.0</ele><time>2026-04-02T16:04:16.961Z</time></trkpt><trkpt lat="43.8590162" lon="11.2107437"><ele>323.00000000000006</ele><time>2026-04-02T16:04:19.963Z</time></trkpt><trkpt lat="43.8589818" lon="11.2106599"><ele>323.0</ele><time>2026-04-02T16:04:21.963Z</time></trkpt><trkpt lat="43.8589337" lon="11.2105781"><ele>323.00000000000006</ele><time>2026-04-02T16:04:24.963Z</time></trkpt><trkpt lat="43.8588982" lon="11.2104866"><ele>323.0</ele><time>2026-04-02T16:04:28.96Z</time></trkpt><trkpt lat="43.8588858" lon="11.2103836"><ele>323.0</ele><time>2026-04-02T16:04:31.966Z</time></trkpt><trkpt lat="43.8588575" lon="11.2102787"><ele>323.0</ele><time>2026-04-02T16:04:34.963Z</time></trkpt><trkpt lat="43.8588543" lon="11.2101898"><ele>323.0</ele><time>2026-04-02T16:04:36.962Z</time></trkpt><trkpt lat="43.8588478" lon="11.2101018"><ele>323.00000000000006</ele><time>2026-04-02T16:04:38.964Z</time></trkpt><trkpt lat="43.8588405" lon="11.2099937"><ele>323.0</ele><time>2026-04-02T16:04:41.963Z</time></trkpt><trkpt lat="43.858838" lon="11.2098946"><ele>323.5</ele><time>2026-04-02T16:04:45.963Z</time></trkpt><trkpt lat="43.8588702" lon="11.2097989"><ele>324.0</ele><time>2026-04-02T16:04:48.965Z</time></trkpt><trkpt lat="43.8589245" lon="11.2096872"><ele>324.5</ele><time>2026-04-02T16:04:50.957Z</time></trkpt><trkpt lat="43.8589794" lon="11.2095861"><ele>325.0</ele><time>2026-04-02T16:04:52.958Z</time></trkpt><trkpt lat="43.8590078" lon="11.2095046"><ele>325.5</ele><time>2026-04-02T16:04:54.964Z</time></trkpt><trkpt lat="43.8590351" lon="11.2093961"><ele>326.0</ele><time>2026-04-02T16:04:57.965Z</time></trkpt><trkpt lat="43.8590566" lon="11.2092907"><ele>326.0</ele><time>2026-04-02T16:05:00.965Z</time></trkpt><trkpt lat="43.8590716" lon="11.2091918"><ele>326.0</ele><time>2026-04-02T16:05:16.949Z</time></trkpt><trkpt lat="43.8590934" lon="11.209085"><ele>326.0</ele><time>2026-04-02T16:05:19.967Z</time></trkpt><trkpt lat="43.8590917" lon="11.2089715"><ele>326.0</ele><time>2026-04-02T16:05:22.963Z</time></trkpt><trkpt lat="43.8590816" lon="11.2088829"><ele>326.0</ele><time>2026-04-02T16:05:24.964Z</time></trkpt><trkpt lat="43.8590673" lon="11.208791"><ele>326.0</ele><time>2026-04-02T16:05:27.962Z</time></trkpt><trkpt lat="43.8590631" lon="11.2086996"><ele>326.0</ele><time>2026-04-02T16:05:30.97Z</time></trkpt><trkpt lat="43.8590524" lon="11.2085912"><ele>325.5</ele><time>2026-04-02T16:05:33.963Z</time></trkpt><trkpt lat="43.8590201" lon="11.2084792"><ele>325.0</ele><time>2026-04-02T16:05:36.966Z</time></trkpt><trkpt lat="43.8589844" lon="11.2083701"><ele>324.5</ele><time>2026-04-02T16:05:39.965Z</time></trkpt><trkpt lat="43.8589684" lon="11.2082668"><ele>324.0</ele><time>2026-04-02T16:05:42.959Z</time></trkpt><trkpt lat="43.858928" lon="11.208163"><ele>323.5</ele><time>2026-04-02T16:05:45.961Z</time></trkpt><trkpt lat="43.858901" lon="11.2080813"><ele>323.0</ele><time>2026-04-02T16:05:47.959Z</time></trkpt><trkpt lat="43.858888" lon="11.207994"><ele>321.5714285714286</ele><time>2026-04-02T16:05:49.96Z</time></trkpt><trkpt lat="43.8588732" lon="11.2079037"><ele>320.14285714285717</ele><time>2026-04-02T16:05:51.962Z</time></trkpt><trkpt lat="43.8588457" lon="11.2078179"><ele>318.7142857142857</ele><time>2026-04-02T16:05:54.031Z</time></trkpt><trkpt lat="43.8588144" lon="11.2077265"><ele>317.28571428571433</ele><time>2026-04-02T16:05:55.967Z</time></trkpt><trkpt lat="43.8587897" lon="11.2076432"><ele>315.8571428571429</ele><time>2026-04-02T16:05:57.972Z</time></trkpt><trkpt lat="43.8587699" lon="11.207554"><ele>314.42857142857144</ele><time>2026-04-02T16:05:59.966Z</time></trkpt><trkpt lat="43.8587469" lon="11.2074419"><ele>313.0</ele><time>2026-04-02T16:06:02.963Z</time></trkpt><trkpt lat="43.8587205" lon="11.2073326"><ele>312.0</ele><time>2026-04-02T16:06:05.965Z</time></trkpt><trkpt lat="43.8586961" lon="11.2072295"><ele>311.0</ele><time>2026-04-02T16:06:08.954Z</time></trkpt><trkpt lat="43.8586784" lon="11.2071323"><ele>310.0</ele><time>2026-04-02T16:06:11.975Z</time></trkpt><trkpt lat="43.8586748" lon="11.2070153"><ele>309.0</ele><time>2026-04-02T16:06:14.977Z</time></trkpt><trkpt lat="43.8586548" lon="11.2068853"><ele>308.0</ele><time>2026-04-02T16:06:17.975Z</time></trkpt><trkpt lat="43.8586275" lon="11.2067907"><ele>307.0</ele><time>2026-04-02T16:06:19.974Z</time></trkpt><trkpt lat="43.8585944" lon="11.2066771"><ele>307.0</ele><time>2026-04-02T16:06:21.975Z</time></trkpt><trkpt lat="43.858553" lon="11.2065796"><ele>307.0</ele><time>2026-04-02T16:06:23.987Z</time></trkpt><trkpt lat="43.8585232" lon="11.2064716"><ele>307.0</ele><time>2026-04-02T16:06:25.971Z</time></trkpt><trkpt lat="43.8584992" lon="11.2063598"><ele>307.0</ele><time>2026-04-02T16:06:27.971Z</time></trkpt><trkpt lat="43.8584618" lon="11.2062576"><ele>307.0</ele><time>2026-04-02T16:06:29.974Z</time></trkpt><trkpt lat="43.8584356" lon="11.2061682"><ele>307.0</ele><time>2026-04-02T16:06:31.971Z</time></trkpt><trkpt lat="43.8584094" lon="11.2060658"><ele>307.3333333333333</ele><time>2026-04-02T16:06:34.03Z</time></trkpt><trkpt lat="43.858376" lon="11.2059505"><ele>307.66666666666663</ele><time>2026-04-02T16:06:35.96Z</time></trkpt><trkpt lat="43.8583461" lon="11.2058451"><ele>308.0</ele><time>2026-04-02T16:06:37.956Z</time></trkpt><trkpt lat="43.8583166" lon="11.2057574"><ele>308.3333333333333</ele><time>2026-04-02T16:06:39.958Z</time></trkpt><trkpt lat="43.8582723" lon="11.2056819"><ele>308.6666666666667</ele><time>2026-04-02T16:06:41.956Z</time></trkpt><trkpt lat="43.8582344" lon="11.20559"><ele>309.0</ele><time>2026-04-02T16:06:43.961Z</time></trkpt><trkpt lat="43.8581911" lon="11.2055159"><ele>309.00000000000006</ele><time>2026-04-02T16:06:45.957Z</time></trkpt><trkpt lat="43.8581437" lon="11.2054038"><ele>309.0</ele><time>2026-04-02T16:06:48.953Z</time></trkpt><trkpt lat="43.8580944" lon="11.2053227"><ele>309.0</ele><time>2026-04-02T16:06:51.953Z</time></trkpt><trkpt lat="43.8580508" lon="11.2052485"><ele>309.0</ele><time>2026-04-02T16:06:56.958Z</time></trkpt><trkpt lat="43.8580257" lon="11.2051662"><ele>309.0</ele><time>2026-04-02T16:07:05.955Z</time></trkpt><trkpt lat="43.8579782" lon="11.2051033"><ele>309.00000000000006</ele><time>2026-04-02T16:07:09.956Z</time></trkpt><trkpt lat="43.8579164" lon="11.2050335"><ele>309.0</ele><time>2026-04-02T16:07:14.957Z</time></trkpt><trkpt lat="43.857871" lon="11.2049678"><ele>309.0</ele><time>2026-04-02T16:07:18.024Z</time></trkpt><trkpt lat="43.8578111" lon="11.2049015"><ele>309.0</ele><time>2026-04-02T16:07:20.95Z</time></trkpt><trkpt lat="43.8577499" lon="11.2048443"><ele>309.0</ele><time>2026-04-02T16:07:23.968Z</time></trkpt><trkpt lat="43.8576769" lon="11.2047714"><ele>309.0</ele><time>2026-04-02T16:07:26.961Z</time></trkpt><trkpt lat="43.8576326" lon="11.2047005"><ele>309.0</ele><time>2026-04-02T16:07:29.964Z</time></trkpt><trkpt lat="43.8575775" lon="11.2046148"><ele>309.0</ele><time>2026-04-02T16:07:32.949Z</time></trkpt><trkpt lat="43.8575182" lon="11.2045523"><ele>307.7142857142857</ele><time>2026-04-02T16:07:36.96Z</time></trkpt><trkpt lat="43.8574573" lon="11.2044758"><ele>306.42857142857144</ele><time>2026-04-02T16:07:43.964Z</time></trkpt><trkpt lat="43.8574372" lon="11.2043758"><ele>305.1428571428571</ele><time>2026-04-02T16:07:47.963Z</time></trkpt><trkpt lat="43.8574357" lon="11.2042837"><ele>303.8571428571429</ele><time>2026-04-02T16:07:50.946Z</time></trkpt><trkpt lat="43.8574395" lon="11.2041875"><ele>302.57142857142856</ele><time>2026-04-02T16:08:11.963Z</time></trkpt><trkpt lat="43.8574303" lon="11.2040845"><ele>301.2857142857143</ele><time>2026-04-02T16:08:21.965Z</time></trkpt><trkpt lat="43.8574533" lon="11.2039788"><ele>300.0</ele><time>2026-04-02T16:08:25.969Z</time></trkpt><trkpt lat="43.8574854" lon="11.2038518"><ele>299.0</ele><time>2026-04-02T16:08:28.962Z</time></trkpt><trkpt lat="43.8574897" lon="11.203727"><ele>298.0</ele><time>2026-04-02T16:08:31.964Z</time></trkpt><trkpt lat="43.8574707" lon="11.203643"><ele>297.0</ele><time>2026-04-02T16:08:33.969Z</time></trkpt><trkpt lat="43.8574515" lon="11.2035202"><ele>296.0</ele><time>2026-04-02T16:08:36.965Z</time></trkpt><trkpt lat="43.8574324" lon="11.203416"><ele>295.0</ele><time>2026-04-02T16:08:39.97Z</time></trkpt><trkpt lat="43.8573982" lon="11.2033214"><ele>294.0</ele><time>2026-04-02T16:08:42.958Z</time></trkpt><trkpt lat="43.8573532" lon="11.2032169"><ele>294.2857142857143</ele><time>2026-04-02T16:08:45.96Z</time></trkpt><trkpt lat="43.8573147" lon="11.2031426"><ele>294.57142857142856</ele><time>2026-04-02T16:08:47.962Z</time></trkpt><trkpt lat="43.8572804" lon="11.2030652"><ele>294.8571428571429</ele><time>2026-04-02T16:08:50.963Z</time></trkpt><trkpt lat="43.8572658" lon="11.2029579"><ele>295.1428571428571</ele><time>2026-04-02T16:08:55.963Z</time></trkpt><trkpt lat="43.8572376" lon="11.202868"><ele>295.42857142857144</ele><time>2026-04-02T16:08:58.961Z</time></trkpt><trkpt lat="43.8572091" lon="11.2027671"><ele>295.7142857142857</ele><time>2026-04-02T16:09:01.966Z</time></trkpt><trkpt lat="43.8571892" lon="11.2026671"><ele>296.0</ele><time>2026-04-02T16:09:04.96Z</time></trkpt><trkpt lat="43.8571698" lon="11.2025477"><ele>296.0</ele><time>2026-04-02T16:09:07.963Z</time></trkpt><trkpt lat="43.8571557" lon="11.2024521"><ele>296.0</ele><time>2026-04-02T16:09:10.966Z</time></trkpt><trkpt lat="43.857136" lon="11.2023427"><ele>296.0</ele><time>2026-04-02T16:09:13.971Z</time></trkpt><trkpt lat="43.8571159" lon="11.2022578"><ele>296.0</ele><time>2026-04-02T16:09:15.968Z</time></trkpt><trkpt lat="43.8571076" lon="11.2021711"><ele>296.0</ele><time>2026-04-02T16:09:17.972Z</time></trkpt><trkpt lat="43.8570978" lon="11.2020453"><ele>296.0</ele><time>2026-04-02T16:09:20.968Z</time></trkpt><trkpt lat="43.8570725" lon="11.2019375"><ele>296.33333333333337</ele><time>2026-04-02T16:09:23.964Z</time></trkpt><trkpt lat="43.8570506" lon="11.2018258"><ele>296.6666666666667</ele><time>2026-04-02T16:09:26.973Z</time></trkpt><trkpt lat="43.8570521" lon="11.2017027"><ele>297.0</ele><time>2026-04-02T16:09:29.97Z</time></trkpt><trkpt lat="43.8570554" lon="11.2016026"><ele>297.3333333333333</ele><time>2026-04-02T16:09:31.97Z</time></trkpt><trkpt lat="43.8570394" lon="11.2014756"><ele>297.66666666666663</ele><time>2026-04-02T16:09:33.979Z</time></trkpt><trkpt lat="43.8570113" lon="11.2013612"><ele>298.0</ele><time>2026-04-02T16:09:35.967Z</time></trkpt><trkpt lat="43.8569462" lon="11.2011737"><ele>298.2</ele><time>2026-04-02T16:09:37.97Z</time></trkpt><trkpt lat="43.8569077" lon="11.2010809"><ele>298.4</ele><time>2026-04-02T16:09:38.976Z</time></trkpt><trkpt lat="43.8568739" lon="11.2009296"><ele>298.59999999999997</ele><time>2026-04-02T16:09:40.969Z</time></trkpt><trkpt lat="43.856837" lon="11.2007815"><ele>298.8</ele><time>2026-04-02T16:09:42.972Z</time></trkpt><trkpt lat="43.856784" lon="11.20063"><ele>299.0</ele><time>2026-04-02T16:09:44.976Z</time></trkpt><trkpt lat="43.8567415" lon="11.2005069"><ele>303.4</ele><time>2026-04-02T16:09:46.968Z</time></trkpt><trkpt lat="43.8566987" lon="11.2003861"><ele>307.79999999999995</ele><time>2026-04-02T16:09:48.969Z</time></trkpt><trkpt lat="43.8566759" lon="11.2002692"><ele>312.20000000000005</ele><time>2026-04-02T16:09:50.973Z</time></trkpt><trkpt lat="43.856668" lon="11.2001444"><ele>316.6</ele><time>2026-04-02T16:09:52.977Z</time></trkpt><trkpt lat="43.8566579" lon="11.2000136"><ele>321.0</ele><time>2026-04-02T16:09:54.969Z</time></trkpt><trkpt lat="43.8566488" lon="11.1998854"><ele>320.1666666666667</ele><time>2026-04-02T16:09:56.967Z</time></trkpt><trkpt lat="43.8566563" lon="11.1997845"><ele>319.3333333333333</ele><time>2026-04-02T16:09:58.967Z</time></trkpt><trkpt lat="43.8566549" lon="11.1996642"><ele>318.5</ele><time>2026-04-02T16:10:00.972Z</time></trkpt><trkpt lat="43.8566447" lon="11.1995338"><ele>317.66666666666663</ele><time>2026-04-02T16:10:02.972Z</time></trkpt><trkpt lat="43.8566445" lon="11.1994109"><ele>316.8333333333333</ele><time>2026-04-02T16:10:04.974Z</time></trkpt><trkpt lat="43.8566419" lon="11.1992716"><ele>316.0</ele><time>2026-04-02T16:10:06.97Z</time></trkpt><trkpt lat="43.8566307" lon="11.1991353"><ele>316.0</ele><time>2026-04-02T16:10:08.971Z</time></trkpt><trkpt lat="43.856636" lon="11.1990182"><ele>316.0</ele><time>2026-04-02T16:10:10.97Z</time></trkpt><trkpt lat="43.8566478" lon="11.1989177"><ele>316.0</ele><time>2026-04-02T16:10:12.969Z</time></trkpt><trkpt lat="43.8566633" lon="11.1988201"><ele>316.0</ele><time>2026-04-02T16:10:14.975Z</time></trkpt><trkpt lat="43.8566831" lon="11.1987271"><ele>316.0</ele><time>2026-04-02T16:10:16.962Z</time></trkpt><trkpt lat="43.8567009" lon="11.1986002"><ele>316.0</ele><time>2026-04-02T16:10:18.979Z</time></trkpt><trkpt lat="43.8567151" lon="11.1984623"><ele>315.16666666666663</ele><time>2026-04-02T16:10:20.974Z</time></trkpt><trkpt lat="43.8567153" lon="11.1982961"><ele>314.3333333333333</ele><time>2026-04-02T16:10:23.007Z</time></trkpt><trkpt lat="43.8567131" lon="11.198196"><ele>313.5</ele><time>2026-04-02T16:10:23.97Z</time></trkpt><trkpt lat="43.8567112" lon="11.1980916"><ele>312.6666666666667</ele><time>2026-04-02T16:10:24.974Z</time></trkpt><trkpt lat="43.8567108" lon="11.197991"><ele>311.83333333333337</ele><time>2026-04-02T16:10:25.968Z</time></trkpt><trkpt lat="43.8567127" lon="11.1978926"><ele>311.0</ele><time>2026-04-02T16:10:26.956Z</time></trkpt><trkpt lat="43.8567182" lon="11.1977918"><ele>310.7142857142857</ele><time>2026-04-02T16:10:27.968Z</time></trkpt><trkpt lat="43.8567264" lon="11.1976989"><ele>310.42857142857144</ele><time>2026-04-02T16:10:28.971Z</time></trkpt><trkpt lat="43.8567442" lon="11.1976015"><ele>310.14285714285717</ele><time>2026-04-02T16:10:29.971Z</time></trkpt><trkpt lat="43.8567529" lon="11.1975088"><ele>309.8571428571429</ele><time>2026-04-02T16:10:30.97Z</time></trkpt><trkpt lat="43.8567609" lon="11.1974165"><ele>309.57142857142856</ele><time>2026-04-02T16:10:31.975Z</time></trkpt><trkpt lat="43.8567556" lon="11.1973283"><ele>309.28571428571433</ele><time>2026-04-02T16:10:32.971Z</time></trkpt><trkpt lat="43.8567432" lon="11.1972406"><ele>309.0</ele><time>2026-04-02T16:10:33.972Z</time></trkpt><trkpt lat="43.8567243" lon="11.1971477"><ele>308.6666666666667</ele><time>2026-04-02T16:10:34.971Z</time></trkpt><trkpt lat="43.8567015" lon="11.1970623"><ele>308.3333333333333</ele><time>2026-04-02T16:10:35.97Z</time></trkpt><trkpt lat="43.8566715" lon="11.1969835"><ele>308.0</ele><time>2026-04-02T16:10:36.969Z</time></trkpt><trkpt lat="43.8566266" lon="11.1968742"><ele>307.66666666666663</ele><time>2026-04-02T16:10:37.973Z</time></trkpt><trkpt lat="43.8565863" lon="11.1967846"><ele>307.3333333333333</ele><time>2026-04-02T16:10:38.973Z</time></trkpt><trkpt lat="43.8565425" lon="11.1966903"><ele>307.0</ele><time>2026-04-02T16:10:39.966Z</time></trkpt><trkpt lat="43.8564951" lon="11.1965645"><ele>305.5</ele><time>2026-04-02T16:10:40.978Z</time></trkpt><trkpt lat="43.8564465" lon="11.1964733"><ele>304.0</ele><time>2026-04-02T16:10:41.968Z</time></trkpt><trkpt lat="43.8563984" lon="11.1963732"><ele>302.5</ele><time>2026-04-02T16:10:42.972Z</time></trkpt><trkpt lat="43.8563461" lon="11.1962849"><ele>301.0</ele><time>2026-04-02T16:10:43.972Z</time></trkpt><trkpt lat="43.8562977" lon="11.1961987"><ele>299.5</ele><time>2026-04-02T16:10:44.973Z</time></trkpt><trkpt lat="43.8562513" lon="11.1961268"><ele>298.0</ele><time>2026-04-02T16:10:45.972Z</time></trkpt><trkpt lat="43.8561619" lon="11.1960641"><ele>298.0</ele><time>2026-04-02T16:10:47.968Z</time></trkpt><trkpt lat="43.8560649" lon="11.1960105"><ele>298.0</ele><time>2026-04-02T16:10:49.971Z</time></trkpt><trkpt lat="43.8559534" lon="11.195949"><ele>298.0</ele><time>2026-04-02T16:10:51.971Z</time></trkpt><trkpt lat="43.8558394" lon="11.1959499"><ele>298.0</ele><time>2026-04-02T16:10:53.976Z</time></trkpt><trkpt lat="43.8557292" lon="11.1959768"><ele>298.8333333333333</ele><time>2026-04-02T16:10:55.966Z</time></trkpt><trkpt lat="43.855661" lon="11.1959967"><ele>299.66666666666663</ele><time>2026-04-02T16:10:56.975Z</time></trkpt><trkpt lat="43.8555879" lon="11.19599"><ele>300.5</ele><time>2026-04-02T16:10:57.97Z</time></trkpt><trkpt lat="43.8554967" lon="11.1959646"><ele>301.3333333333333</ele><time>2026-04-02T16:10:58.965Z</time></trkpt><trkpt lat="43.8554041" lon="11.1959363"><ele>302.1666666666667</ele><time>2026-04-02T16:10:59.972Z</time></trkpt><trkpt lat="43.85531" lon="11.1959051"><ele>303.0</ele><time>2026-04-02T16:11:00.965Z</time></trkpt><trkpt lat="43.8552217" lon="11.195882"><ele>303.0</ele><time>2026-04-02T16:11:01.964Z</time></trkpt><trkpt lat="43.8551377" lon="11.1958491"><ele>303.0</ele><time>2026-04-02T16:11:02.963Z</time></trkpt><trkpt lat="43.855061" lon="11.1958085"><ele>303.0</ele><time>2026-04-02T16:11:03.966Z</time></trkpt><trkpt lat="43.8549938" lon="11.1957599"><ele>303.0</ele><time>2026-04-02T16:11:04.963Z</time></trkpt><trkpt lat="43.8549335" lon="11.1956898"><ele>303.0</ele><time>2026-04-02T16:11:05.974Z</time></trkpt><trkpt lat="43.8548744" lon="11.1956156"><ele>303.0</ele><time>2026-04-02T16:11:06.969Z</time></trkpt><trkpt lat="43.854798" lon="11.1955444"><ele>299.8</ele><time>2026-04-02T16:11:07.965Z</time></trkpt><trkpt lat="43.854695" lon="11.1954941"><ele>296.6</ele><time>2026-04-02T16:11:08.966Z</time></trkpt><trkpt lat="43.8545986" lon="11.1954524"><ele>293.4</ele><time>2026-04-02T16:11:09.968Z</time></trkpt><trkpt lat="43.8544886" lon="11.1954287"><ele>290.2</ele><time>2026-04-02T16:11:10.971Z</time></trkpt><trkpt lat="43.8543879" lon="11.1954165"><ele>287.0</ele><time>2026-04-02T16:11:11.969Z</time></trkpt><trkpt lat="43.8542886" lon="11.1953967"><ele>285.6</ele><time>2026-04-02T16:11:12.968Z</time></trkpt><trkpt lat="43.8541948" lon="11.1953559"><ele>284.2</ele><time>2026-04-02T16:11:13.971Z</time></trkpt><trkpt lat="43.8541068" lon="11.1953088"><ele>282.8</ele><time>2026-04-02T16:11:14.968Z</time></trkpt><trkpt lat="43.8540163" lon="11.1952573"><ele>281.4</ele><time>2026-04-02T16:11:15.966Z</time></trkpt><trkpt lat="43.8539187" lon="11.1951972"><ele>280.0</ele><time>2026-04-02T16:11:16.97Z</time></trkpt><trkpt lat="43.8538265" lon="11.1951295"><ele>280.0</ele><time>2026-04-02T16:11:17.967Z</time></trkpt><trkpt lat="43.8537457" lon="11.1950689"><ele>280.0</ele><time>2026-04-02T16:11:18.978Z</time></trkpt><trkpt lat="43.8536591" lon="11.1950185"><ele>280.0</ele><time>2026-04-02T16:11:19.956Z</time></trkpt><trkpt lat="43.853574" lon="11.1949995"><ele>280.0</ele><time>2026-04-02T16:11:20.962Z</time></trkpt><trkpt lat="43.8534888" lon="11.1949995"><ele>280.0</ele><time>2026-04-02T16:11:21.969Z</time></trkpt><trkpt lat="43.8534063" lon="11.1950216"><ele>280.0</ele><time>2026-04-02T16:11:22.957Z</time></trkpt><trkpt lat="43.8533256" lon="11.1950362"><ele>278.16666666666663</ele><time>2026-04-02T16:11:23.963Z</time></trkpt><trkpt lat="43.8532366" lon="11.1950226"><ele>276.3333333333333</ele><time>2026-04-02T16:11:25.97Z</time></trkpt><trkpt lat="43.853143" lon="11.1950083"><ele>274.5</ele><time>2026-04-02T16:11:27.969Z</time></trkpt><trkpt lat="43.8530567" lon="11.195004"><ele>272.6666666666667</ele><time>2026-04-02T16:11:29.97Z</time></trkpt><trkpt lat="43.8529894" lon="11.1949911"><ele>270.83333333333337</ele><time>2026-04-02T16:11:31.967Z</time></trkpt><trkpt lat="43.8529117" lon="11.1948988"><ele>269.0</ele><time>2026-04-02T16:11:33.965Z</time></trkpt><trkpt lat="43.8528558" lon="11.1948322"><ele>268.1666666666667</ele><time>2026-04-02T16:11:34.967Z</time></trkpt><trkpt lat="43.8527811" lon="11.1947875"><ele>267.33333333333337</ele><time>2026-04-02T16:11:35.966Z</time></trkpt><trkpt lat="43.8527112" lon="11.1947266"><ele>266.5</ele><time>2026-04-02T16:11:36.965Z</time></trkpt><trkpt lat="43.8526763" lon="11.1946343"><ele>265.6666666666667</ele><time>2026-04-02T16:11:37.973Z</time></trkpt><trkpt lat="43.8526415" lon="11.1945282"><ele>264.8333333333333</ele><time>2026-04-02T16:11:38.961Z</time></trkpt><trkpt lat="43.852579" lon="11.194447"><ele>264.0</ele><time>2026-04-02T16:11:39.971Z</time></trkpt><trkpt lat="43.852505" lon="11.1943882"><ele>260.2</ele><time>2026-04-02T16:11:40.973Z</time></trkpt><trkpt lat="43.8524153" lon="11.1943381"><ele>256.4</ele><time>2026-04-02T16:11:41.965Z</time></trkpt><trkpt lat="43.8523311" lon="11.1943057"><ele>252.6</ele><time>2026-04-02T16:11:42.966Z</time></trkpt><trkpt lat="43.8522412" lon="11.1942843"><ele>248.8</ele><time>2026-04-02T16:11:43.966Z</time></trkpt><trkpt lat="43.8521497" lon="11.1942524"><ele>245.0</ele><time>2026-04-02T16:11:44.963Z</time></trkpt><trkpt lat="43.8520457" lon="11.1941914"><ele>245.0</ele><time>2026-04-02T16:11:45.978Z</time></trkpt><trkpt lat="43.8519567" lon="11.1941362"><ele>245.0</ele><time>2026-04-02T16:11:46.971Z</time></trkpt><trkpt lat="43.851866" lon="11.1941104"><ele>245.0</ele><time>2026-04-02T16:11:47.963Z</time></trkpt><trkpt lat="43.8517756" lon="11.1940894"><ele>245.0</ele><time>2026-04-02T16:11:48.967Z</time></trkpt><trkpt lat="43.8516797" lon="11.1940455"><ele>245.0</ele><time>2026-04-02T16:11:49.968Z</time></trkpt><trkpt lat="43.851588" lon="11.1940058"><ele>242.50000000000003</ele><time>2026-04-02T16:11:50.968Z</time></trkpt><trkpt lat="43.8514918" lon="11.1939694"><ele>240.0</ele><time>2026-04-02T16:11:51.969Z</time></trkpt><trkpt lat="43.8514036" lon="11.1939469"><ele>237.5</ele><time>2026-04-02T16:11:52.963Z</time></trkpt><trkpt lat="43.8513237" lon="11.1939215"><ele>235.0</ele><time>2026-04-02T16:11:53.967Z</time></trkpt><trkpt lat="43.8512613" lon="11.1938583"><ele>232.50000000000003</ele><time>2026-04-02T16:11:54.967Z</time></trkpt><trkpt lat="43.8512124" lon="11.1937548"><ele>230.0</ele><time>2026-04-02T16:11:55.97Z</time></trkpt><trkpt lat="43.8511548" lon="11.1936355"><ele>230.0</ele><time>2026-04-02T16:11:56.964Z</time></trkpt><trkpt lat="43.851085" lon="11.1935035"><ele>230.0</ele><time>2026-04-02T16:11:57.962Z</time></trkpt><trkpt lat="43.8510064" lon="11.1933844"><ele>230.0</ele><time>2026-04-02T16:11:58.968Z</time></trkpt><trkpt lat="43.85093" lon="11.1932461"><ele>230.0</ele><time>2026-04-02T16:11:59.966Z</time></trkpt><trkpt lat="43.8508544" lon="11.1931153"><ele>228.8</ele><time>2026-04-02T16:12:00.961Z</time></trkpt><trkpt lat="43.8507841" lon="11.1929822"><ele>227.6</ele><time>2026-04-02T16:12:01.961Z</time></trkpt><trkpt lat="43.8507158" lon="11.1928733"><ele>226.39999999999998</ele><time>2026-04-02T16:12:02.964Z</time></trkpt><trkpt lat="43.850641" lon="11.1927554"><ele>225.2</ele><time>2026-04-02T16:12:03.964Z</time></trkpt><trkpt lat="43.8505687" lon="11.1926569"><ele>224.0</ele><time>2026-04-02T16:12:04.962Z</time></trkpt><trkpt lat="43.8505063" lon="11.1925524"><ele>224.0</ele><time>2026-04-02T16:12:05.965Z</time></trkpt><trkpt lat="43.8504522" lon="11.1924229"><ele>223.99999999999997</ele><time>2026-04-02T16:12:06.971Z</time></trkpt><trkpt lat="43.8503977" lon="11.1922984"><ele>223.99999999999997</ele><time>2026-04-02T16:12:07.967Z</time></trkpt><trkpt lat="43.8503494" lon="11.1921801"><ele>224.0</ele><time>2026-04-02T16:12:08.971Z</time></trkpt><trkpt lat="43.8503078" lon="11.1920525"><ele>224.0</ele><time>2026-04-02T16:12:09.966Z</time></trkpt><trkpt lat="43.8502638" lon="11.1919376"><ele>223.0</ele><time>2026-04-02T16:12:10.971Z</time></trkpt><trkpt lat="43.8502072" lon="11.1918523"><ele>221.99999999999997</ele><time>2026-04-02T16:12:11.968Z</time></trkpt><trkpt lat="43.8501214" lon="11.1918227"><ele>220.99999999999997</ele><time>2026-04-02T16:12:12.97Z</time></trkpt><trkpt lat="43.8500156" lon="11.1918231"><ele>220.0</ele><time>2026-04-02T16:12:13.97Z</time></trkpt><trkpt lat="43.8498965" lon="11.191822"><ele>219.0</ele><time>2026-04-02T16:12:14.968Z</time></trkpt><trkpt lat="43.8497733" lon="11.1917759"><ele>219.0</ele><time>2026-04-02T16:12:15.968Z</time></trkpt><trkpt lat="43.8496522" lon="11.1917404"><ele>219.0</ele><time>2026-04-02T16:12:16.967Z</time></trkpt><trkpt lat="43.8495373" lon="11.1916761"><ele>219.0</ele><time>2026-04-02T16:12:17.968Z</time></trkpt><trkpt lat="43.8494276" lon="11.191611"><ele>219.0</ele><time>2026-04-02T16:12:18.965Z</time></trkpt><trkpt lat="43.8493172" lon="11.1915513"><ele>214.25</ele><time>2026-04-02T16:12:19.968Z</time></trkpt><trkpt lat="43.8492029" lon="11.1914901"><ele>209.5</ele><time>2026-04-02T16:12:20.967Z</time></trkpt><trkpt lat="43.8490876" lon="11.1914282"><ele>204.75</ele><time>2026-04-02T16:12:22.031Z</time></trkpt><trkpt lat="43.8489758" lon="11.1913559"><ele>200.0</ele><time>2026-04-02T16:12:22.968Z</time></trkpt><trkpt lat="43.84887" lon="11.191279"><ele>200.0</ele><time>2026-04-02T16:12:24.026Z</time></trkpt><trkpt lat="43.848761" lon="11.1912185"><ele>200.0</ele><time>2026-04-02T16:12:25.001Z</time></trkpt><trkpt lat="43.848653" lon="11.1911693"><ele>200.0</ele><time>2026-04-02T16:12:25.994Z</time></trkpt><trkpt lat="43.8485587" lon="11.1911306"><ele>200.0</ele><time>2026-04-02T16:12:26.972Z</time></trkpt><trkpt lat="43.848483" lon="11.191104"><ele>200.0</ele><time>2026-04-02T16:12:28.001Z</time></trkpt><trkpt lat="43.8484118" lon="11.1910912"><ele>197.83333333333334</ele><time>2026-04-02T16:12:29.999Z</time></trkpt><trkpt lat="43.848363" lon="11.1911861"><ele>195.66666666666669</ele><time>2026-04-02T16:12:32.964Z</time></trkpt><trkpt lat="43.8483554" lon="11.1913336"><ele>193.5</ele><time>2026-04-02T16:12:34.974Z</time></trkpt><trkpt lat="43.8483432" lon="11.1914336"><ele>191.33333333333334</ele><time>2026-04-02T16:12:35.967Z</time></trkpt><trkpt lat="43.8483346" lon="11.1915451"><ele>189.16666666666669</ele><time>2026-04-02T16:12:36.968Z</time></trkpt><trkpt lat="43.8483266" lon="11.1916458"><ele>187.0</ele><time>2026-04-02T16:12:37.967Z</time></trkpt><trkpt lat="43.8483188" lon="11.1917461"><ele>186.0</ele><time>2026-04-02T16:12:38.966Z</time></trkpt><trkpt lat="43.8483142" lon="11.1918575"><ele>185.0</ele><time>2026-04-02T16:12:39.97Z</time></trkpt><trkpt lat="43.8483033" lon="11.1919583"><ele>184.0</ele><time>2026-04-02T16:12:40.969Z</time></trkpt><trkpt lat="43.8483" lon="11.192064"><ele>183.0</ele><time>2026-04-02T16:12:41.991Z</time></trkpt><trkpt lat="43.8482996" lon="11.192173"><ele>182.0</ele><time>2026-04-02T16:12:42.959Z</time></trkpt><trkpt lat="43.8483154" lon="11.1922908"><ele>181.0</ele><time>2026-04-02T16:12:43.965Z</time></trkpt><trkpt lat="43.848344" lon="11.1924041"><ele>179.20000000000002</ele><time>2026-04-02T16:12:44.965Z</time></trkpt><trkpt lat="43.84837" lon="11.1925153"><ele>177.4</ele><time>2026-04-02T16:12:45.967Z</time></trkpt><trkpt lat="43.8483993" lon="11.192642"><ele>175.6</ele><time>2026-04-02T16:12:46.968Z</time></trkpt><trkpt lat="43.8484281" lon="11.1927695"><ele>173.8</ele><time>2026-04-02T16:12:47.966Z</time></trkpt><trkpt lat="43.8484599" lon="11.1929036"><ele>172.0</ele><time>2026-04-02T16:12:48.967Z</time></trkpt><trkpt lat="43.84849" lon="11.1930458"><ele>174.66666666666669</ele><time>2026-04-02T16:12:49.965Z</time></trkpt><trkpt lat="43.8485221" lon="11.1931773"><ele>177.33333333333334</ele><time>2026-04-02T16:12:50.967Z</time></trkpt><trkpt lat="43.8485445" lon="11.1932949"><ele>180.0</ele><time>2026-04-02T16:12:51.964Z</time></trkpt><trkpt lat="43.848562" lon="11.1933806"><ele>182.66666666666666</ele><time>2026-04-02T16:12:52.967Z</time></trkpt><trkpt lat="43.8485804" lon="11.1935077"><ele>185.33333333333331</ele><time>2026-04-02T16:12:54.992Z</time></trkpt><trkpt lat="43.8485759" lon="11.1936089"><ele>188.0</ele><time>2026-04-02T16:12:57.964Z</time></trkpt><trkpt lat="43.8485708" lon="11.1937505"><ele>188.0</ele><time>2026-04-02T16:13:00.971Z</time></trkpt><trkpt lat="43.8485453" lon="11.193866"><ele>188.0</ele><time>2026-04-02T16:13:02.967Z</time></trkpt><trkpt lat="43.8485235" lon="11.1940189"><ele>188.0</ele><time>2026-04-02T16:13:04.965Z</time></trkpt><trkpt lat="43.8485326" lon="11.1941762"><ele>188.0</ele><time>2026-04-02T16:13:06.971Z</time></trkpt><trkpt lat="43.8485623" lon="11.1943033"><ele>188.0</ele><time>2026-04-02T16:13:08.964Z</time></trkpt><trkpt lat="43.8485897" lon="11.1944239"><ele>189.33333333333331</ele><time>2026-04-02T16:13:10.968Z</time></trkpt><trkpt lat="43.8485497" lon="11.1945398"><ele>190.66666666666666</ele><time>2026-04-02T16:13:12.972Z</time></trkpt><trkpt lat="43.8485519" lon="11.194666"><ele>192.0</ele><time>2026-04-02T16:13:14.958Z</time></trkpt><trkpt lat="43.8485905" lon="11.1947488"><ele>193.33333333333331</ele><time>2026-04-02T16:13:16.969Z</time></trkpt><trkpt lat="43.848643" lon="11.1947992"><ele>194.66666666666666</ele><time>2026-04-02T16:13:18.967Z</time></trkpt><trkpt lat="43.8487185" lon="11.1948442"><ele>196.0</ele><time>2026-04-02T16:13:21.954Z</time></trkpt><trkpt lat="43.848794" lon="11.1948137"><ele>195.99999999999997</ele><time>2026-04-02T16:13:24.963Z</time></trkpt><trkpt lat="43.8488436" lon="11.1947338"><ele>196.0</ele><time>2026-04-02T16:13:27.972Z</time></trkpt><trkpt lat="43.8489232" lon="11.1946889"><ele>196.0</ele><time>2026-04-02T16:13:30.969Z</time></trkpt><trkpt lat="43.8489859" lon="11.1946311"><ele>196.0</ele><time>2026-04-02T16:13:33.958Z</time></trkpt><trkpt lat="43.8490518" lon="11.1945374"><ele>195.99999999999997</ele><time>2026-04-02T16:13:36.963Z</time></trkpt><trkpt lat="43.849116" lon="11.1944662"><ele>196.0</ele><time>2026-04-02T16:13:38.963Z</time></trkpt><trkpt lat="43.8491903" lon="11.1944069"><ele>195.99999999999997</ele><time>2026-04-02T16:13:40.966Z</time></trkpt><trkpt lat="43.8492544" lon="11.1943712"><ele>196.0</ele><time>2026-04-02T16:13:42.964Z</time></trkpt><trkpt lat="43.849313" lon="11.1943386"><ele>196.0</ele><time>2026-04-02T16:13:44.968Z</time></trkpt><trkpt lat="43.8494095" lon="11.19431"><ele>196.0</ele><time>2026-04-02T16:13:47.973Z</time></trkpt><trkpt lat="43.8494838" lon="11.1942956"><ele>195.99999999999997</ele><time>2026-04-02T16:13:49.966Z</time></trkpt><trkpt lat="43.8495643" lon="11.194335"><ele>196.0</ele><time>2026-04-02T16:13:52.975Z</time></trkpt><trkpt lat="43.8496276" lon="11.1943101"><ele>199.49999999999997</ele><time>2026-04-02T16:13:54.969Z</time></trkpt><trkpt lat="43.8497196" lon="11.1943142"><ele>203.0</ele><time>2026-04-02T16:13:57.972Z</time></trkpt><trkpt lat="43.8497812" lon="11.1943777"><ele>206.5</ele><time>2026-04-02T16:13:59.968Z</time></trkpt><trkpt lat="43.8498365" lon="11.1944313"><ele>210.0</ele><time>2026-04-02T16:14:01.969Z</time></trkpt><trkpt lat="43.8499077" lon="11.1944751"><ele>213.49999999999997</ele><time>2026-04-02T16:14:04.97Z</time></trkpt><trkpt lat="43.8500008" lon="11.1945064"><ele>217.0</ele><time>2026-04-02T16:14:07.965Z</time></trkpt><trkpt lat="43.8500729" lon="11.1945143"><ele>219.33333333333331</ele><time>2026-04-02T16:14:09.973Z</time></trkpt><trkpt lat="43.8501474" lon="11.1945104"><ele>221.66666666666666</ele><time>2026-04-02T16:14:11.975Z</time></trkpt><trkpt lat="43.8502207" lon="11.194512"><ele>224.0</ele><time>2026-04-02T16:14:13.975Z</time></trkpt><trkpt lat="43.8502822" lon="11.1944871"><ele>226.33333333333331</ele><time>2026-04-02T16:14:15.971Z</time></trkpt><trkpt lat="43.8503542" lon="11.1944255"><ele>228.66666666666666</ele><time>2026-04-02T16:14:18.976Z</time></trkpt><trkpt lat="43.8503979" lon="11.1943549"><ele>231.0</ele><time>2026-04-02T16:14:20.974Z</time></trkpt><trkpt lat="43.8504288" lon="11.1942392"><ele>231.0</ele><time>2026-04-02T16:14:22.97Z</time></trkpt><trkpt lat="43.8504574" lon="11.1941086"><ele>231.0</ele><time>2026-04-02T16:14:24.968Z</time></trkpt><trkpt lat="43.8504916" lon="11.1939738"><ele>231.0</ele><time>2026-04-02T16:14:26.977Z</time></trkpt><trkpt lat="43.8505503" lon="11.1939112"><ele>231.0</ele><time>2026-04-02T16:14:28.976Z</time></trkpt><trkpt lat="43.8506225" lon="11.1939008"><ele>231.0</ele><time>2026-04-02T16:14:31.976Z</time></trkpt><trkpt lat="43.8507097" lon="11.1939008"><ele>231.0</ele><time>2026-04-02T16:14:34.97Z</time></trkpt><trkpt lat="43.8507909" lon="11.1939436"><ele>231.0</ele><time>2026-04-02T16:14:37.968Z</time></trkpt><trkpt lat="43.8508685" lon="11.1940069"><ele>231.0</ele><time>2026-04-02T16:14:40.968Z</time></trkpt><trkpt lat="43.8509411" lon="11.194005"><ele>231.0</ele><time>2026-04-02T16:14:42.969Z</time></trkpt><trkpt lat="43.8510328" lon="11.1939668"><ele>231.0</ele><time>2026-04-02T16:14:45.971Z</time></trkpt><trkpt lat="43.8511141" lon="11.1939731"><ele>231.0</ele><time>2026-04-02T16:14:47.969Z</time></trkpt><trkpt lat="43.8512072" lon="11.1939552"><ele>231.0</ele><time>2026-04-02T16:14:49.971Z</time></trkpt><trkpt lat="43.851279" lon="11.1939603"><ele>230.83333333333334</ele><time>2026-04-02T16:14:50.973Z</time></trkpt><trkpt lat="43.8513628" lon="11.1939824"><ele>230.66666666666669</ele><time>2026-04-02T16:14:51.972Z</time></trkpt><trkpt lat="43.8514409" lon="11.1940089"><ele>230.5</ele><time>2026-04-02T16:14:52.971Z</time></trkpt><trkpt lat="43.8515251" lon="11.1940374"><ele>230.33333333333334</ele><time>2026-04-02T16:14:53.967Z</time></trkpt><trkpt lat="43.8516145" lon="11.1940777"><ele>230.16666666666669</ele><time>2026-04-02T16:14:54.969Z</time></trkpt><trkpt lat="43.8517099" lon="11.194121"><ele>230.0</ele><time>2026-04-02T16:14:55.967Z</time></trkpt><trkpt lat="43.8518021" lon="11.1941703"><ele>232.50000000000003</ele><time>2026-04-02T16:14:56.97Z</time></trkpt><trkpt lat="43.8518905" lon="11.194211"><ele>235.0</ele><time>2026-04-02T16:14:57.97Z</time></trkpt><trkpt lat="43.8519744" lon="11.1942517"><ele>237.5</ele><time>2026-04-02T16:14:58.957Z</time></trkpt><trkpt lat="43.8520451" lon="11.1943049"><ele>240.0</ele><time>2026-04-02T16:14:59.971Z</time></trkpt><trkpt lat="43.8521129" lon="11.1943629"><ele>242.50000000000003</ele><time>2026-04-02T16:15:00.961Z</time></trkpt><trkpt lat="43.8521695" lon="11.1944206"><ele>245.0</ele><time>2026-04-02T16:15:01.966Z</time></trkpt><trkpt lat="43.8522611" lon="11.194525"><ele>245.00000000000003</ele><time>2026-04-02T16:15:03.972Z</time></trkpt><trkpt lat="43.8523397" lon="11.1945898"><ele>245.0</ele><time>2026-04-02T16:15:05.965Z</time></trkpt><trkpt lat="43.8523966" lon="11.1946632"><ele>245.0</ele><time>2026-04-02T16:15:07.97Z</time></trkpt><trkpt lat="43.8524609" lon="11.1947317"><ele>245.0</ele><time>2026-04-02T16:15:09.96Z</time></trkpt><trkpt lat="43.8525408" lon="11.1947763"><ele>245.00000000000003</ele><time>2026-04-02T16:15:11.973Z</time></trkpt><trkpt lat="43.8526334" lon="11.1948282"><ele>245.0</ele><time>2026-04-02T16:15:13.969Z</time></trkpt><trkpt lat="43.852706" lon="11.1948969"><ele>249.00000000000003</ele><time>2026-04-02T16:15:15.957Z</time></trkpt><trkpt lat="43.8527925" lon="11.1949578"><ele>253.0</ele><time>2026-04-02T16:15:17.967Z</time></trkpt><trkpt lat="43.8528735" lon="11.1949855"><ele>257.0</ele><time>2026-04-02T16:15:19.97Z</time></trkpt><trkpt lat="43.8529404" lon="11.1950306"><ele>261.0</ele><time>2026-04-02T16:15:21.971Z</time></trkpt><trkpt lat="43.8530037" lon="11.195054"><ele>265.0</ele><time>2026-04-02T16:15:24.031Z</time></trkpt><trkpt lat="43.853101" lon="11.1950497"><ele>269.0</ele><time>2026-04-02T16:15:25.963Z</time></trkpt><trkpt lat="43.8531974" lon="11.1950452"><ele>269.0</ele><time>2026-04-02T16:15:27.971Z</time></trkpt><trkpt lat="43.8532746" lon="11.1950476"><ele>269.0</ele><time>2026-04-02T16:15:30.034Z</time></trkpt><trkpt lat="43.8531837" lon="11.1950042"><ele>269.0</ele><time>2026-04-02T16:15:39.029Z</time></trkpt><trkpt lat="43.853114" lon="11.194988"><ele>269.0</ele><time>2026-04-02T16:15:40.959Z</time></trkpt><trkpt lat="43.8530491" lon="11.1949592"><ele>269.0</ele><time>2026-04-02T16:15:42.96Z</time></trkpt><trkpt lat="43.852987" lon="11.1948729"><ele>269.0</ele><time>2026-04-02T16:15:44.959Z</time></trkpt><trkpt lat="43.8528749" lon="11.1947857"><ele>268.1666666666667</ele><time>2026-04-02T16:15:46.962Z</time></trkpt><trkpt lat="43.8527892" lon="11.1947611"><ele>267.33333333333337</ele><time>2026-04-02T16:15:48.034Z</time></trkpt><trkpt lat="43.8527302" lon="11.1947268"><ele>266.5</ele><time>2026-04-02T16:15:49.042Z</time></trkpt><trkpt lat="43.8526615" lon="11.1945807"><ele>265.6666666666667</ele><time>2026-04-02T16:15:50.962Z</time></trkpt><trkpt lat="43.8526098" lon="11.1945104"><ele>264.8333333333333</ele><time>2026-04-02T16:15:51.957Z</time></trkpt><trkpt lat="43.8525496" lon="11.1944739"><ele>264.0</ele><time>2026-04-02T16:15:52.953Z</time></trkpt><trkpt lat="43.8524792" lon="11.1944473"><ele>260.8333333333333</ele><time>2026-04-02T16:15:53.957Z</time></trkpt><trkpt lat="43.8524048" lon="11.1944256"><ele>257.6666666666667</ele><time>2026-04-02T16:15:54.958Z</time></trkpt><trkpt lat="43.8523292" lon="11.1944097"><ele>254.5</ele><time>2026-04-02T16:15:55.953Z</time></trkpt><trkpt lat="43.8522525" lon="11.1943779"><ele>251.33333333333334</ele><time>2026-04-02T16:15:57.03Z</time></trkpt><trkpt lat="43.8521841" lon="11.1943442"><ele>248.16666666666669</ele><time>2026-04-02T16:15:58.041Z</time></trkpt><trkpt lat="43.8520729" lon="11.1943012"><ele>245.0</ele><time>2026-04-02T16:15:59.951Z</time></trkpt><trkpt lat="43.852007" lon="11.1942759"><ele>245.00000000000003</ele><time>2026-04-02T16:16:00.956Z</time></trkpt><trkpt lat="43.851927" lon="11.194224"><ele>245.0</ele><time>2026-04-02T16:16:02.948Z</time></trkpt><trkpt lat="43.8518367" lon="11.1941656"><ele>245.0</ele><time>2026-04-02T16:16:04.979Z</time></trkpt><trkpt lat="43.8517682" lon="11.1941383"><ele>245.0</ele><time>2026-04-02T16:16:05.956Z</time></trkpt><trkpt lat="43.8516954" lon="11.194108"><ele>245.00000000000003</ele><time>2026-04-02T16:16:06.957Z</time></trkpt><trkpt lat="43.851612" lon="11.1940624"><ele>245.0</ele><time>2026-04-02T16:16:07.96Z</time></trkpt><trkpt lat="43.8515384" lon="11.1940251"><ele>242.85714285714286</ele><time>2026-04-02T16:16:08.952Z</time></trkpt><trkpt lat="43.8514613" lon="11.1939894"><ele>240.71428571428572</ele><time>2026-04-02T16:16:09.953Z</time></trkpt><trkpt lat="43.8513875" lon="11.1939515"><ele>238.57142857142856</ele><time>2026-04-02T16:16:10.954Z</time></trkpt><trkpt lat="43.8513241" lon="11.1939091"><ele>236.42857142857142</ele><time>2026-04-02T16:16:11.956Z</time></trkpt><trkpt lat="43.8512628" lon="11.1938505"><ele>234.28571428571428</ele><time>2026-04-02T16:16:12.958Z</time></trkpt><trkpt lat="43.8512175" lon="11.1937881"><ele>232.1428571428571</ele><time>2026-04-02T16:16:13.955Z</time></trkpt><trkpt lat="43.8511737" lon="11.1937221"><ele>229.99999999999997</ele><time>2026-04-02T16:16:14.957Z</time></trkpt><trkpt lat="43.8511349" lon="11.1936484"><ele>230.00000000000003</ele><time>2026-04-02T16:16:15.953Z</time></trkpt><trkpt lat="43.8510991" lon="11.1935597"><ele>230.0</ele><time>2026-04-02T16:16:16.958Z</time></trkpt><trkpt lat="43.8510866" lon="11.1934343"><ele>230.0</ele><time>2026-04-02T16:16:18.956Z</time></trkpt><trkpt lat="43.851104" lon="11.193343"><ele>230.0</ele><time>2026-04-02T16:16:20.952Z</time></trkpt><trkpt lat="43.8511651" lon="11.1932881"><ele>230.00000000000003</ele><time>2026-04-02T16:16:23.952Z</time></trkpt><trkpt lat="43.8512524" lon="11.1932803"><ele>230.0</ele><time>2026-04-02T16:16:26.95Z</time></trkpt><trkpt lat="43.8513284" lon="11.1932634"><ele>230.00000000000003</ele><time>2026-04-02T16:16:29.957Z</time></trkpt><trkpt lat="43.8513926" lon="11.1932492"><ele>230.0</ele><time>2026-04-02T16:16:31.957Z</time></trkpt><trkpt lat="43.8514702" lon="11.1932289"><ele>230.0</ele><time>2026-04-02T16:16:33.948Z</time></trkpt><trkpt lat="43.8515445" lon="11.1932119"><ele>230.0</ele><time>2026-04-02T16:16:35.951Z</time></trkpt><trkpt lat="43.8516209" lon="11.1931891"><ele>230.00000000000003</ele><time>2026-04-02T16:16:37.954Z</time></trkpt><trkpt lat="43.8517019" lon="11.1931546"><ele>230.0</ele><time>2026-04-02T16:16:39.953Z</time></trkpt><trkpt lat="43.8517904" lon="11.1931378"><ele>228.6</ele><time>2026-04-02T16:16:41.955Z</time></trkpt><trkpt lat="43.8518772" lon="11.1931345"><ele>227.2</ele><time>2026-04-02T16:16:43.951Z</time></trkpt><trkpt lat="43.8519689" lon="11.1930943"><ele>225.8</ele><time>2026-04-02T16:16:45.955Z</time></trkpt><trkpt lat="43.8520425" lon="11.1930111"><ele>224.4</ele><time>2026-04-02T16:16:47.95Z</time></trkpt><trkpt lat="43.8520937" lon="11.1929534"><ele>223.0</ele><time>2026-04-02T16:16:48.959Z</time></trkpt><trkpt lat="43.8521699" lon="11.1928334"><ele>223.0</ele><time>2026-04-02T16:16:50.956Z</time></trkpt><trkpt lat="43.8522386" lon="11.1927234"><ele>223.0</ele><time>2026-04-02T16:16:52.96Z</time></trkpt><trkpt lat="43.8523142" lon="11.1926156"><ele>223.0</ele><time>2026-04-02T16:16:54.959Z</time></trkpt><trkpt lat="43.852401" lon="11.1925354"><ele>223.0</ele><time>2026-04-02T16:16:56.955Z</time></trkpt><trkpt lat="43.8524659" lon="11.1924358"><ele>223.0</ele><time>2026-04-02T16:16:58.956Z</time></trkpt><trkpt lat="43.8525333" lon="11.1923219"><ele>224.2</ele><time>2026-04-02T16:17:00.962Z</time></trkpt><trkpt lat="43.8526111" lon="11.1922254"><ele>225.4</ele><time>2026-04-02T16:17:02.952Z</time></trkpt><trkpt lat="43.8526971" lon="11.1921369"><ele>226.59999999999997</ele><time>2026-04-02T16:17:04.954Z</time></trkpt><trkpt lat="43.8527683" lon="11.1920489"><ele>227.79999999999998</ele><time>2026-04-02T16:17:06.952Z</time></trkpt><trkpt lat="43.8528515" lon="11.1919808"><ele>229.0</ele><time>2026-04-02T16:17:08.959Z</time></trkpt><trkpt lat="43.8529433" lon="11.1919411"><ele>229.0</ele><time>2026-04-02T16:17:10.957Z</time></trkpt><trkpt lat="43.8530337" lon="11.191894"><ele>228.99999999999997</ele><time>2026-04-02T16:17:12.956Z</time></trkpt><trkpt lat="43.8531215" lon="11.1918228"><ele>228.99999999999997</ele><time>2026-04-02T16:17:14.95Z</time></trkpt><trkpt lat="43.8531931" lon="11.1917524"><ele>229.0</ele><time>2026-04-02T16:17:16.954Z</time></trkpt><trkpt lat="43.8532667" lon="11.1916692"><ele>229.0</ele><time>2026-04-02T16:17:18.952Z</time></trkpt><trkpt lat="43.8533049" lon="11.1915716"><ele>230.6</ele><time>2026-04-02T16:17:20.958Z</time></trkpt><trkpt lat="43.85334" lon="11.1914767"><ele>232.2</ele><time>2026-04-02T16:17:22.956Z</time></trkpt><trkpt lat="43.8533894" lon="11.191357"><ele>233.79999999999998</ele><time>2026-04-02T16:17:24.956Z</time></trkpt><trkpt lat="43.8534308" lon="11.1912279"><ele>235.39999999999998</ele><time>2026-04-02T16:17:26.957Z</time></trkpt><trkpt lat="43.8534654" lon="11.1910931"><ele>237.0</ele><time>2026-04-02T16:17:28.955Z</time></trkpt><trkpt lat="43.8535036" lon="11.1909443"><ele>237.0</ele><time>2026-04-02T16:17:30.947Z</time></trkpt><trkpt lat="43.8535191" lon="11.1908589"><ele>237.0</ele><time>2026-04-02T16:17:31.957Z</time></trkpt><trkpt lat="43.8535414" lon="11.1906956"><ele>237.0</ele><time>2026-04-02T16:17:33.958Z</time></trkpt><trkpt lat="43.8535705" lon="11.1905494"><ele>237.0</ele><time>2026-04-02T16:17:35.95Z</time></trkpt><trkpt lat="43.8536454" lon="11.1905044"><ele>237.0</ele><time>2026-04-02T16:18:14.956Z</time></trkpt><trkpt lat="43.8537007" lon="11.1904435"><ele>237.0</ele><time>2026-04-02T16:18:17.952Z</time></trkpt><trkpt lat="43.8537571" lon="11.1903895"><ele>234.16666666666666</ele><time>2026-04-02T16:18:19.959Z</time></trkpt><trkpt lat="43.8538136" lon="11.1903125"><ele>231.33333333333331</ele><time>2026-04-02T16:18:21.955Z</time></trkpt><trkpt lat="43.8538752" lon="11.1902439"><ele>228.5</ele><time>2026-04-02T16:18:23.954Z</time></trkpt><trkpt lat="43.8539831" lon="11.190177"><ele>225.66666666666666</ele><time>2026-04-02T16:18:25.952Z</time></trkpt><trkpt lat="43.8540426" lon="11.1901432"><ele>222.83333333333331</ele><time>2026-04-02T16:18:26.956Z</time></trkpt><trkpt lat="43.8541067" lon="11.1901348"><ele>220.0</ele><time>2026-04-02T16:18:27.956Z</time></trkpt><trkpt lat="43.8542007" lon="11.19012"><ele>221.33333333333331</ele><time>2026-04-02T16:18:29.952Z</time></trkpt><trkpt lat="43.8542915" lon="11.190117"><ele>222.66666666666666</ele><time>2026-04-02T16:18:31.953Z</time></trkpt><trkpt lat="43.8543847" lon="11.1901209"><ele>224.0</ele><time>2026-04-02T16:18:33.961Z</time></trkpt><trkpt lat="43.8544717" lon="11.190128"><ele>225.33333333333331</ele><time>2026-04-02T16:18:35.961Z</time></trkpt><trkpt lat="43.8545645" lon="11.1901446"><ele>226.66666666666666</ele><time>2026-04-02T16:18:37.957Z</time></trkpt><trkpt lat="43.8546271" lon="11.1901548"><ele>228.0</ele><time>2026-04-02T16:18:38.955Z</time></trkpt><trkpt lat="43.8547108" lon="11.1901768"><ele>228.0</ele><time>2026-04-02T16:18:40.952Z</time></trkpt><trkpt lat="43.8547776" lon="11.1901915"><ele>228.0</ele><time>2026-04-02T16:18:42.953Z</time></trkpt><trkpt lat="43.8548539" lon="11.1902254"><ele>228.0</ele><time>2026-04-02T16:18:44.949Z</time></trkpt><trkpt lat="43.8549353" lon="11.1902376"><ele>228.0</ele><time>2026-04-02T16:18:46.956Z</time></trkpt><trkpt lat="43.8549978" lon="11.190264"><ele>228.0</ele><time>2026-04-02T16:18:48.96Z</time></trkpt><trkpt lat="43.8550724" lon="11.190301"><ele>228.0</ele><time>2026-04-02T16:18:50.957Z</time></trkpt><trkpt lat="43.8551598" lon="11.1903193"><ele>227.42857142857142</ele><time>2026-04-02T16:18:52.956Z</time></trkpt><trkpt lat="43.8552276" lon="11.190364"><ele>226.85714285714283</ele><time>2026-04-02T16:18:54.961Z</time></trkpt><trkpt lat="43.8552811" lon="11.1904134"><ele>226.28571428571428</ele><time>2026-04-02T16:18:56.952Z</time></trkpt><trkpt lat="43.8553478" lon="11.1904352"><ele>225.71428571428572</ele><time>2026-04-02T16:18:58.956Z</time></trkpt><trkpt lat="43.8554147" lon="11.1904633"><ele>225.14285714285714</ele><time>2026-04-02T16:19:00.958Z</time></trkpt><trkpt lat="43.8554893" lon="11.1905019"><ele>224.57142857142856</ele><time>2026-04-02T16:19:02.957Z</time></trkpt><trkpt lat="43.8555709" lon="11.1905401"><ele>224.0</ele><time>2026-04-02T16:19:04.949Z</time></trkpt><trkpt lat="43.8556729" lon="11.1906264"><ele>223.39999999999998</ele><time>2026-04-02T16:19:06.956Z</time></trkpt><trkpt lat="43.855785" lon="11.1907403"><ele>222.79999999999998</ele><time>2026-04-02T16:19:08.959Z</time></trkpt><trkpt lat="43.8558452" lon="11.1907946"><ele>222.20000000000002</ele><time>2026-04-02T16:19:09.949Z</time></trkpt><trkpt lat="43.8559018" lon="11.1908373"><ele>221.60000000000002</ele><time>2026-04-02T16:19:10.958Z</time></trkpt><trkpt lat="43.8560138" lon="11.1909324"><ele>221.0</ele><time>2026-04-02T16:19:12.953Z</time></trkpt><trkpt lat="43.8560693" lon="11.1909913"><ele>221.00000000000003</ele><time>2026-04-02T16:19:13.956Z</time></trkpt><trkpt lat="43.856136" lon="11.1910622"><ele>221.0</ele><time>2026-04-02T16:19:14.953Z</time></trkpt><trkpt lat="43.856204" lon="11.1911411"><ele>221.0</ele><time>2026-04-02T16:19:15.956Z</time></trkpt><trkpt lat="43.8562608" lon="11.1912234"><ele>221.0</ele><time>2026-04-02T16:19:16.96Z</time></trkpt><trkpt lat="43.8563065" lon="11.1912998"><ele>221.00000000000003</ele><time>2026-04-02T16:19:17.952Z</time></trkpt><trkpt lat="43.8563515" lon="11.1913675"><ele>221.0</ele><time>2026-04-02T16:19:18.957Z</time></trkpt><trkpt lat="43.8564011" lon="11.191436"><ele>221.00000000000003</ele><time>2026-04-02T16:19:19.954Z</time></trkpt><trkpt lat="43.8564489" lon="11.1915035"><ele>221.0</ele><time>2026-04-02T16:19:20.957Z</time></trkpt><trkpt lat="43.856492" lon="11.1915834"><ele>221.0</ele><time>2026-04-02T16:19:21.957Z</time></trkpt><trkpt lat="43.8565396" lon="11.1916571"><ele>221.0</ele><time>2026-04-02T16:19:22.958Z</time></trkpt><trkpt lat="43.8566173" lon="11.1917929"><ele>221.00000000000003</ele><time>2026-04-02T16:19:24.96Z</time></trkpt><trkpt lat="43.8566742" lon="11.1919014"><ele>221.0</ele><time>2026-04-02T16:19:26.963Z</time></trkpt><trkpt lat="43.8567451" lon="11.1919956"><ele>222.16666666666669</ele><time>2026-04-02T16:19:28.953Z</time></trkpt><trkpt lat="43.8568116" lon="11.1920706"><ele>223.33333333333334</ele><time>2026-04-02T16:19:30.96Z</time></trkpt><trkpt lat="43.856865" lon="11.1921455"><ele>224.5</ele><time>2026-04-02T16:19:32.958Z</time></trkpt><trkpt lat="43.8569263" lon="11.1922221"><ele>225.66666666666669</ele><time>2026-04-02T16:19:34.958Z</time></trkpt><trkpt lat="43.8569916" lon="11.1923043"><ele>226.83333333333334</ele><time>2026-04-02T16:19:36.956Z</time></trkpt><trkpt lat="43.8570688" lon="11.1923856"><ele>228.0</ele><time>2026-04-02T16:19:38.962Z</time></trkpt><trkpt lat="43.8571497" lon="11.192494"><ele>228.0</ele><time>2026-04-02T16:19:40.953Z</time></trkpt><trkpt lat="43.8572248" lon="11.1925477"><ele>228.0</ele><time>2026-04-02T16:19:42.956Z</time></trkpt><trkpt lat="43.8572993" lon="11.1925701"><ele>228.0</ele><time>2026-04-02T16:19:44.956Z</time></trkpt><trkpt lat="43.8573704" lon="11.1925952"><ele>228.0</ele><time>2026-04-02T16:19:46.958Z</time></trkpt><trkpt lat="43.857466" lon="11.1926683"><ele>228.0</ele><time>2026-04-02T16:19:48.957Z</time></trkpt><trkpt lat="43.8575412" lon="11.1927275"><ele>228.0</ele><time>2026-04-02T16:19:50.957Z</time></trkpt><trkpt lat="43.8576329" lon="11.1927818"><ele>224.83333333333334</ele><time>2026-04-02T16:19:52.952Z</time></trkpt><trkpt lat="43.8576996" lon="11.1928281"><ele>221.66666666666669</ele><time>2026-04-02T16:19:53.954Z</time></trkpt><trkpt lat="43.8577651" lon="11.1928736"><ele>218.5</ele><time>2026-04-02T16:19:54.957Z</time></trkpt><trkpt lat="43.8578319" lon="11.1929272"><ele>215.33333333333334</ele><time>2026-04-02T16:19:55.958Z</time></trkpt><trkpt lat="43.8578984" lon="11.1929842"><ele>212.16666666666669</ele><time>2026-04-02T16:19:56.95Z</time></trkpt><trkpt lat="43.857958" lon="11.1930408"><ele>209.0</ele><time>2026-04-02T16:19:57.953Z</time></trkpt><trkpt lat="43.8580212" lon="11.1930955"><ele>209.0</ele><time>2026-04-02T16:19:58.962Z</time></trkpt><trkpt lat="43.8580788" lon="11.1931605"><ele>209.0</ele><time>2026-04-02T16:19:59.957Z</time></trkpt><trkpt lat="43.8581333" lon="11.1932231"><ele>209.0</ele><time>2026-04-02T16:20:00.958Z</time></trkpt><trkpt lat="43.8581854" lon="11.1932897"><ele>209.0</ele><time>2026-04-02T16:20:01.949Z</time></trkpt><trkpt lat="43.8582348" lon="11.193352"><ele>209.0</ele><time>2026-04-02T16:20:02.956Z</time></trkpt><trkpt lat="43.8582844" lon="11.1934149"><ele>209.0</ele><time>2026-04-02T16:20:03.955Z</time></trkpt><trkpt lat="43.858328" lon="11.193494"><ele>209.0</ele><time>2026-04-02T16:20:04.954Z</time></trkpt><trkpt lat="43.8583749" lon="11.1935632"><ele>208.39999999999998</ele><time>2026-04-02T16:20:05.963Z</time></trkpt><trkpt lat="43.8584181" lon="11.1936346"><ele>207.8</ele><time>2026-04-02T16:20:06.957Z</time></trkpt><trkpt lat="43.8585029" lon="11.1937454"><ele>207.2</ele><time>2026-04-02T16:20:08.952Z</time></trkpt><trkpt lat="43.8585928" lon="11.193846"><ele>206.60000000000002</ele><time>2026-04-02T16:20:10.96Z</time></trkpt><trkpt lat="43.8586403" lon="11.193905"><ele>206.0</ele><time>2026-04-02T16:20:11.952Z</time></trkpt><trkpt lat="43.8587372" lon="11.1940304"><ele>208.66666666666669</ele><time>2026-04-02T16:20:13.954Z</time></trkpt><trkpt lat="43.8587805" lon="11.194101"><ele>211.33333333333334</ele><time>2026-04-02T16:20:15.035Z</time></trkpt><trkpt lat="43.8588273" lon="11.1941634"><ele>214.0</ele><time>2026-04-02T16:20:15.949Z</time></trkpt><trkpt lat="43.8589219" lon="11.194287"><ele>216.66666666666669</ele><time>2026-04-02T16:20:17.949Z</time></trkpt><trkpt lat="43.8589689" lon="11.1943662"><ele>219.33333333333334</ele><time>2026-04-02T16:20:18.952Z</time></trkpt><trkpt lat="43.8590089" lon="11.1944363"><ele>222.0</ele><time>2026-04-02T16:20:19.947Z</time></trkpt><trkpt lat="43.8591038" lon="11.1945369"><ele>222.0</ele><time>2026-04-02T16:20:22.035Z</time></trkpt><trkpt lat="43.8591888" lon="11.1946525"><ele>222.0</ele><time>2026-04-02T16:20:23.955Z</time></trkpt><trkpt lat="43.8592668" lon="11.1947899"><ele>222.0</ele><time>2026-04-02T16:20:25.954Z</time></trkpt><trkpt lat="43.8593053" lon="11.1948671"><ele>222.0</ele><time>2026-04-02T16:20:26.951Z</time></trkpt><trkpt lat="43.859366" lon="11.1950274"><ele>222.0</ele><time>2026-04-02T16:20:29.033Z</time></trkpt><trkpt lat="43.859393" lon="11.1951103"><ele>220.66666666666666</ele><time>2026-04-02T16:20:29.982Z</time></trkpt><trkpt lat="43.8594135" lon="11.1952258"><ele>219.33333333333331</ele><time>2026-04-02T16:20:31.955Z</time></trkpt><trkpt lat="43.8594455" lon="11.1953341"><ele>218.0</ele><time>2026-04-02T16:20:34.959Z</time></trkpt><trkpt lat="43.8594694" lon="11.1954292"><ele>216.66666666666666</ele><time>2026-04-02T16:20:36.958Z</time></trkpt><trkpt lat="43.8594971" lon="11.1955427"><ele>215.33333333333331</ele><time>2026-04-02T16:20:38.964Z</time></trkpt><trkpt lat="43.8595084" lon="11.195663"><ele>214.0</ele><time>2026-04-02T16:20:40.96Z</time></trkpt><trkpt lat="43.8595436" lon="11.1957833"><ele>214.0</ele><time>2026-04-02T16:20:42.961Z</time></trkpt><trkpt lat="43.8595985" lon="11.1959231"><ele>213.99999999999997</ele><time>2026-04-02T16:20:45.01Z</time></trkpt><trkpt lat="43.859666" lon="11.1960413"><ele>213.99999999999997</ele><time>2026-04-02T16:20:46.953Z</time></trkpt><trkpt lat="43.8597309" lon="11.196162"><ele>214.0</ele><time>2026-04-02T16:20:48.956Z</time></trkpt><trkpt lat="43.8598046" lon="11.196264"><ele>214.0</ele><time>2026-04-02T16:20:50.955Z</time></trkpt><trkpt lat="43.8598634" lon="11.1963567"><ele>213.99999999999997</ele><time>2026-04-02T16:20:52.956Z</time></trkpt><trkpt lat="43.8599088" lon="11.1964318"><ele>214.0</ele><time>2026-04-02T16:20:54.957Z</time></trkpt><trkpt lat="43.8599541" lon="11.1964939"><ele>214.0</ele><time>2026-04-02T16:20:56.958Z</time></trkpt><trkpt lat="43.8600076" lon="11.1965785"><ele>214.0</ele><time>2026-04-02T16:20:59.951Z</time></trkpt><trkpt lat="43.8600475" lon="11.1966727"><ele>213.99999999999997</ele><time>2026-04-02T16:21:02.947Z</time></trkpt><trkpt lat="43.8600805" lon="11.1967791"><ele>214.0</ele><time>2026-04-02T16:21:05.96Z</time></trkpt><trkpt lat="43.860115" lon="11.1969089"><ele>215.83333333333331</ele><time>2026-04-02T16:21:07.961Z</time></trkpt><trkpt lat="43.8601268" lon="11.1970588"><ele>217.66666666666666</ele><time>2026-04-02T16:21:09.958Z</time></trkpt><trkpt lat="43.860129" lon="11.1971928"><ele>219.5</ele><time>2026-04-02T16:21:11.958Z</time></trkpt><trkpt lat="43.8601096" lon="11.1972927"><ele>221.33333333333331</ele><time>2026-04-02T16:21:13.959Z</time></trkpt><trkpt lat="43.8600928" lon="11.1973785"><ele>223.16666666666666</ele><time>2026-04-02T16:21:15.956Z</time></trkpt><trkpt lat="43.8600859" lon="11.1974844"><ele>225.0</ele><time>2026-04-02T16:21:18.942Z</time></trkpt><trkpt lat="43.860072" lon="11.197589"><ele>225.00000000000003</ele><time>2026-04-02T16:21:21.95Z</time></trkpt><trkpt lat="43.86006" lon="11.1976748"><ele>225.0</ele><time>2026-04-02T16:21:24.953Z</time></trkpt><trkpt lat="43.8600525" lon="11.197782"><ele>225.00000000000003</ele><time>2026-04-02T16:21:28.958Z</time></trkpt><trkpt lat="43.8600251" lon="11.1978652"><ele>225.00000000000003</ele><time>2026-04-02T16:21:31.95Z</time></trkpt><trkpt lat="43.859985" lon="11.1979436"><ele>225.0</ele><time>2026-04-02T16:21:34.96Z</time></trkpt><trkpt lat="43.8599105" lon="11.1980151"><ele>225.00000000000003</ele><time>2026-04-02T16:21:37.957Z</time></trkpt><trkpt lat="43.8598549" lon="11.1980865"><ele>225.00000000000003</ele><time>2026-04-02T16:21:39.953Z</time></trkpt><trkpt lat="43.8598146" lon="11.1981853"><ele>224.14285714285717</ele><time>2026-04-02T16:21:41.959Z</time></trkpt><trkpt lat="43.859774" lon="11.1983069"><ele>223.28571428571428</ele><time>2026-04-02T16:21:43.955Z</time></trkpt><trkpt lat="43.8597455" lon="11.1983914"><ele>222.42857142857144</ele><time>2026-04-02T16:21:44.954Z</time></trkpt><trkpt lat="43.8597096" lon="11.1984957"><ele>221.57142857142858</ele><time>2026-04-02T16:21:46.957Z</time></trkpt><trkpt lat="43.859681" lon="11.198576"><ele>220.71428571428572</ele><time>2026-04-02T16:21:49.953Z</time></trkpt><trkpt lat="43.8596349" lon="11.1986425"><ele>219.85714285714286</ele><time>2026-04-02T16:22:23.041Z</time></trkpt><trkpt lat="43.8595914" lon="11.1987149"><ele>219.0</ele><time>2026-04-02T16:22:49.949Z</time></trkpt><trkpt lat="43.8595922" lon="11.1988042"><ele>219.0</ele><time>2026-04-02T16:23:15.951Z</time></trkpt><trkpt lat="43.8595878" lon="11.1989527"><ele>219.0</ele><time>2026-04-02T16:23:31.952Z</time></trkpt><trkpt lat="43.8596106" lon="11.1990384"><ele>219.0</ele><time>2026-04-02T16:23:39.952Z</time></trkpt><trkpt lat="43.8595877" lon="11.1989376"><ele>219.0</ele><time>2026-04-02T16:24:21.872Z</time></trkpt><trkpt lat="43.8595833" lon="11.1988468"><ele>219.0</ele><time>2026-04-02T16:25:20.937Z</time></trkpt><trkpt lat="43.859583" lon="11.1987467"><ele>219.0</ele><time>2026-04-02T16:26:49.953Z</time></trkpt><trkpt lat="43.8596185" lon="11.1986712"><ele>219.0</ele><time>2026-04-02T16:28:44.941Z</time></trkpt><trkpt lat="43.8596403" lon="11.19858"><ele>219.0</ele><time>2026-04-02T16:28:48.943Z</time></trkpt><trkpt lat="43.8596775" lon="11.1984785"><ele>219.0</ele><time>2026-04-02T16:28:51.939Z</time></trkpt><trkpt lat="43.8597148" lon="11.1983762"><ele>219.0</ele><time>2026-04-02T16:28:54.942Z</time></trkpt><trkpt lat="43.8597652" lon="11.1982913"><ele>219.0</ele><time>2026-04-02T16:28:57.948Z</time></trkpt><trkpt lat="43.8598089" lon="11.1982173"><ele>219.0</ele><time>2026-04-02T16:29:00.936Z</time></trkpt><trkpt lat="43.8598518" lon="11.198117"><ele>220.0</ele><time>2026-04-02T16:29:09.951Z</time></trkpt><trkpt lat="43.8598826" lon="11.198032"><ele>221.0</ele><time>2026-04-02T16:29:13.952Z</time></trkpt><trkpt lat="43.8599044" lon="11.1979237"><ele>222.0</ele><time>2026-04-02T16:29:17.953Z</time></trkpt><trkpt lat="43.8599028" lon="11.1978139"><ele>223.0</ele><time>2026-04-02T16:29:21.95Z</time></trkpt><trkpt lat="43.8599109" lon="11.1977258"><ele>224.0</ele><time>2026-04-02T16:29:24.953Z</time></trkpt><trkpt lat="43.8599209" lon="11.1976175"><ele>225.0</ele><time>2026-04-02T16:29:27.953Z</time></trkpt><trkpt lat="43.8599387" lon="11.1974894"><ele>225.0</ele><time>2026-04-02T16:29:30.943Z</time></trkpt><trkpt lat="43.8599372" lon="11.1973852"><ele>225.0</ele><time>2026-04-02T16:29:32.952Z</time></trkpt><trkpt lat="43.859946" lon="11.1971848"><ele>225.0</ele><time>2026-04-02T16:29:34.955Z</time></trkpt><trkpt lat="43.8599309" lon="11.1970728"><ele>225.0</ele><time>2026-04-02T16:29:35.958Z</time></trkpt><trkpt lat="43.8599312" lon="11.1969639"><ele>225.0</ele><time>2026-04-02T16:29:37.948Z</time></trkpt><trkpt lat="43.8599455" lon="11.1968457"><ele>225.00000000000003</ele><time>2026-04-02T16:29:39.977Z</time></trkpt><trkpt lat="43.8599363" lon="11.196754"><ele>225.0</ele><time>2026-04-02T16:29:41.947Z</time></trkpt><trkpt lat="43.8598932" lon="11.1966525"><ele>225.00000000000003</ele><time>2026-04-02T16:29:44.956Z</time></trkpt><trkpt lat="43.8598715" lon="11.1965683"><ele>225.00000000000003</ele><time>2026-04-02T16:29:47.953Z</time></trkpt><trkpt lat="43.8598412" lon="11.1964757"><ele>225.0</ele><time>2026-04-02T16:29:49.954Z</time></trkpt><trkpt lat="43.8598045" lon="11.1963919"><ele>225.00000000000003</ele><time>2026-04-02T16:29:51.951Z</time></trkpt><trkpt lat="43.8597557" lon="11.1963145"><ele>225.00000000000003</ele><time>2026-04-02T16:29:53.949Z</time></trkpt><trkpt lat="43.8596927" lon="11.1962448"><ele>223.16666666666666</ele><time>2026-04-02T16:29:55.948Z</time></trkpt><trkpt lat="43.8596318" lon="11.196163"><ele>221.33333333333331</ele><time>2026-04-02T16:29:57.955Z</time></trkpt><trkpt lat="43.8595834" lon="11.196054"><ele>219.5</ele><time>2026-04-02T16:29:59.943Z</time></trkpt><trkpt lat="43.8595539" lon="11.1959312"><ele>217.66666666666666</ele><time>2026-04-02T16:30:01.953Z</time></trkpt><trkpt lat="43.8595324" lon="11.1958219"><ele>215.83333333333331</ele><time>2026-04-02T16:30:03.952Z</time></trkpt><trkpt lat="43.8595108" lon="11.195722"><ele>214.0</ele><time>2026-04-02T16:30:05.951Z</time></trkpt><trkpt lat="43.8594856" lon="11.1956263"><ele>213.49999999999997</ele><time>2026-04-02T16:30:07.952Z</time></trkpt><trkpt lat="43.8594685" lon="11.1954976"><ele>213.0</ele><time>2026-04-02T16:30:10.953Z</time></trkpt><trkpt lat="43.8594446" lon="11.1953931"><ele>212.5</ele><time>2026-04-02T16:30:12.953Z</time></trkpt><trkpt lat="43.8594068" lon="11.1952681"><ele>212.0</ele><time>2026-04-02T16:30:14.952Z</time></trkpt><trkpt lat="43.8593767" lon="11.1951839"><ele>211.49999999999997</ele><time>2026-04-02T16:30:15.952Z</time></trkpt><trkpt lat="43.8593462" lon="11.1951031"><ele>211.0</ele><time>2026-04-02T16:30:16.947Z</time></trkpt><trkpt lat="43.8593175" lon="11.1950223"><ele>213.20000000000002</ele><time>2026-04-02T16:30:17.954Z</time></trkpt><trkpt lat="43.8592811" lon="11.1949435"><ele>215.4</ele><time>2026-04-02T16:30:18.951Z</time></trkpt><trkpt lat="43.8592468" lon="11.1948661"><ele>217.6</ele><time>2026-04-02T16:30:19.946Z</time></trkpt><trkpt lat="43.8591914" lon="11.1947331"><ele>219.8</ele><time>2026-04-02T16:30:21.939Z</time></trkpt><trkpt lat="43.8591149" lon="11.1946136"><ele>222.0</ele><time>2026-04-02T16:30:23.944Z</time></trkpt><trkpt lat="43.8590467" lon="11.1945184"><ele>222.0</ele><time>2026-04-02T16:30:25.947Z</time></trkpt><trkpt lat="43.858982" lon="11.1944217"><ele>222.0</ele><time>2026-04-02T16:30:27.949Z</time></trkpt><trkpt lat="43.8589113" lon="11.1943218"><ele>222.0</ele><time>2026-04-02T16:30:29.944Z</time></trkpt><trkpt lat="43.8588205" lon="11.1942126"><ele>222.0</ele><time>2026-04-02T16:30:31.952Z</time></trkpt><trkpt lat="43.8587339" lon="11.1941206"><ele>222.0</ele><time>2026-04-02T16:30:33.947Z</time></trkpt><trkpt lat="43.8586562" lon="11.1940361"><ele>222.83333333333334</ele><time>2026-04-02T16:30:35.939Z</time></trkpt><trkpt lat="43.8585978" lon="11.1939896"><ele>223.66666666666669</ele><time>2026-04-02T16:30:36.945Z</time></trkpt><trkpt lat="43.8585455" lon="11.1939368"><ele>224.5</ele><time>2026-04-02T16:30:37.95Z</time></trkpt><trkpt lat="43.8584618" lon="11.1938333"><ele>225.33333333333334</ele><time>2026-04-02T16:30:39.95Z</time></trkpt><trkpt lat="43.8583855" lon="11.1937247"><ele>226.16666666666669</ele><time>2026-04-02T16:30:41.939Z</time></trkpt><trkpt lat="43.8583475" lon="11.1936501"><ele>227.0</ele><time>2026-04-02T16:30:42.952Z</time></trkpt><trkpt lat="43.8583105" lon="11.1935758"><ele>227.00000000000003</ele><time>2026-04-02T16:30:43.943Z</time></trkpt><trkpt lat="43.8582754" lon="11.1935027"><ele>227.0</ele><time>2026-04-02T16:30:44.946Z</time></trkpt><trkpt lat="43.8582307" lon="11.1934358"><ele>227.0</ele><time>2026-04-02T16:30:45.952Z</time></trkpt><trkpt lat="43.8581813" lon="11.1933758"><ele>227.0</ele><time>2026-04-02T16:30:46.955Z</time></trkpt><trkpt lat="43.8580951" lon="11.193263"><ele>227.00000000000003</ele><time>2026-04-02T16:30:48.952Z</time></trkpt><trkpt lat="43.858012" lon="11.1931673"><ele>227.0</ele><time>2026-04-02T16:30:50.951Z</time></trkpt><trkpt lat="43.8579591" lon="11.1931179"><ele>227.2</ele><time>2026-04-02T16:30:51.942Z</time></trkpt><trkpt lat="43.8579058" lon="11.1930678"><ele>227.39999999999998</ele><time>2026-04-02T16:30:52.948Z</time></trkpt><trkpt lat="43.857808" lon="11.1930024"><ele>227.60000000000002</ele><time>2026-04-02T16:30:54.977Z</time></trkpt><trkpt lat="43.8577057" lon="11.192916"><ele>227.8</ele><time>2026-04-02T16:30:56.957Z</time></trkpt><trkpt lat="43.8576533" lon="11.1928634"><ele>228.0</ele><time>2026-04-02T16:30:57.944Z</time></trkpt><trkpt lat="43.8575494" lon="11.1927862"><ele>228.0</ele><time>2026-04-02T16:30:59.949Z</time></trkpt><trkpt lat="43.857457" lon="11.1927487"><ele>228.0</ele><time>2026-04-02T16:31:01.942Z</time></trkpt><trkpt lat="43.8573682" lon="11.1927117"><ele>228.0</ele><time>2026-04-02T16:31:03.939Z</time></trkpt><trkpt lat="43.857295" lon="11.1926515"><ele>228.0</ele><time>2026-04-02T16:31:05.955Z</time></trkpt><trkpt lat="43.8572196" lon="11.1925534"><ele>228.0</ele><time>2026-04-02T16:31:07.944Z</time></trkpt><trkpt lat="43.8571524" lon="11.1924589"><ele>228.0</ele><time>2026-04-02T16:31:09.952Z</time></trkpt><trkpt lat="43.8570983" lon="11.1923691"><ele>228.0</ele><time>2026-04-02T16:31:11.95Z</time></trkpt><trkpt lat="43.8570371" lon="11.1922859"><ele>228.0</ele><time>2026-04-02T16:31:13.939Z</time></trkpt><trkpt lat="43.8569789" lon="11.1922281"><ele>228.0</ele><time>2026-04-02T16:31:15.945Z</time></trkpt><trkpt lat="43.8569307" lon="11.1921549"><ele>228.0</ele><time>2026-04-02T16:31:17.954Z</time></trkpt><trkpt lat="43.8568701" lon="11.1920533"><ele>228.0</ele><time>2026-04-02T16:31:19.943Z</time></trkpt><trkpt lat="43.856787" lon="11.1919324"><ele>229.0</ele><time>2026-04-02T16:31:21.936Z</time></trkpt><trkpt lat="43.856737" lon="11.1918614"><ele>230.0</ele><time>2026-04-02T16:31:22.943Z</time></trkpt><trkpt lat="43.8566781" lon="11.1917844"><ele>231.0</ele><time>2026-04-02T16:31:23.953Z</time></trkpt><trkpt lat="43.8566248" lon="11.1917144"><ele>232.0</ele><time>2026-04-02T16:31:24.954Z</time></trkpt><trkpt lat="43.856571" lon="11.1916444"><ele>233.0</ele><time>2026-04-02T16:31:25.949Z</time></trkpt><trkpt lat="43.8564843" lon="11.1915278"><ele>234.0</ele><time>2026-04-02T16:31:27.956Z</time></trkpt><trkpt lat="43.8564368" lon="11.1914677"><ele>230.75</ele><time>2026-04-02T16:31:28.949Z</time></trkpt><trkpt lat="43.8563408" lon="11.1913499"><ele>227.5</ele><time>2026-04-02T16:31:30.95Z</time></trkpt><trkpt lat="43.8562707" lon="11.1912626"><ele>224.25</ele><time>2026-04-02T16:31:32.95Z</time></trkpt><trkpt lat="43.856172" lon="11.1911812"><ele>221.0</ele><time>2026-04-02T16:31:34.954Z</time></trkpt><trkpt lat="43.8560615" lon="11.1910942"><ele>221.0</ele><time>2026-04-02T16:31:36.957Z</time></trkpt><trkpt lat="43.8559619" lon="11.1910049"><ele>221.0</ele><time>2026-04-02T16:31:38.948Z</time></trkpt><trkpt lat="43.8558578" lon="11.1909409"><ele>221.0</ele><time>2026-04-02T16:31:40.947Z</time></trkpt><trkpt lat="43.8557545" lon="11.1908637"><ele>221.0</ele><time>2026-04-02T16:31:42.949Z</time></trkpt><trkpt lat="43.8556627" lon="11.1908083"><ele>221.50000000000003</ele><time>2026-04-02T16:31:44.949Z</time></trkpt><trkpt lat="43.8556079" lon="11.1907525"><ele>222.0</ele><time>2026-04-02T16:31:47.95Z</time></trkpt><trkpt lat="43.8555442" lon="11.1906448"><ele>222.5</ele><time>2026-04-02T16:32:16.948Z</time></trkpt><trkpt lat="43.8554875" lon="11.1905596"><ele>223.0</ele><time>2026-04-02T16:32:30.947Z</time></trkpt><trkpt lat="43.8554026" lon="11.1905358"><ele>223.50000000000003</ele><time>2026-04-02T16:32:34.951Z</time></trkpt><trkpt lat="43.8553223" lon="11.1905229"><ele>224.0</ele><time>2026-04-02T16:32:37.958Z</time></trkpt><trkpt lat="43.8552362" lon="11.1904676"><ele>224.00000000000003</ele><time>2026-04-02T16:32:40.953Z</time></trkpt><trkpt lat="43.8551451" lon="11.1904259"><ele>224.0</ele><time>2026-04-02T16:32:43.956Z</time></trkpt><trkpt lat="43.8550575" lon="11.1903863"><ele>224.0</ele><time>2026-04-02T16:32:45.958Z</time></trkpt><trkpt lat="43.8549727" lon="11.1903434"><ele>224.0</ele><time>2026-04-02T16:32:47.958Z</time></trkpt><trkpt lat="43.8548881" lon="11.1903115"><ele>224.00000000000003</ele><time>2026-04-02T16:32:49.957Z</time></trkpt><trkpt lat="43.8548087" lon="11.1902806"><ele>224.0</ele><time>2026-04-02T16:32:51.952Z</time></trkpt><trkpt lat="43.8547233" lon="11.1902556"><ele>224.79999999999998</ele><time>2026-04-02T16:32:53.956Z</time></trkpt><trkpt lat="43.8546283" lon="11.1902155"><ele>225.59999999999997</ele><time>2026-04-02T16:32:55.951Z</time></trkpt><trkpt lat="43.8545335" lon="11.1901925"><ele>226.4</ele><time>2026-04-02T16:32:57.957Z</time></trkpt><trkpt lat="43.8544403" lon="11.1901995"><ele>227.2</ele><time>2026-04-02T16:32:59.957Z</time></trkpt><trkpt lat="43.8543363" lon="11.1902261"><ele>228.0</ele><time>2026-04-02T16:33:01.953Z</time></trkpt><trkpt lat="43.8542175" lon="11.1902639"><ele>226.4</ele><time>2026-04-02T16:33:03.953Z</time></trkpt><trkpt lat="43.8541272" lon="11.1902991"><ele>224.8</ele><time>2026-04-02T16:33:05.954Z</time></trkpt><trkpt lat="43.8540252" lon="11.1903828"><ele>223.2</ele><time>2026-04-02T16:33:07.952Z</time></trkpt><trkpt lat="43.8539154" lon="11.1904454"><ele>221.6</ele><time>2026-04-02T16:33:09.96Z</time></trkpt><trkpt lat="43.8538496" lon="11.1905166"><ele>220.0</ele><time>2026-04-02T16:33:11.956Z</time></trkpt><trkpt lat="43.8538014" lon="11.1906095"><ele>222.83333333333331</ele><time>2026-04-02T16:33:14.955Z</time></trkpt><trkpt lat="43.8537696" lon="11.1906986"><ele>225.66666666666666</ele><time>2026-04-02T16:33:16.953Z</time></trkpt><trkpt lat="43.8537327" lon="11.1907968"><ele>228.5</ele><time>2026-04-02T16:33:18.955Z</time></trkpt><trkpt lat="43.853689" lon="11.1908775"><ele>231.33333333333331</ele><time>2026-04-02T16:33:20.956Z</time></trkpt><trkpt lat="43.8536463" lon="11.1909696"><ele>234.16666666666666</ele><time>2026-04-02T16:33:22.971Z</time></trkpt><trkpt lat="43.8535979" lon="11.1910657"><ele>237.0</ele><time>2026-04-02T16:33:24.959Z</time></trkpt><trkpt lat="43.8535468" lon="11.1911723"><ele>237.0</ele><time>2026-04-02T16:33:26.955Z</time></trkpt><trkpt lat="43.8535017" lon="11.1912541"><ele>237.0</ele><time>2026-04-02T16:33:28.958Z</time></trkpt><trkpt lat="43.8534612" lon="11.1913433"><ele>237.0</ele><time>2026-04-02T16:33:30.95Z</time></trkpt><trkpt lat="43.853415" lon="11.1914247"><ele>237.0</ele><time>2026-04-02T16:33:32.961Z</time></trkpt><trkpt lat="43.8533733" lon="11.1915041"><ele>237.0</ele><time>2026-04-02T16:33:34.963Z</time></trkpt><trkpt lat="43.8533227" lon="11.1915809"><ele>237.0</ele><time>2026-04-02T16:33:36.944Z</time></trkpt><trkpt lat="43.853251" lon="11.1916736"><ele>235.66666666666666</ele><time>2026-04-02T16:33:38.961Z</time></trkpt><trkpt lat="43.8531856" lon="11.1917314"><ele>234.33333333333331</ele><time>2026-04-02T16:33:39.954Z</time></trkpt><trkpt lat="43.8531232" lon="11.1917864"><ele>233.0</ele><time>2026-04-02T16:33:40.953Z</time></trkpt><trkpt lat="43.8530684" lon="11.1918314"><ele>231.66666666666666</ele><time>2026-04-02T16:33:41.958Z</time></trkpt><trkpt lat="43.8529634" lon="11.1919103"><ele>230.33333333333331</ele><time>2026-04-02T16:33:43.952Z</time></trkpt><trkpt lat="43.852905" lon="11.1919532"><ele>229.0</ele><time>2026-04-02T16:33:44.954Z</time></trkpt><trkpt lat="43.8528409" lon="11.1920142"><ele>229.0</ele><time>2026-04-02T16:33:45.963Z</time></trkpt><trkpt lat="43.852743" lon="11.1921079"><ele>229.0</ele><time>2026-04-02T16:33:47.956Z</time></trkpt><trkpt lat="43.8526637" lon="11.1922167"><ele>229.0</ele><time>2026-04-02T16:33:49.956Z</time></trkpt><trkpt lat="43.8525864" lon="11.1923497"><ele>229.0</ele><time>2026-04-02T16:33:51.96Z</time></trkpt><trkpt lat="43.8525144" lon="11.1924914"><ele>227.79999999999998</ele><time>2026-04-02T16:33:53.948Z</time></trkpt><trkpt lat="43.8524321" lon="11.1926126"><ele>226.59999999999997</ele><time>2026-04-02T16:33:55.957Z</time></trkpt><trkpt lat="43.85235" lon="11.1927454"><ele>225.4</ele><time>2026-04-02T16:33:57.953Z</time></trkpt><trkpt lat="43.8523153" lon="11.1928246"><ele>224.2</ele><time>2026-04-02T16:33:58.951Z</time></trkpt><trkpt lat="43.8522702" lon="11.1929078"><ele>223.0</ele><time>2026-04-02T16:33:59.961Z</time></trkpt><trkpt lat="43.8521959" lon="11.1930225"><ele>223.0</ele><time>2026-04-02T16:34:01.957Z</time></trkpt><trkpt lat="43.8521419" lon="11.1930851"><ele>223.0</ele><time>2026-04-02T16:34:02.956Z</time></trkpt><trkpt lat="43.8520323" lon="11.1931378"><ele>223.0</ele><time>2026-04-02T16:34:04.951Z</time></trkpt><trkpt lat="43.8519175" lon="11.1931569"><ele>223.0</ele><time>2026-04-02T16:34:06.957Z</time></trkpt><trkpt lat="43.8518528" lon="11.1931611"><ele>223.0</ele><time>2026-04-02T16:34:07.952Z</time></trkpt><trkpt lat="43.8517391" lon="11.1931917"><ele>224.16666666666666</ele><time>2026-04-02T16:34:09.958Z</time></trkpt><trkpt lat="43.8516327" lon="11.1932516"><ele>225.33333333333331</ele><time>2026-04-02T16:34:11.959Z</time></trkpt><trkpt lat="43.8515444" lon="11.1932835"><ele>226.5</ele><time>2026-04-02T16:34:13.955Z</time></trkpt><trkpt lat="43.8514743" lon="11.1933087"><ele>227.66666666666669</ele><time>2026-04-02T16:34:15.957Z</time></trkpt><trkpt lat="43.8513807" lon="11.1933186"><ele>228.83333333333334</ele><time>2026-04-02T16:34:18.952Z</time></trkpt><trkpt lat="43.8513115" lon="11.1933361"><ele>230.0</ele><time>2026-04-02T16:34:20.955Z</time></trkpt><trkpt lat="43.8512215" lon="11.1933339"><ele>230.00000000000003</ele><time>2026-04-02T16:34:22.96Z</time></trkpt><trkpt lat="43.8511106" lon="11.1933167"><ele>230.0</ele><time>2026-04-02T16:34:24.963Z</time></trkpt><trkpt lat="43.8510459" lon="11.1932973"><ele>230.0</ele><time>2026-04-02T16:34:25.954Z</time></trkpt><trkpt lat="43.8509869" lon="11.1932601"><ele>230.0</ele><time>2026-04-02T16:34:26.947Z</time></trkpt><trkpt lat="43.8509347" lon="11.1932072"><ele>230.00000000000003</ele><time>2026-04-02T16:34:27.957Z</time></trkpt><trkpt lat="43.8508845" lon="11.1931361"><ele>230.0</ele><time>2026-04-02T16:34:28.952Z</time></trkpt><trkpt lat="43.8508288" lon="11.193055"><ele>229.00000000000003</ele><time>2026-04-02T16:34:29.957Z</time></trkpt><trkpt lat="43.8507684" lon="11.1929752"><ele>228.0</ele><time>2026-04-02T16:34:30.96Z</time></trkpt><trkpt lat="43.8507019" lon="11.1928973"><ele>227.0</ele><time>2026-04-02T16:34:31.96Z</time></trkpt><trkpt lat="43.8506297" lon="11.1928179"><ele>226.0</ele><time>2026-04-02T16:34:32.952Z</time></trkpt><trkpt lat="43.8505661" lon="11.1927299"><ele>225.00000000000003</ele><time>2026-04-02T16:34:33.955Z</time></trkpt><trkpt lat="43.8505054" lon="11.1926333"><ele>224.0</ele><time>2026-04-02T16:34:34.961Z</time></trkpt><trkpt lat="43.8504521" lon="11.1925175"><ele>224.0</ele><time>2026-04-02T16:34:35.951Z</time></trkpt><trkpt lat="43.8504033" lon="11.1923775"><ele>223.99999999999997</ele><time>2026-04-02T16:34:36.955Z</time></trkpt><trkpt lat="43.8503586" lon="11.1922434"><ele>223.99999999999997</ele><time>2026-04-02T16:34:37.957Z</time></trkpt><trkpt lat="43.8503058" lon="11.1921233"><ele>224.0</ele><time>2026-04-02T16:34:38.965Z</time></trkpt><trkpt lat="43.8502622" lon="11.19203"><ele>224.0</ele><time>2026-04-02T16:34:39.951Z</time></trkpt><trkpt lat="43.8502029" lon="11.1919536"><ele>223.0</ele><time>2026-04-02T16:34:40.957Z</time></trkpt><trkpt lat="43.8501029" lon="11.1919189"><ele>221.99999999999997</ele><time>2026-04-02T16:34:41.951Z</time></trkpt><trkpt lat="43.8499984" lon="11.1919039"><ele>220.99999999999997</ele><time>2026-04-02T16:34:42.953Z</time></trkpt><trkpt lat="43.8498895" lon="11.1918422"><ele>220.0</ele><time>2026-04-02T16:34:43.957Z</time></trkpt><trkpt lat="43.8497858" lon="11.1917752"><ele>219.0</ele><time>2026-04-02T16:34:44.954Z</time></trkpt><trkpt lat="43.8496643" lon="11.1917002"><ele>219.0</ele><time>2026-04-02T16:34:45.954Z</time></trkpt><trkpt lat="43.8495415" lon="11.1916273"><ele>219.0</ele><time>2026-04-02T16:34:46.954Z</time></trkpt><trkpt lat="43.8494194" lon="11.1915553"><ele>219.0</ele><time>2026-04-02T16:34:47.958Z</time></trkpt><trkpt lat="43.8493031" lon="11.1914968"><ele>219.0</ele><time>2026-04-02T16:34:48.96Z</time></trkpt><trkpt lat="43.8491767" lon="11.1914327"><ele>214.25</ele><time>2026-04-02T16:34:49.956Z</time></trkpt><trkpt lat="43.8490541" lon="11.1913698"><ele>209.5</ele><time>2026-04-02T16:34:50.95Z</time></trkpt><trkpt lat="43.8489402" lon="11.1913031"><ele>204.75</ele><time>2026-04-02T16:34:51.954Z</time></trkpt><trkpt lat="43.8488331" lon="11.1912439"><ele>200.0</ele><time>2026-04-02T16:34:52.954Z</time></trkpt><trkpt lat="43.8487298" lon="11.1911933"><ele>200.0</ele><time>2026-04-02T16:34:53.965Z</time></trkpt><trkpt lat="43.8486324" lon="11.1911535"><ele>200.0</ele><time>2026-04-02T16:34:54.957Z</time></trkpt><trkpt lat="43.8485502" lon="11.1911124"><ele>200.0</ele><time>2026-04-02T16:34:55.956Z</time></trkpt><trkpt lat="43.8484821" lon="11.191077"><ele>200.0</ele><time>2026-04-02T16:34:56.956Z</time></trkpt><trkpt lat="43.8484048" lon="11.191031"><ele>200.0</ele><time>2026-04-02T16:34:58.957Z</time></trkpt><trkpt lat="43.8483998" lon="11.1908813"><ele>198.66666666666669</ele><time>2026-04-02T16:35:01.949Z</time></trkpt><trkpt lat="43.8484235" lon="11.1907944"><ele>197.33333333333334</ele><time>2026-04-02T16:35:02.943Z</time></trkpt><trkpt lat="43.8484433" lon="11.1906183"><ele>196.0</ele><time>2026-04-02T16:35:04.956Z</time></trkpt><trkpt lat="43.8484537" lon="11.190524"><ele>194.66666666666669</ele><time>2026-04-02T16:35:05.959Z</time></trkpt><trkpt lat="43.8484671" lon="11.1904252"><ele>193.33333333333334</ele><time>2026-04-02T16:35:06.959Z</time></trkpt><trkpt lat="43.8484814" lon="11.1903316"><ele>192.0</ele><time>2026-04-02T16:35:07.955Z</time></trkpt><trkpt lat="43.8484966" lon="11.1902281"><ele>192.0</ele><time>2026-04-02T16:35:08.959Z</time></trkpt><trkpt lat="43.8485152" lon="11.1901214"><ele>192.0</ele><time>2026-04-02T16:35:09.956Z</time></trkpt><trkpt lat="43.8485497" lon="11.1900097"><ele>192.0</ele><time>2026-04-02T16:35:10.943Z</time></trkpt><trkpt lat="43.8485837" lon="11.1899033"><ele>192.0</ele><time>2026-04-02T16:35:11.957Z</time></trkpt><trkpt lat="43.8486319" lon="11.1897926"><ele>192.0</ele><time>2026-04-02T16:35:12.95Z</time></trkpt><trkpt lat="43.8486849" lon="11.1896869"><ele>192.0</ele><time>2026-04-02T16:35:13.953Z</time></trkpt><trkpt lat="43.8487484" lon="11.1895735"><ele>187.5</ele><time>2026-04-02T16:35:14.956Z</time></trkpt><trkpt lat="43.8488188" lon="11.1894522"><ele>183.0</ele><time>2026-04-02T16:35:15.963Z</time></trkpt><trkpt lat="43.8488989" lon="11.1893347"><ele>178.5</ele><time>2026-04-02T16:35:16.953Z</time></trkpt><trkpt lat="43.8489777" lon="11.1892029"><ele>174.0</ele><time>2026-04-02T16:35:17.961Z</time></trkpt><trkpt lat="43.8490546" lon="11.1890704"><ele>171.25</ele><time>2026-04-02T16:35:18.957Z</time></trkpt><trkpt lat="43.8491394" lon="11.188941"><ele>168.5</ele><time>2026-04-02T16:35:19.957Z</time></trkpt><trkpt lat="43.8492232" lon="11.1888114"><ele>165.75</ele><time>2026-04-02T16:35:20.96Z</time></trkpt><trkpt lat="43.8493102" lon="11.1886923"><ele>163.0</ele><time>2026-04-02T16:35:21.957Z</time></trkpt><trkpt lat="43.8493979" lon="11.1885723"><ele>163.0</ele><time>2026-04-02T16:35:22.959Z</time></trkpt><trkpt lat="43.8494921" lon="11.1884605"><ele>163.0</ele><time>2026-04-02T16:35:23.962Z</time></trkpt><trkpt lat="43.849592" lon="11.1883648"><ele>163.0</ele><time>2026-04-02T16:35:25.046Z</time></trkpt><trkpt lat="43.84968" lon="11.1882915"><ele>163.0</ele><time>2026-04-02T16:35:25.954Z</time></trkpt><trkpt lat="43.8497586" lon="11.1882333"><ele>163.0</ele><time>2026-04-02T16:35:26.95Z</time></trkpt><trkpt lat="43.8498166" lon="11.1881314"><ele>159.0</ele><time>2026-04-02T16:35:28.961Z</time></trkpt><trkpt lat="43.8497795" lon="11.1880476"><ele>155.0</ele><time>2026-04-02T16:35:30.957Z</time></trkpt><trkpt lat="43.8496967" lon="11.187979"><ele>151.0</ele><time>2026-04-02T16:35:31.966Z</time></trkpt><trkpt lat="43.8496303" lon="11.187919"><ele>147.0</ele><time>2026-04-02T16:35:32.954Z</time></trkpt><trkpt lat="43.8495534" lon="11.1878472"><ele>143.0</ele><time>2026-04-02T16:35:33.959Z</time></trkpt><trkpt lat="43.8494781" lon="11.1877696"><ele>139.0</ele><time>2026-04-02T16:35:34.986Z</time></trkpt><trkpt lat="43.8493966" lon="11.1876991"><ele>139.0</ele><time>2026-04-02T16:35:35.961Z</time></trkpt><trkpt lat="43.8493049" lon="11.1876316"><ele>139.0</ele><time>2026-04-02T16:35:36.966Z</time></trkpt><trkpt lat="43.8492185" lon="11.1875671"><ele>139.0</ele><time>2026-04-02T16:35:37.959Z</time></trkpt><trkpt lat="43.8491406" lon="11.1875307"><ele>139.0</ele><time>2026-04-02T16:35:38.964Z</time></trkpt><trkpt lat="43.8490546" lon="11.1875573"><ele>139.0</ele><time>2026-04-02T16:35:40.005Z</time></trkpt><trkpt lat="43.8489896" lon="11.1875969"><ele>139.0</ele><time>2026-04-02T16:35:41.01Z</time></trkpt><trkpt lat="43.848894" lon="11.1875978"><ele>139.0</ele><time>2026-04-02T16:35:43.026Z</time></trkpt><trkpt lat="43.8488894" lon="11.187466"><ele>139.0</ele><time>2026-04-02T16:35:44.959Z</time></trkpt><trkpt lat="43.8489055" lon="11.1873708"><ele>139.0</ele><time>2026-04-02T16:35:45.959Z</time></trkpt><trkpt lat="43.8489396" lon="11.1872736"><ele>139.0</ele><time>2026-04-02T16:35:46.959Z</time></trkpt><trkpt lat="43.8490098" lon="11.1871553"><ele>139.0</ele><time>2026-04-02T16:35:47.963Z</time></trkpt><trkpt lat="43.8491232" lon="11.1870348"><ele>134.5</ele><time>2026-04-02T16:35:49.024Z</time></trkpt><trkpt lat="43.8492373" lon="11.186921"><ele>130.0</ele><time>2026-04-02T16:35:50.044Z</time></trkpt><trkpt lat="43.8493555" lon="11.1868145"><ele>125.5</ele><time>2026-04-02T16:35:50.949Z</time></trkpt><trkpt lat="43.8494775" lon="11.1867041"><ele>121.0</ele><time>2026-04-02T16:35:51.953Z</time></trkpt><trkpt lat="43.8496005" lon="11.1866036"><ele>121.0</ele><time>2026-04-02T16:35:52.966Z</time></trkpt><trkpt lat="43.8497252" lon="11.1865171"><ele>121.0</ele><time>2026-04-02T16:35:53.947Z</time></trkpt><trkpt lat="43.8498424" lon="11.1864362"><ele>121.0</ele><time>2026-04-02T16:35:55.026Z</time></trkpt><trkpt lat="43.8499455" lon="11.1863851"><ele>121.0</ele><time>2026-04-02T16:35:55.957Z</time></trkpt><trkpt lat="43.8500463" lon="11.1863903"><ele>116.75</ele><time>2026-04-02T16:35:56.957Z</time></trkpt><trkpt lat="43.850144" lon="11.1864468"><ele>112.5</ele><time>2026-04-02T16:35:57.974Z</time></trkpt><trkpt lat="43.8502504" lon="11.1865347"><ele>108.25</ele><time>2026-04-02T16:35:58.958Z</time></trkpt><trkpt lat="43.8503507" lon="11.1866395"><ele>104.0</ele><time>2026-04-02T16:36:00.041Z</time></trkpt><trkpt lat="43.8504475" lon="11.1867569"><ele>104.0</ele><time>2026-04-02T16:36:00.969Z</time></trkpt><trkpt lat="43.8505426" lon="11.1868679"><ele>104.0</ele><time>2026-04-02T16:36:01.969Z</time></trkpt><trkpt lat="43.8506436" lon="11.1869893"><ele>104.0</ele><time>2026-04-02T16:36:03.006Z</time></trkpt><trkpt lat="43.8507487" lon="11.1871024"><ele>104.0</ele><time>2026-04-02T16:36:03.964Z</time></trkpt><trkpt lat="43.8508581" lon="11.1872146"><ele>102.75</ele><time>2026-04-02T16:36:05.036Z</time></trkpt><trkpt lat="43.8509616" lon="11.1873254"><ele>101.5</ele><time>2026-04-02T16:36:05.952Z</time></trkpt><trkpt lat="43.8510655" lon="11.1874317"><ele>100.25</ele><time>2026-04-02T16:36:06.948Z</time></trkpt><trkpt lat="43.8511696" lon="11.1875465"><ele>99.0</ele><time>2026-04-02T16:36:07.974Z</time></trkpt><trkpt lat="43.8512762" lon="11.1876641"><ele>99.0</ele><time>2026-04-02T16:36:09.016Z</time></trkpt><trkpt lat="43.851366" lon="11.1877779"><ele>99.0</ele><time>2026-04-02T16:36:10.034Z</time></trkpt><trkpt lat="43.8514491" lon="11.1878754"><ele>99.0</ele><time>2026-04-02T16:36:10.95Z</time></trkpt><trkpt lat="43.8515269" lon="11.1879301"><ele>99.0</ele><time>2026-04-02T16:36:12.015Z</time></trkpt><trkpt lat="43.8516016" lon="11.1879473"><ele>99.0</ele><time>2026-04-02T16:36:12.938Z</time></trkpt><trkpt lat="43.8516946" lon="11.1878427"><ele>99.0</ele><time>2026-04-02T16:36:14.952Z</time></trkpt><trkpt lat="43.8516886" lon="11.1877304"><ele>99.0</ele><time>2026-04-02T16:36:15.939Z</time></trkpt><trkpt lat="43.8516562" lon="11.187614"><ele>99.0</ele><time>2026-04-02T16:36:16.946Z</time></trkpt><trkpt lat="43.8515984" lon="11.1874896"><ele>99.0</ele><time>2026-04-02T16:36:17.951Z</time></trkpt><trkpt lat="43.851544" lon="11.1873483"><ele>99.0</ele><time>2026-04-02T16:36:18.949Z</time></trkpt><trkpt lat="43.8514832" lon="11.1871931"><ele>97.5</ele><time>2026-04-02T16:36:20.034Z</time></trkpt><trkpt lat="43.851416" lon="11.1870533"><ele>96.0</ele><time>2026-04-02T16:36:20.96Z</time></trkpt><trkpt lat="43.8513476" lon="11.1869099"><ele>94.5</ele><time>2026-04-02T16:36:21.962Z</time></trkpt><trkpt lat="43.8512676" lon="11.186763"><ele>93.0</ele><time>2026-04-02T16:36:22.983Z</time></trkpt><trkpt lat="43.8512043" lon="11.1866069"><ele>91.75</ele><time>2026-04-02T16:36:23.959Z</time></trkpt><trkpt lat="43.8511324" lon="11.1864384"><ele>90.5</ele><time>2026-04-02T16:36:24.962Z</time></trkpt><trkpt lat="43.8510578" lon="11.186277"><ele>89.25</ele><time>2026-04-02T16:36:25.961Z</time></trkpt><trkpt lat="43.8509796" lon="11.1861205"><ele>88.0</ele><time>2026-04-02T16:36:26.962Z</time></trkpt><trkpt lat="43.8509038" lon="11.1859611"><ele>88.0</ele><time>2026-04-02T16:36:27.961Z</time></trkpt><trkpt lat="43.8508343" lon="11.1858048"><ele>88.0</ele><time>2026-04-02T16:36:29.022Z</time></trkpt><trkpt lat="43.8507696" lon="11.1856597"><ele>88.0</ele><time>2026-04-02T16:36:30.032Z</time></trkpt><trkpt lat="43.8507021" lon="11.1855156"><ele>88.0</ele><time>2026-04-02T16:36:30.963Z</time></trkpt><trkpt lat="43.8506374" lon="11.1853819"><ele>85.80000000000001</ele><time>2026-04-02T16:36:31.958Z</time></trkpt><trkpt lat="43.8505725" lon="11.1852638"><ele>83.60000000000001</ele><time>2026-04-02T16:36:32.961Z</time></trkpt><trkpt lat="43.8505021" lon="11.1851547"><ele>81.4</ele><time>2026-04-02T16:36:34.03Z</time></trkpt><trkpt lat="43.8504298" lon="11.185049"><ele>79.2</ele><time>2026-04-02T16:36:35.029Z</time></trkpt><trkpt lat="43.8503623" lon="11.1849575"><ele>77.0</ele><time>2026-04-02T16:36:35.983Z</time></trkpt><trkpt lat="43.8503024" lon="11.184888"><ele>76.33333333333334</ele><time>2026-04-02T16:36:37.043Z</time></trkpt><trkpt lat="43.8502509" lon="11.1848239"><ele>75.66666666666667</ele><time>2026-04-02T16:36:37.957Z</time></trkpt><trkpt lat="43.8501951" lon="11.1847636"><ele>75.0</ele><time>2026-04-02T16:36:38.966Z</time></trkpt><trkpt lat="43.8501298" lon="11.1846885"><ele>74.33333333333333</ele><time>2026-04-02T16:36:39.984Z</time></trkpt><trkpt lat="43.8500597" lon="11.1845989"><ele>73.66666666666666</ele><time>2026-04-02T16:36:40.961Z</time></trkpt><trkpt lat="43.8499905" lon="11.1844978"><ele>73.0</ele><time>2026-04-02T16:36:41.967Z</time></trkpt><trkpt lat="43.8499206" lon="11.1844055"><ele>72.83333333333333</ele><time>2026-04-02T16:36:42.971Z</time></trkpt><trkpt lat="43.849853" lon="11.184309"><ele>72.66666666666666</ele><time>2026-04-02T16:36:43.965Z</time></trkpt><trkpt lat="43.8497928" lon="11.1842257"><ele>72.5</ele><time>2026-04-02T16:36:45.038Z</time></trkpt><trkpt lat="43.8497483" lon="11.1841559"><ele>72.33333333333333</ele><time>2026-04-02T16:36:45.949Z</time></trkpt><trkpt lat="43.849702" lon="11.1840952"><ele>72.16666666666667</ele><time>2026-04-02T16:36:48.952Z</time></trkpt><trkpt lat="43.8496411" lon="11.1840336"><ele>72.0</ele><time>2026-04-02T16:36:50.958Z</time></trkpt><trkpt lat="43.8495317" lon="11.1839272"><ele>71.0</ele><time>2026-04-02T16:36:52.96Z</time></trkpt><trkpt lat="43.8494737" lon="11.1838515"><ele>70.0</ele><time>2026-04-02T16:36:53.953Z</time></trkpt><trkpt lat="43.8493954" lon="11.1837732"><ele>69.0</ele><time>2026-04-02T16:36:54.962Z</time></trkpt><trkpt lat="43.8493216" lon="11.1836863"><ele>68.0</ele><time>2026-04-02T16:36:55.943Z</time></trkpt><trkpt lat="43.8492567" lon="11.1835875"><ele>67.0</ele><time>2026-04-02T16:36:56.958Z</time></trkpt><trkpt lat="43.849188" lon="11.183501"><ele>66.57142857142857</ele><time>2026-04-02T16:36:57.954Z</time></trkpt><trkpt lat="43.84913" lon="11.1834194"><ele>66.14285714285714</ele><time>2026-04-02T16:36:58.972Z</time></trkpt><trkpt lat="43.8490854" lon="11.1833463"><ele>65.71428571428571</ele><time>2026-04-02T16:36:59.972Z</time></trkpt><trkpt lat="43.8490747" lon="11.1832572"><ele>65.28571428571428</ele><time>2026-04-02T16:37:01.957Z</time></trkpt><trkpt lat="43.8491297" lon="11.1832029"><ele>64.85714285714285</ele><time>2026-04-02T16:37:02.953Z</time></trkpt><trkpt lat="43.8492091" lon="11.1831373"><ele>64.42857142857143</ele><time>2026-04-02T16:37:03.952Z</time></trkpt><trkpt lat="43.8492729" lon="11.1830931"><ele>64.0</ele><time>2026-04-02T16:37:04.949Z</time></trkpt><trkpt lat="43.8493363" lon="11.1830387"><ele>64.0</ele><time>2026-04-02T16:37:05.949Z</time></trkpt><trkpt lat="43.8494137" lon="11.1829795"><ele>64.0</ele><time>2026-04-02T16:37:07.026Z</time></trkpt><trkpt lat="43.8494939" lon="11.1829144"><ele>64.0</ele><time>2026-04-02T16:37:07.953Z</time></trkpt><trkpt lat="43.8495814" lon="11.1828424"><ele>64.0</ele><time>2026-04-02T16:37:08.953Z</time></trkpt><trkpt lat="43.8496662" lon="11.1827717"><ele>64.0</ele><time>2026-04-02T16:37:09.946Z</time></trkpt><trkpt lat="43.8497425" lon="11.182704"><ele>63.99999999999999</ele><time>2026-04-02T16:37:10.957Z</time></trkpt><trkpt lat="43.8498134" lon="11.1826335"><ele>64.0</ele><time>2026-04-02T16:37:11.939Z</time></trkpt><trkpt lat="43.8498653" lon="11.1825606"><ele>64.0</ele><time>2026-04-02T16:37:12.984Z</time></trkpt><trkpt lat="43.8498735" lon="11.1823928"><ele>64.0</ele><time>2026-04-02T16:37:15.025Z</time></trkpt><trkpt lat="43.8498373" lon="11.1823072"><ele>63.99999999999999</ele><time>2026-04-02T16:37:15.954Z</time></trkpt><trkpt lat="43.8497766" lon="11.1822141"><ele>64.0</ele><time>2026-04-02T16:37:16.953Z</time></trkpt><trkpt lat="43.8496972" lon="11.1820914"><ele>63.6</ele><time>2026-04-02T16:37:17.945Z</time></trkpt><trkpt lat="43.8496136" lon="11.1819887"><ele>63.2</ele><time>2026-04-02T16:37:18.955Z</time></trkpt><trkpt lat="43.8495372" lon="11.1819059"><ele>62.800000000000004</ele><time>2026-04-02T16:37:19.945Z</time></trkpt><trkpt lat="43.8494471" lon="11.1818427"><ele>62.400000000000006</ele><time>2026-04-02T16:37:20.951Z</time></trkpt><trkpt lat="43.8493528" lon="11.181781"><ele>62.0</ele><time>2026-04-02T16:37:22.03Z</time></trkpt><trkpt lat="43.8492693" lon="11.1817218"><ele>61.333333333333336</ele><time>2026-04-02T16:37:23.037Z</time></trkpt><trkpt lat="43.849196" lon="11.1816572"><ele>60.66666666666667</ele><time>2026-04-02T16:37:24.032Z</time></trkpt><trkpt lat="43.8491325" lon="11.1816342"><ele>60.0</ele><time>2026-04-02T16:37:25.042Z</time></trkpt><trkpt lat="43.8490739" lon="11.1815855"><ele>59.33333333333333</ele><time>2026-04-02T16:37:27.939Z</time></trkpt><trkpt lat="43.8490592" lon="11.1814921"><ele>58.666666666666664</ele><time>2026-04-02T16:37:37.061Z</time></trkpt><trkpt lat="43.8491233" lon="11.1813693"><ele>58.0</ele><time>2026-04-02T16:37:38.961Z</time></trkpt><trkpt lat="43.8491641" lon="11.1812992"><ele>57.83333333333333</ele><time>2026-04-02T16:37:39.953Z</time></trkpt><trkpt lat="43.8492175" lon="11.1812179"><ele>57.666666666666664</ele><time>2026-04-02T16:37:40.948Z</time></trkpt><trkpt lat="43.8492715" lon="11.1811211"><ele>57.5</ele><time>2026-04-02T16:37:41.956Z</time></trkpt><trkpt lat="43.849328" lon="11.1810133"><ele>57.33333333333333</ele><time>2026-04-02T16:37:42.96Z</time></trkpt><trkpt lat="43.8493825" lon="11.1809156"><ele>57.166666666666664</ele><time>2026-04-02T16:37:43.955Z</time></trkpt><trkpt lat="43.8494443" lon="11.1808236"><ele>57.0</ele><time>2026-04-02T16:37:44.948Z</time></trkpt><trkpt lat="43.8495027" lon="11.1807134"><ele>57.2</ele><time>2026-04-02T16:37:45.957Z</time></trkpt><trkpt lat="43.8495697" lon="11.1805922"><ele>57.400000000000006</ele><time>2026-04-02T16:37:46.956Z</time></trkpt><trkpt lat="43.8496382" lon="11.1804739"><ele>57.599999999999994</ele><time>2026-04-02T16:37:47.952Z</time></trkpt><trkpt lat="43.8497051" lon="11.1803666"><ele>57.8</ele><time>2026-04-02T16:37:48.961Z</time></trkpt><trkpt lat="43.8497677" lon="11.1802673"><ele>58.0</ele><time>2026-04-02T16:37:49.964Z</time></trkpt><trkpt lat="43.8498261" lon="11.1801733"><ele>58.00000000000001</ele><time>2026-04-02T16:37:50.96Z</time></trkpt><trkpt lat="43.8498709" lon="11.1800782"><ele>58.0</ele><time>2026-04-02T16:37:52.034Z</time></trkpt><trkpt lat="43.8499052" lon="11.1799965"><ele>58.00000000000001</ele><time>2026-04-02T16:37:53.038Z</time></trkpt><trkpt lat="43.8499374" lon="11.1799211"><ele>58.00000000000001</ele><time>2026-04-02T16:37:54.033Z</time></trkpt><trkpt lat="43.8499793" lon="11.1798545"><ele>58.0</ele><time>2026-04-02T16:37:55.032Z</time></trkpt><trkpt lat="43.8500248" lon="11.1797881"><ele>58.00000000000001</ele><time>2026-04-02T16:37:55.953Z</time></trkpt><trkpt lat="43.8500903" lon="11.1797408"><ele>58.00000000000001</ele><time>2026-04-02T16:37:56.951Z</time></trkpt><trkpt lat="43.850168" lon="11.1797079"><ele>58.599999999999994</ele><time>2026-04-02T16:37:57.986Z</time></trkpt><trkpt lat="43.8502627" lon="11.1796896"><ele>59.199999999999996</ele><time>2026-04-02T16:37:58.953Z</time></trkpt><trkpt lat="43.8503565" lon="11.179682"><ele>59.8</ele><time>2026-04-02T16:38:00.036Z</time></trkpt><trkpt lat="43.8504535" lon="11.1796637"><ele>60.4</ele><time>2026-04-02T16:38:00.961Z</time></trkpt><trkpt lat="43.8505536" lon="11.1796436"><ele>61.0</ele><time>2026-04-02T16:38:02.037Z</time></trkpt><trkpt lat="43.8506589" lon="11.1796217"><ele>61.0</ele><time>2026-04-02T16:38:03.03Z</time></trkpt><trkpt lat="43.8507634" lon="11.1796079"><ele>60.99999999999999</ele><time>2026-04-02T16:38:04.031Z</time></trkpt><trkpt lat="43.8508607" lon="11.1795944"><ele>60.99999999999999</ele><time>2026-04-02T16:38:05.031Z</time></trkpt><trkpt lat="43.8509504" lon="11.1795918"><ele>61.0</ele><time>2026-04-02T16:38:05.937Z</time></trkpt><trkpt lat="43.8510365" lon="11.1795844"><ele>61.0</ele><time>2026-04-02T16:38:06.955Z</time></trkpt><trkpt lat="43.8511259" lon="11.179577"><ele>61.8</ele><time>2026-04-02T16:38:07.962Z</time></trkpt><trkpt lat="43.8512213" lon="11.1795679"><ele>62.599999999999994</ele><time>2026-04-02T16:38:08.955Z</time></trkpt><trkpt lat="43.851328" lon="11.1795625"><ele>63.4</ele><time>2026-04-02T16:38:10.034Z</time></trkpt><trkpt lat="43.8514353" lon="11.1795497"><ele>64.2</ele><time>2026-04-02T16:38:10.956Z</time></trkpt><trkpt lat="43.8515452" lon="11.179538"><ele>65.0</ele><time>2026-04-02T16:38:11.952Z</time></trkpt><trkpt lat="43.8516544" lon="11.1795189"><ele>65.0</ele><time>2026-04-02T16:38:12.993Z</time></trkpt><trkpt lat="43.8517554" lon="11.1795022"><ele>65.0</ele><time>2026-04-02T16:38:13.958Z</time></trkpt><trkpt lat="43.8518606" lon="11.179493"><ele>65.0</ele><time>2026-04-02T16:38:14.944Z</time></trkpt><trkpt lat="43.8519675" lon="11.1794848"><ele>65.0</ele><time>2026-04-02T16:38:15.948Z</time></trkpt><trkpt lat="43.8520702" lon="11.1794719"><ele>65.0</ele><time>2026-04-02T16:38:16.946Z</time></trkpt><trkpt lat="43.8521753" lon="11.1794631"><ele>65.4</ele><time>2026-04-02T16:38:17.964Z</time></trkpt><trkpt lat="43.8522746" lon="11.1794468"><ele>65.8</ele><time>2026-04-02T16:38:18.957Z</time></trkpt><trkpt lat="43.8523713" lon="11.179439"><ele>66.2</ele><time>2026-04-02T16:38:20.03Z</time></trkpt><trkpt lat="43.8524724" lon="11.1794262"><ele>66.6</ele><time>2026-04-02T16:38:20.956Z</time></trkpt><trkpt lat="43.8525737" lon="11.1794126"><ele>67.0</ele><time>2026-04-02T16:38:21.956Z</time></trkpt><trkpt lat="43.8526706" lon="11.1794094"><ele>67.4</ele><time>2026-04-02T16:38:22.958Z</time></trkpt><trkpt lat="43.8527677" lon="11.1794002"><ele>67.80000000000001</ele><time>2026-04-02T16:38:23.958Z</time></trkpt><trkpt lat="43.8528653" lon="11.1793842"><ele>68.2</ele><time>2026-04-02T16:38:24.956Z</time></trkpt><trkpt lat="43.852962" lon="11.1793723"><ele>68.60000000000001</ele><time>2026-04-02T16:38:25.957Z</time></trkpt><trkpt lat="43.8530614" lon="11.1793544"><ele>69.0</ele><time>2026-04-02T16:38:27.035Z</time></trkpt><trkpt lat="43.8531652" lon="11.1793366"><ele>69.0</ele><time>2026-04-02T16:38:28.035Z</time></trkpt><trkpt lat="43.8532704" lon="11.1793202"><ele>69.0</ele><time>2026-04-02T16:38:29.06Z</time></trkpt><trkpt lat="43.8534863" lon="11.1792999"><ele>69.0</ele><time>2026-04-02T16:38:30.96Z</time></trkpt><trkpt lat="43.853598" lon="11.1792905"><ele>69.0</ele><time>2026-04-02T16:38:31.95Z</time></trkpt><trkpt lat="43.853704" lon="11.179274"><ele>69.8</ele><time>2026-04-02T16:38:32.958Z</time></trkpt><trkpt lat="43.8538131" lon="11.1792602"><ele>70.60000000000001</ele><time>2026-04-02T16:38:33.955Z</time></trkpt><trkpt lat="43.8539234" lon="11.1792465"><ele>71.4</ele><time>2026-04-02T16:38:35.044Z</time></trkpt><trkpt lat="43.8540302" lon="11.1792318"><ele>72.2</ele><time>2026-04-02T16:38:35.952Z</time></trkpt><trkpt lat="43.8541343" lon="11.1792155"><ele>73.0</ele><time>2026-04-02T16:38:36.961Z</time></trkpt><trkpt lat="43.8542391" lon="11.1792061"><ele>73.0</ele><time>2026-04-02T16:38:37.956Z</time></trkpt><trkpt lat="43.8543414" lon="11.1791929"><ele>73.0</ele><time>2026-04-02T16:38:39.031Z</time></trkpt><trkpt lat="43.8544401" lon="11.1791901"><ele>73.0</ele><time>2026-04-02T16:38:39.954Z</time></trkpt><trkpt lat="43.8545259" lon="11.1791872"><ele>73.0</ele><time>2026-04-02T16:38:40.96Z</time></trkpt><trkpt lat="43.8546062" lon="11.1791776"><ele>73.0</ele><time>2026-04-02T16:38:41.949Z</time></trkpt><trkpt lat="43.8546739" lon="11.1791666"><ele>73.0</ele><time>2026-04-02T16:38:43.034Z</time></trkpt><trkpt lat="43.854777" lon="11.1791758"><ele>73.0</ele><time>2026-04-02T16:38:45.03Z</time></trkpt><trkpt lat="43.8548503" lon="11.1791998"><ele>73.0</ele><time>2026-04-02T16:38:46.962Z</time></trkpt><trkpt lat="43.8549448" lon="11.1792153"><ele>73.0</ele><time>2026-04-02T16:38:48.957Z</time></trkpt><trkpt lat="43.8550085" lon="11.1792184"><ele>73.0</ele><time>2026-04-02T16:38:50.036Z</time></trkpt><trkpt lat="43.8550932" lon="11.1792141"><ele>73.0</ele><time>2026-04-02T16:38:50.949Z</time></trkpt><trkpt lat="43.8551893" lon="11.1791996"><ele>73.0</ele><time>2026-04-02T16:38:51.943Z</time></trkpt><trkpt lat="43.8552901" lon="11.1791889"><ele>73.25</ele><time>2026-04-02T16:38:52.951Z</time></trkpt><trkpt lat="43.8554" lon="11.1791804"><ele>73.5</ele><time>2026-04-02T16:38:53.95Z</time></trkpt><trkpt lat="43.8555077" lon="11.179172"><ele>73.75</ele><time>2026-04-02T16:38:54.95Z</time></trkpt><trkpt lat="43.855625" lon="11.179151"><ele>74.0</ele><time>2026-04-02T16:38:55.936Z</time></trkpt><trkpt lat="43.8557399" lon="11.1791139"><ele>74.0</ele><time>2026-04-02T16:38:56.946Z</time></trkpt><trkpt lat="43.8558669" lon="11.1790622"><ele>74.0</ele><time>2026-04-02T16:38:57.968Z</time></trkpt><trkpt lat="43.855992" lon="11.1790152"><ele>74.0</ele><time>2026-04-02T16:38:58.95Z</time></trkpt><trkpt lat="43.8561221" lon="11.1789685"><ele>74.0</ele><time>2026-04-02T16:39:00.032Z</time></trkpt><trkpt lat="43.8562538" lon="11.1789223"><ele>74.0</ele><time>2026-04-02T16:39:00.964Z</time></trkpt><trkpt lat="43.8563851" lon="11.1788764"><ele>74.0</ele><time>2026-04-02T16:39:01.965Z</time></trkpt><trkpt lat="43.8565188" lon="11.178829"><ele>74.0</ele><time>2026-04-02T16:39:02.963Z</time></trkpt><trkpt lat="43.856654" lon="11.1787851"><ele>74.0</ele><time>2026-04-02T16:39:03.968Z</time></trkpt><trkpt lat="43.8567896" lon="11.1787402"><ele>74.5</ele><time>2026-04-02T16:39:04.964Z</time></trkpt><trkpt lat="43.8569224" lon="11.1786977"><ele>75.0</ele><time>2026-04-02T16:39:05.97Z</time></trkpt><trkpt lat="43.8570581" lon="11.1786558"><ele>75.5</ele><time>2026-04-02T16:39:07.038Z</time></trkpt><trkpt lat="43.8571866" lon="11.178611"><ele>76.0</ele><time>2026-04-02T16:39:08.039Z</time></trkpt><trkpt lat="43.8573086" lon="11.1785732"><ele>76.0</ele><time>2026-04-02T16:39:08.954Z</time></trkpt><trkpt lat="43.8574147" lon="11.1785382"><ele>76.0</ele><time>2026-04-02T16:39:10.034Z</time></trkpt><trkpt lat="43.8575077" lon="11.1784978"><ele>76.0</ele><time>2026-04-02T16:39:10.967Z</time></trkpt><trkpt lat="43.857597" lon="11.1784641"><ele>76.0</ele><time>2026-04-02T16:39:11.965Z</time></trkpt><trkpt lat="43.857687" lon="11.1784256"><ele>76.0</ele><time>2026-04-02T16:39:12.983Z</time></trkpt><trkpt lat="43.8577751" lon="11.1783981"><ele>76.39999999999999</ele><time>2026-04-02T16:39:14.036Z</time></trkpt><trkpt lat="43.8578614" lon="11.1783719"><ele>76.8</ele><time>2026-04-02T16:39:15.023Z</time></trkpt><trkpt lat="43.8579475" lon="11.1783548"><ele>77.19999999999999</ele><time>2026-04-02T16:39:15.956Z</time></trkpt><trkpt lat="43.8580459" lon="11.1783393"><ele>77.6</ele><time>2026-04-02T16:39:16.953Z</time></trkpt><trkpt lat="43.8581503" lon="11.1783609"><ele>78.0</ele><time>2026-04-02T16:39:18.077Z</time></trkpt><trkpt lat="43.8582631" lon="11.178431"><ele>78.0</ele><time>2026-04-02T16:39:19.03Z</time></trkpt><trkpt lat="43.8583704" lon="11.1785418"><ele>78.0</ele><time>2026-04-02T16:39:20.028Z</time></trkpt><trkpt lat="43.858456" lon="11.1786791"><ele>78.0</ele><time>2026-04-02T16:39:20.962Z</time></trkpt><trkpt lat="43.8585336" lon="11.1788164"><ele>78.0</ele><time>2026-04-02T16:39:21.962Z</time></trkpt><trkpt lat="43.8586194" lon="11.1789286"><ele>78.75</ele><time>2026-04-02T16:39:22.978Z</time></trkpt><trkpt lat="43.8587212" lon="11.1790067"><ele>79.5</ele><time>2026-04-02T16:39:24.031Z</time></trkpt><trkpt lat="43.8588252" lon="11.1790406"><ele>80.25</ele><time>2026-04-02T16:39:25.035Z</time></trkpt><trkpt lat="43.8589341" lon="11.1790538"><ele>81.0</ele><time>2026-04-02T16:39:25.953Z</time></trkpt><trkpt lat="43.8590604" lon="11.1790365"><ele>81.0</ele><time>2026-04-02T16:39:26.954Z</time></trkpt><trkpt lat="43.8591911" lon="11.1789935"><ele>81.0</ele><time>2026-04-02T16:39:27.948Z</time></trkpt><trkpt lat="43.8593399" lon="11.1789528"><ele>81.0</ele><time>2026-04-02T16:39:29.032Z</time></trkpt><trkpt lat="43.8594888" lon="11.1789103"><ele>81.0</ele><time>2026-04-02T16:39:30.027Z</time></trkpt><trkpt lat="43.8596415" lon="11.1788677"><ele>81.0</ele><time>2026-04-02T16:39:30.96Z</time></trkpt><trkpt lat="43.8597814" lon="11.178825"><ele>81.0</ele><time>2026-04-02T16:39:31.956Z</time></trkpt><trkpt lat="43.8599315" lon="11.1787759"><ele>81.0</ele><time>2026-04-02T16:39:32.984Z</time></trkpt><trkpt lat="43.8600885" lon="11.1787288"><ele>81.33333333333333</ele><time>2026-04-02T16:39:33.954Z</time></trkpt><trkpt lat="43.8602502" lon="11.1786837"><ele>81.66666666666666</ele><time>2026-04-02T16:39:34.953Z</time></trkpt><trkpt lat="43.8604078" lon="11.1786374"><ele>82.0</ele><time>2026-04-02T16:39:35.955Z</time></trkpt><trkpt lat="43.8605678" lon="11.1785993"><ele>82.0</ele><time>2026-04-02T16:39:36.957Z</time></trkpt><trkpt lat="43.8607282" lon="11.1785628"><ele>82.0</ele><time>2026-04-02T16:39:37.951Z</time></trkpt><trkpt lat="43.8608804" lon="11.1785337"><ele>82.0</ele><time>2026-04-02T16:39:38.957Z</time></trkpt><trkpt lat="43.8610254" lon="11.1785149"><ele>82.0</ele><time>2026-04-02T16:39:39.949Z</time></trkpt><trkpt lat="43.8611748" lon="11.1784906"><ele>82.0</ele><time>2026-04-02T16:39:40.953Z</time></trkpt><trkpt lat="43.8613117" lon="11.1784739"><ele>82.0</ele><time>2026-04-02T16:39:41.947Z</time></trkpt><trkpt lat="43.8614479" lon="11.1784522"><ele>82.0</ele><time>2026-04-02T16:39:42.959Z</time></trkpt><trkpt lat="43.8615897" lon="11.1784197"><ele>82.0</ele><time>2026-04-02T16:39:43.953Z</time></trkpt><trkpt lat="43.861735" lon="11.1783734"><ele>82.0</ele><time>2026-04-02T16:39:44.95Z</time></trkpt><trkpt lat="43.8618696" lon="11.1782943"><ele>82.0</ele><time>2026-04-02T16:39:45.952Z</time></trkpt><trkpt lat="43.8620024" lon="11.1782078"><ele>82.0</ele><time>2026-04-02T16:39:46.952Z</time></trkpt><trkpt lat="43.8621341" lon="11.1781201"><ele>81.25</ele><time>2026-04-02T16:39:48.037Z</time></trkpt><trkpt lat="43.8622568" lon="11.1780394"><ele>80.5</ele><time>2026-04-02T16:39:49.028Z</time></trkpt><trkpt lat="43.8623734" lon="11.1779573"><ele>79.75</ele><time>2026-04-02T16:39:50.03Z</time></trkpt><trkpt lat="43.8624802" lon="11.1778828"><ele>79.0</ele><time>2026-04-02T16:39:50.974Z</time></trkpt><trkpt lat="43.8625804" lon="11.1778106"><ele>79.4</ele><time>2026-04-02T16:39:51.97Z</time></trkpt><trkpt lat="43.8626684" lon="11.1777524"><ele>79.80000000000001</ele><time>2026-04-02T16:39:52.974Z</time></trkpt><trkpt lat="43.8627623" lon="11.1777242"><ele>80.19999999999999</ele><time>2026-04-02T16:39:53.97Z</time></trkpt><trkpt lat="43.8628685" lon="11.1777287"><ele>80.6</ele><time>2026-04-02T16:39:54.97Z</time></trkpt><trkpt lat="43.8629892" lon="11.177735"><ele>81.0</ele><time>2026-04-02T16:39:56.005Z</time></trkpt><trkpt lat="43.8631207" lon="11.1777304"><ele>81.0</ele><time>2026-04-02T16:39:56.97Z</time></trkpt><trkpt lat="43.863258" lon="11.1777192"><ele>81.0</ele><time>2026-04-02T16:39:58.031Z</time></trkpt><trkpt lat="43.8634045" lon="11.1776975"><ele>81.0</ele><time>2026-04-02T16:39:59.029Z</time></trkpt><trkpt lat="43.8635536" lon="11.1776767"><ele>81.0</ele><time>2026-04-02T16:39:59.942Z</time></trkpt><trkpt lat="43.8637091" lon="11.1776582"><ele>82.0</ele><time>2026-04-02T16:40:00.945Z</time></trkpt><trkpt lat="43.8638647" lon="11.1776358"><ele>83.0</ele><time>2026-04-02T16:40:01.948Z</time></trkpt><trkpt lat="43.8640184" lon="11.1776094"><ele>84.0</ele><time>2026-04-02T16:40:02.982Z</time></trkpt><trkpt lat="43.8641699" lon="11.1775776"><ele>84.0</ele><time>2026-04-02T16:40:04.012Z</time></trkpt><trkpt lat="43.8643188" lon="11.1775436"><ele>84.0</ele><time>2026-04-02T16:40:05.01Z</time></trkpt><trkpt lat="43.8644514" lon="11.1774946"><ele>84.0</ele><time>2026-04-02T16:40:05.953Z</time></trkpt><trkpt lat="43.8645689" lon="11.1774262"><ele>84.0</ele><time>2026-04-02T16:40:06.952Z</time></trkpt><trkpt lat="43.864681" lon="11.1773188"><ele>84.0</ele><time>2026-04-02T16:40:07.959Z</time></trkpt><trkpt lat="43.8647845" lon="11.1771838"><ele>84.0</ele><time>2026-04-02T16:40:08.943Z</time></trkpt><trkpt lat="43.8648876" lon="11.1770417"><ele>84.0</ele><time>2026-04-02T16:40:09.948Z</time></trkpt><trkpt lat="43.8649904" lon="11.1769135"><ele>84.0</ele><time>2026-04-02T16:40:10.947Z</time></trkpt><trkpt lat="43.865083" lon="11.1767857"><ele>85.2</ele><time>2026-04-02T16:40:11.951Z</time></trkpt><trkpt lat="43.8651714" lon="11.1766951"><ele>86.4</ele><time>2026-04-02T16:40:12.969Z</time></trkpt><trkpt lat="43.8652646" lon="11.1766211"><ele>87.6</ele><time>2026-04-02T16:40:13.949Z</time></trkpt><trkpt lat="43.8653574" lon="11.17656"><ele>88.8</ele><time>2026-04-02T16:40:14.943Z</time></trkpt><trkpt lat="43.8654561" lon="11.1764999"><ele>90.0</ele><time>2026-04-02T16:40:15.941Z</time></trkpt><trkpt lat="43.8655614" lon="11.1764511"><ele>90.0</ele><time>2026-04-02T16:40:16.947Z</time></trkpt><trkpt lat="43.8656672" lon="11.1764242"><ele>90.0</ele><time>2026-04-02T16:40:17.948Z</time></trkpt><trkpt lat="43.8657637" lon="11.1763839"><ele>90.0</ele><time>2026-04-02T16:40:19.029Z</time></trkpt><trkpt lat="43.8658401" lon="11.1763601"><ele>90.0</ele><time>2026-04-02T16:40:20.015Z</time></trkpt><trkpt lat="43.8659044" lon="11.1763423"><ele>90.0</ele><time>2026-04-02T16:40:20.937Z</time></trkpt><trkpt lat="43.8659999" lon="11.1763016"><ele>90.5</ele><time>2026-04-02T16:40:22.963Z</time></trkpt><trkpt lat="43.8660759" lon="11.1762897"><ele>91.0</ele><time>2026-04-02T16:40:25.963Z</time></trkpt><trkpt lat="43.8661749" lon="11.1762536"><ele>91.5</ele><time>2026-04-02T16:40:35.949Z</time></trkpt><trkpt lat="43.8662388" lon="11.1762457"><ele>92.0</ele><time>2026-04-02T16:40:36.943Z</time></trkpt><trkpt lat="43.8663308" lon="11.1762392"><ele>92.5</ele><time>2026-04-02T16:40:38.958Z</time></trkpt><trkpt lat="43.8664147" lon="11.176214"><ele>93.0</ele><time>2026-04-02T16:40:40.962Z</time></trkpt><trkpt lat="43.866514" lon="11.1762102"><ele>93.0</ele><time>2026-04-02T16:40:42.962Z</time></trkpt><trkpt lat="43.866649" lon="11.1762286"><ele>93.0</ele><time>2026-04-02T16:40:44.954Z</time></trkpt><trkpt lat="43.8667267" lon="11.1762229"><ele>93.0</ele><time>2026-04-02T16:40:45.958Z</time></trkpt><trkpt lat="43.866813" lon="11.1761979"><ele>93.0</ele><time>2026-04-02T16:40:46.958Z</time></trkpt><trkpt lat="43.8669013" lon="11.176173"><ele>93.0</ele><time>2026-04-02T16:40:47.958Z</time></trkpt><trkpt lat="43.8669932" lon="11.1761501"><ele>93.80000000000001</ele><time>2026-04-02T16:40:48.96Z</time></trkpt><trkpt lat="43.8670886" lon="11.1761332"><ele>94.6</ele><time>2026-04-02T16:40:49.963Z</time></trkpt><trkpt lat="43.867184" lon="11.17611"><ele>95.4</ele><time>2026-04-02T16:40:50.953Z</time></trkpt><trkpt lat="43.8672905" lon="11.1760759"><ele>96.19999999999999</ele><time>2026-04-02T16:40:51.952Z</time></trkpt><trkpt lat="43.8673988" lon="11.1760313"><ele>97.0</ele><time>2026-04-02T16:40:52.962Z</time></trkpt><trkpt lat="43.8675092" lon="11.1759803"><ele>98.0</ele><time>2026-04-02T16:40:53.954Z</time></trkpt><trkpt lat="43.867624" lon="11.1759051"><ele>99.0</ele><time>2026-04-02T16:40:54.965Z</time></trkpt><trkpt lat="43.8677353" lon="11.1758103"><ele>100.0</ele><time>2026-04-02T16:40:55.962Z</time></trkpt><trkpt lat="43.8678494" lon="11.1757223"><ele>101.0</ele><time>2026-04-02T16:40:56.961Z</time></trkpt><trkpt lat="43.8679676" lon="11.1756316"><ele>103.0</ele><time>2026-04-02T16:40:57.961Z</time></trkpt><trkpt lat="43.8680871" lon="11.1755452"><ele>105.0</ele><time>2026-04-02T16:40:58.962Z</time></trkpt><trkpt lat="43.8682072" lon="11.1754553"><ele>107.0</ele><time>2026-04-02T16:40:59.96Z</time></trkpt><trkpt lat="43.8683276" lon="11.1753739"><ele>109.0</ele><time>2026-04-02T16:41:00.959Z</time></trkpt><trkpt lat="43.8684407" lon="11.1752926"><ele>111.0</ele><time>2026-04-02T16:41:01.957Z</time></trkpt><trkpt lat="43.8685534" lon="11.1752107"><ele>113.0</ele><time>2026-04-02T16:41:02.956Z</time></trkpt><trkpt lat="43.8686664" lon="11.17514"><ele>115.0</ele><time>2026-04-02T16:41:04.047Z</time></trkpt><trkpt lat="43.8687737" lon="11.1750832"><ele>117.0</ele><time>2026-04-02T16:41:04.999Z</time></trkpt><trkpt lat="43.8688796" lon="11.1750354"><ele>117.0</ele><time>2026-04-02T16:41:05.968Z</time></trkpt><trkpt lat="43.8689801" lon="11.1749856"><ele>116.99999999999999</ele><time>2026-04-02T16:41:06.963Z</time></trkpt><trkpt lat="43.8690818" lon="11.1749297"><ele>116.99999999999999</ele><time>2026-04-02T16:41:07.967Z</time></trkpt><trkpt lat="43.8691729" lon="11.1748795"><ele>117.0</ele><time>2026-04-02T16:41:08.966Z</time></trkpt><trkpt lat="43.869256" lon="11.1748314"><ele>117.0</ele><time>2026-04-02T16:41:09.967Z</time></trkpt><trkpt lat="43.8693275" lon="11.1747942"><ele>116.33333333333333</ele><time>2026-04-02T16:41:10.963Z</time></trkpt><trkpt lat="43.8693898" lon="11.174775"><ele>115.66666666666666</ele><time>2026-04-02T16:41:11.968Z</time></trkpt><trkpt lat="43.8694952" lon="11.174773"><ele>115.0</ele><time>2026-04-02T16:41:13.963Z</time></trkpt><trkpt lat="43.8696009" lon="11.1748734"><ele>114.33333333333333</ele><time>2026-04-02T16:41:15.968Z</time></trkpt><trkpt lat="43.8696564" lon="11.1749311"><ele>113.66666666666666</ele><time>2026-04-02T16:41:16.961Z</time></trkpt><trkpt lat="43.8697068" lon="11.1749912"><ele>113.0</ele><time>2026-04-02T16:41:17.962Z</time></trkpt><trkpt lat="43.8697602" lon="11.175053"><ele>115.4</ele><time>2026-04-02T16:41:18.966Z</time></trkpt><trkpt lat="43.8698498" lon="11.1751499"><ele>117.80000000000001</ele><time>2026-04-02T16:41:20.969Z</time></trkpt><trkpt lat="43.8699377" lon="11.1751802"><ele>120.2</ele><time>2026-04-02T16:41:22.971Z</time></trkpt><trkpt lat="43.8700336" lon="11.1751654"><ele>122.6</ele><time>2026-04-02T16:41:24.984Z</time></trkpt><trkpt lat="43.8701391" lon="11.175184"><ele>125.0</ele><time>2026-04-02T16:41:26.962Z</time></trkpt><trkpt lat="43.870224" lon="11.175224"><ele>125.66666666666666</ele><time>2026-04-02T16:41:28.966Z</time></trkpt><trkpt lat="43.87034" lon="11.1752788"><ele>126.33333333333333</ele><time>2026-04-02T16:41:30.967Z</time></trkpt><trkpt lat="43.8704433" lon="11.1753365"><ele>127.0</ele><time>2026-04-02T16:41:32.966Z</time></trkpt><trkpt lat="43.8704742" lon="11.1754258"><ele>127.66666666666666</ele><time>2026-04-02T16:41:35.966Z</time></trkpt><trkpt lat="43.8705011" lon="11.1753342"><ele>128.33333333333334</ele><time>2026-04-02T16:41:44.958Z</time></trkpt><trkpt lat="43.8705707" lon="11.1753314"><ele>129.0</ele><time>2026-04-02T16:41:49.964Z</time></trkpt><trkpt lat="43.8706569" lon="11.1753599"><ele>129.0</ele><time>2026-04-02T16:41:52.962Z</time></trkpt><trkpt lat="43.8707377" lon="11.175423"><ele>129.0</ele><time>2026-04-02T16:41:54.962Z</time></trkpt><trkpt lat="43.8708371" lon="11.1755085"><ele>129.0</ele><time>2026-04-02T16:41:56.964Z</time></trkpt><trkpt lat="43.8709331" lon="11.1755787"><ele>129.0</ele><time>2026-04-02T16:41:58.958Z</time></trkpt><trkpt lat="43.8710136" lon="11.1756291"><ele>129.0</ele><time>2026-04-02T16:42:00.96Z</time></trkpt><trkpt lat="43.8711083" lon="11.1756733"><ele>130.5</ele><time>2026-04-02T16:42:03.039Z</time></trkpt><trkpt lat="43.8712168" lon="11.175687"><ele>132.0</ele><time>2026-04-02T16:42:04.977Z</time></trkpt><trkpt lat="43.8713253" lon="11.1756575"><ele>133.5</ele><time>2026-04-02T16:42:06.958Z</time></trkpt><trkpt lat="43.8714284" lon="11.1755898"><ele>135.0</ele><time>2026-04-02T16:42:08.96Z</time></trkpt><trkpt lat="43.8715392" lon="11.1755205"><ele>135.0</ele><time>2026-04-02T16:42:10.957Z</time></trkpt><trkpt lat="43.8715999" lon="11.1754773"><ele>135.0</ele><time>2026-04-02T16:42:11.959Z</time></trkpt><trkpt lat="43.8717123" lon="11.1754218"><ele>135.0</ele><time>2026-04-02T16:42:13.955Z</time></trkpt><trkpt lat="43.8718263" lon="11.1753593"><ele>135.0</ele><time>2026-04-02T16:42:15.958Z</time></trkpt><trkpt lat="43.8719335" lon="11.1752991"><ele>135.0</ele><time>2026-04-02T16:42:17.96Z</time></trkpt><trkpt lat="43.8719972" lon="11.1752752"><ele>137.16666666666666</ele><time>2026-04-02T16:42:19.039Z</time></trkpt><trkpt lat="43.8720628" lon="11.1752471"><ele>139.33333333333334</ele><time>2026-04-02T16:42:20.037Z</time></trkpt><trkpt lat="43.8721225" lon="11.1752112"><ele>141.5</ele><time>2026-04-02T16:42:20.963Z</time></trkpt><trkpt lat="43.8722195" lon="11.1751526"><ele>143.66666666666669</ele><time>2026-04-02T16:42:22.971Z</time></trkpt><trkpt lat="43.8722877" lon="11.1751368"><ele>145.83333333333334</ele><time>2026-04-02T16:42:24.956Z</time></trkpt><trkpt lat="43.8723691" lon="11.1751816"><ele>148.0</ele><time>2026-04-02T16:42:32.955Z</time></trkpt><trkpt lat="43.8724359" lon="11.1752303"><ele>148.0</ele><time>2026-04-02T16:42:34.945Z</time></trkpt><trkpt lat="43.8725185" lon="11.1752949"><ele>148.0</ele><time>2026-04-02T16:42:36.958Z</time></trkpt><trkpt lat="43.8725821" lon="11.1753588"><ele>148.0</ele><time>2026-04-02T16:42:38.946Z</time></trkpt><trkpt lat="43.8726366" lon="11.175422"><ele>148.0</ele><time>2026-04-02T16:42:40.951Z</time></trkpt><trkpt lat="43.8726994" lon="11.1754868"><ele>148.0</ele><time>2026-04-02T16:42:42.96Z</time></trkpt><trkpt lat="43.8727578" lon="11.1755415"><ele>148.0</ele><time>2026-04-02T16:42:44.952Z</time></trkpt><trkpt lat="43.872826" lon="11.175597"><ele>147.8</ele><time>2026-04-02T16:42:46.971Z</time></trkpt><trkpt lat="43.8729056" lon="11.1756498"><ele>147.60000000000002</ele><time>2026-04-02T16:42:48.951Z</time></trkpt><trkpt lat="43.8730021" lon="11.1757279"><ele>147.39999999999998</ele><time>2026-04-02T16:42:50.948Z</time></trkpt><trkpt lat="43.8730868" lon="11.1758306"><ele>147.2</ele><time>2026-04-02T16:42:52.954Z</time></trkpt><trkpt lat="43.8731809" lon="11.1759216"><ele>147.0</ele><time>2026-04-02T16:42:54.951Z</time></trkpt><trkpt lat="43.8732947" lon="11.1759792"><ele>148.6</ele><time>2026-04-02T16:42:56.951Z</time></trkpt><trkpt lat="43.8734038" lon="11.1759992"><ele>150.2</ele><time>2026-04-02T16:42:58.958Z</time></trkpt><trkpt lat="43.8735025" lon="11.1760553"><ele>151.8</ele><time>2026-04-02T16:43:00.95Z</time></trkpt><trkpt lat="43.873597" lon="11.1761282"><ele>153.4</ele><time>2026-04-02T16:43:02.956Z</time></trkpt><trkpt lat="43.8736859" lon="11.1762158"><ele>155.0</ele><time>2026-04-02T16:43:05.027Z</time></trkpt><trkpt lat="43.8737341" lon="11.1762722"><ele>155.0</ele><time>2026-04-02T16:43:05.948Z</time></trkpt><trkpt lat="43.8737503" lon="11.1764133"><ele>155.0</ele><time>2026-04-02T16:43:07.954Z</time></trkpt><trkpt lat="43.8737059" lon="11.1765286"><ele>155.0</ele><time>2026-04-02T16:43:09.952Z</time></trkpt><trkpt lat="43.8736334" lon="11.1766145"><ele>155.0</ele><time>2026-04-02T16:43:12.012Z</time></trkpt><trkpt lat="43.8735536" lon="11.1766548"><ele>155.0</ele><time>2026-04-02T16:43:13.956Z</time></trkpt><trkpt lat="43.8734893" lon="11.1766669"><ele>155.0</ele><time>2026-04-02T16:43:15.958Z</time></trkpt><trkpt lat="43.8734094" lon="11.1766964"><ele>158.33333333333331</ele><time>2026-04-02T16:43:17.955Z</time></trkpt><trkpt lat="43.8733356" lon="11.1767623"><ele>161.66666666666666</ele><time>2026-04-02T16:43:20.957Z</time></trkpt><trkpt lat="43.8733442" lon="11.1768702"><ele>165.0</ele><time>2026-04-02T16:43:24.954Z</time></trkpt><trkpt lat="43.873391" lon="11.1769318"><ele>168.33333333333334</ele><time>2026-04-02T16:43:28.03Z</time></trkpt><trkpt lat="43.8734322" lon="11.1770076"><ele>171.66666666666669</ele><time>2026-04-02T16:43:30.966Z</time></trkpt><trkpt lat="43.8735214" lon="11.1770292"><ele>175.0</ele><time>2026-04-02T16:43:34.964Z</time></trkpt><trkpt lat="43.8735754" lon="11.1770792"><ele>175.0</ele><time>2026-04-02T16:43:38.063Z</time></trkpt><trkpt lat="43.8736033" lon="11.1771877"><ele>175.0</ele><time>2026-04-02T16:43:40.961Z</time></trkpt><trkpt lat="43.8736071" lon="11.1773033"><ele>175.0</ele><time>2026-04-02T16:43:43.979Z</time></trkpt><trkpt lat="43.8735447" lon="11.1773702"><ele>175.0</ele><time>2026-04-02T16:43:46.955Z</time></trkpt><trkpt lat="43.8734741" lon="11.1774077"><ele>175.0</ele><time>2026-04-02T16:43:48.99Z</time></trkpt><trkpt lat="43.873391" lon="11.177417"><ele>175.0</ele><time>2026-04-02T16:43:50.968Z</time></trkpt><trkpt lat="43.8733262" lon="11.1774302"><ele>178.0</ele><time>2026-04-02T16:43:52.953Z</time></trkpt><trkpt lat="43.8733203" lon="11.1775467"><ele>181.0</ele><time>2026-04-02T16:43:55.952Z</time></trkpt><trkpt lat="43.8733197" lon="11.1776451"><ele>184.0</ele><time>2026-04-02T16:43:57.954Z</time></trkpt><trkpt lat="43.8733128" lon="11.1777413"><ele>187.0</ele><time>2026-04-02T16:43:59.96Z</time></trkpt><trkpt lat="43.873336" lon="11.1778297"><ele>189.99999999999997</ele><time>2026-04-02T16:44:02.961Z</time></trkpt><trkpt lat="43.8734021" lon="11.1778564"><ele>193.0</ele><time>2026-04-02T16:44:04.954Z</time></trkpt><trkpt lat="43.8734677" lon="11.1779459"><ele>192.99999999999997</ele><time>2026-04-02T16:44:06.959Z</time></trkpt><trkpt lat="43.8735231" lon="11.1779992"><ele>193.0</ele><time>2026-04-02T16:44:09.041Z</time></trkpt><trkpt lat="43.8736081" lon="11.178088"><ele>193.0</ele><time>2026-04-02T16:44:11.956Z</time></trkpt><trkpt lat="43.8736591" lon="11.1781457"><ele>193.0</ele><time>2026-04-02T16:44:13.948Z</time></trkpt><trkpt lat="43.8736968" lon="11.1782239"><ele>192.99999999999997</ele><time>2026-04-02T16:44:15.952Z</time></trkpt><trkpt lat="43.8736902" lon="11.1783328"><ele>193.0</ele><time>2026-04-02T16:44:19.044Z</time></trkpt><trkpt lat="43.8736636" lon="11.1784525"><ele>195.99999999999997</ele><time>2026-04-02T16:44:21.956Z</time></trkpt><trkpt lat="43.8736396" lon="11.1785334"><ele>199.0</ele><time>2026-04-02T16:44:24.963Z</time></trkpt><trkpt lat="43.8736324" lon="11.1786495"><ele>202.0</ele><time>2026-04-02T16:44:27.948Z</time></trkpt><trkpt lat="43.8737194" lon="11.1786335"><ele>205.0</ele><time>2026-04-02T16:45:07.017Z</time></trkpt><trkpt lat="43.8738179" lon="11.1787299"><ele>207.99999999999997</ele><time>2026-04-02T16:45:08.962Z</time></trkpt><trkpt lat="43.8738737" lon="11.1787988"><ele>211.0</ele><time>2026-04-02T16:45:09.96Z</time></trkpt><trkpt lat="43.8739356" lon="11.1788672"><ele>211.0</ele><time>2026-04-02T16:45:10.96Z</time></trkpt><trkpt lat="43.8739864" lon="11.1789334"><ele>211.0</ele><time>2026-04-02T16:45:11.955Z</time></trkpt><trkpt lat="43.8740303" lon="11.1790013"><ele>211.0</ele><time>2026-04-02T16:45:12.958Z</time></trkpt><trkpt lat="43.8740774" lon="11.1790649"><ele>211.0</ele><time>2026-04-02T16:45:14.015Z</time></trkpt><trkpt lat="43.8741336" lon="11.1791164"><ele>211.0</ele><time>2026-04-02T16:45:14.957Z</time></trkpt><trkpt lat="43.874201" lon="11.1792032"><ele>211.0</ele><time>2026-04-02T16:45:16.952Z</time></trkpt><trkpt lat="43.8741854" lon="11.1792907"><ele>211.0</ele><time>2026-04-02T16:45:18.955Z</time></trkpt><trkpt lat="43.874125" lon="11.1793857"><ele>214.0</ele><time>2026-04-02T16:45:20.96Z</time></trkpt><trkpt lat="43.8740905" lon="11.1794943"><ele>217.0</ele><time>2026-04-02T16:45:22.955Z</time></trkpt><trkpt lat="43.8740764" lon="11.1796172"><ele>220.00000000000003</ele><time>2026-04-02T16:45:24.953Z</time></trkpt><trkpt lat="43.8740451" lon="11.1797389"><ele>223.0</ele><time>2026-04-02T16:45:26.955Z</time></trkpt><trkpt lat="43.8740171" lon="11.1798235"><ele>226.0</ele><time>2026-04-02T16:45:27.956Z</time></trkpt><trkpt lat="43.8739774" lon="11.1799741"><ele>227.33333333333331</ele><time>2026-04-02T16:45:29.953Z</time></trkpt><trkpt lat="43.8739643" lon="11.1800714"><ele>228.66666666666666</ele><time>2026-04-02T16:45:30.964Z</time></trkpt><trkpt lat="43.8739576" lon="11.1801776"><ele>230.0</ele><time>2026-04-02T16:45:31.959Z</time></trkpt><trkpt lat="43.8739448" lon="11.1802912"><ele>231.33333333333331</ele><time>2026-04-02T16:45:32.96Z</time></trkpt><trkpt lat="43.8739286" lon="11.1804023"><ele>232.66666666666666</ele><time>2026-04-02T16:45:33.956Z</time></trkpt><trkpt lat="43.873905" lon="11.1805085"><ele>234.0</ele><time>2026-04-02T16:45:34.952Z</time></trkpt><trkpt lat="43.8738791" lon="11.1806023"><ele>234.83333333333334</ele><time>2026-04-02T16:45:35.955Z</time></trkpt><trkpt lat="43.8738507" lon="11.1806941"><ele>235.66666666666669</ele><time>2026-04-02T16:45:36.953Z</time></trkpt><trkpt lat="43.8738185" lon="11.1807805"><ele>236.5</ele><time>2026-04-02T16:45:37.953Z</time></trkpt><trkpt lat="43.8737799" lon="11.1808541"><ele>237.33333333333334</ele><time>2026-04-02T16:45:38.955Z</time></trkpt><trkpt lat="43.8736918" lon="11.1809805"><ele>238.16666666666669</ele><time>2026-04-02T16:45:40.957Z</time></trkpt><trkpt lat="43.8736418" lon="11.1810373"><ele>239.0</ele><time>2026-04-02T16:45:41.957Z</time></trkpt><trkpt lat="43.8735899" lon="11.1810909"><ele>239.00000000000003</ele><time>2026-04-02T16:45:42.963Z</time></trkpt><trkpt lat="43.8735301" lon="11.1811465"><ele>239.0</ele><time>2026-04-02T16:45:43.957Z</time></trkpt><trkpt lat="43.8734597" lon="11.1812064"><ele>239.00000000000003</ele><time>2026-04-02T16:45:44.958Z</time></trkpt><trkpt lat="43.8733918" lon="11.1812665"><ele>239.00000000000003</ele><time>2026-04-02T16:45:45.953Z</time></trkpt><trkpt lat="43.873338" lon="11.1813207"><ele>239.0</ele><time>2026-04-02T16:45:46.959Z</time></trkpt><trkpt lat="43.873296" lon="11.1813883"><ele>239.00000000000003</ele><time>2026-04-02T16:45:47.959Z</time></trkpt><trkpt lat="43.8732506" lon="11.1814562"><ele>239.00000000000003</ele><time>2026-04-02T16:45:48.961Z</time></trkpt><trkpt lat="43.8731593" lon="11.1815752"><ele>236.83333333333334</ele><time>2026-04-02T16:45:50.961Z</time></trkpt><trkpt lat="43.8731211" lon="11.1816502"><ele>234.66666666666669</ele><time>2026-04-02T16:45:51.955Z</time></trkpt><trkpt lat="43.8730936" lon="11.1817542"><ele>232.5</ele><time>2026-04-02T16:45:52.959Z</time></trkpt><trkpt lat="43.8730812" lon="11.1818771"><ele>230.33333333333331</ele><time>2026-04-02T16:45:53.956Z</time></trkpt><trkpt lat="43.8730626" lon="11.1819761"><ele>228.16666666666666</ele><time>2026-04-02T16:45:54.961Z</time></trkpt><trkpt lat="43.8729966" lon="11.1821004"><ele>226.0</ele><time>2026-04-02T16:45:56.96Z</time></trkpt><trkpt lat="43.8728944" lon="11.1821736"><ele>226.0</ele><time>2026-04-02T16:45:58.957Z</time></trkpt><trkpt lat="43.8728351" lon="11.1822128"><ele>226.0</ele><time>2026-04-02T16:45:59.95Z</time></trkpt><trkpt lat="43.8727779" lon="11.1822626"><ele>226.0</ele><time>2026-04-02T16:46:00.961Z</time></trkpt><trkpt lat="43.8727117" lon="11.1822984"><ele>226.0</ele><time>2026-04-02T16:46:01.958Z</time></trkpt><trkpt lat="43.87265" lon="11.1823333"><ele>226.0</ele><time>2026-04-02T16:46:02.96Z</time></trkpt><trkpt lat="43.872581" lon="11.1823692"><ele>226.0</ele><time>2026-04-02T16:46:03.959Z</time></trkpt><trkpt lat="43.8725162" lon="11.1824056"><ele>226.0</ele><time>2026-04-02T16:46:04.953Z</time></trkpt><trkpt lat="43.8724494" lon="11.1824465"><ele>224.66666666666666</ele><time>2026-04-02T16:46:05.955Z</time></trkpt><trkpt lat="43.8723757" lon="11.1824807"><ele>223.33333333333331</ele><time>2026-04-02T16:46:06.956Z</time></trkpt><trkpt lat="43.8723073" lon="11.182481"><ele>222.0</ele><time>2026-04-02T16:46:07.956Z</time></trkpt><trkpt lat="43.8722258" lon="11.1824845"><ele>220.66666666666669</ele><time>2026-04-02T16:46:08.961Z</time></trkpt><trkpt lat="43.8721312" lon="11.182502"><ele>219.33333333333334</ele><time>2026-04-02T16:46:09.955Z</time></trkpt><trkpt lat="43.8720635" lon="11.1825224"><ele>218.0</ele><time>2026-04-02T16:46:10.96Z</time></trkpt><trkpt lat="43.8719963" lon="11.1825548"><ele>218.0</ele><time>2026-04-02T16:46:11.96Z</time></trkpt><trkpt lat="43.8718742" lon="11.1826144"><ele>218.0</ele><time>2026-04-02T16:46:13.96Z</time></trkpt><trkpt lat="43.8717518" lon="11.1826461"><ele>218.0</ele><time>2026-04-02T16:46:15.959Z</time></trkpt><trkpt lat="43.8716884" lon="11.1826616"><ele>218.0</ele><time>2026-04-02T16:46:16.956Z</time></trkpt><trkpt lat="43.8715691" lon="11.1826797"><ele>218.0</ele><time>2026-04-02T16:46:19.027Z</time></trkpt><trkpt lat="43.8714619" lon="11.182686"><ele>216.16666666666669</ele><time>2026-04-02T16:46:20.961Z</time></trkpt><trkpt lat="43.8713596" lon="11.1827136"><ele>214.33333333333334</ele><time>2026-04-02T16:46:23.029Z</time></trkpt><trkpt lat="43.8712529" lon="11.1827438"><ele>212.5</ele><time>2026-04-02T16:46:24.987Z</time></trkpt><trkpt lat="43.8711808" lon="11.1827709"><ele>210.66666666666669</ele><time>2026-04-02T16:46:26.97Z</time></trkpt><trkpt lat="43.8711222" lon="11.1828413"><ele>208.83333333333334</ele><time>2026-04-02T16:46:28.976Z</time></trkpt><trkpt lat="43.871085" lon="11.1829363"><ele>207.0</ele><time>2026-04-02T16:46:30.971Z</time></trkpt><trkpt lat="43.8710403" lon="11.1830472"><ele>207.0</ele><time>2026-04-02T16:46:32.973Z</time></trkpt><trkpt lat="43.8709866" lon="11.1831072"><ele>207.0</ele><time>2026-04-02T16:46:34.974Z</time></trkpt><trkpt lat="43.8709061" lon="11.1831188"><ele>207.0</ele><time>2026-04-02T16:46:36.972Z</time></trkpt><trkpt lat="43.8708005" lon="11.1830317"><ele>207.0</ele><time>2026-04-02T16:46:38.968Z</time></trkpt><trkpt lat="43.8707397" lon="11.1829782"><ele>207.0</ele><time>2026-04-02T16:46:39.972Z</time></trkpt><trkpt lat="43.8706381" lon="11.1829075"><ele>204.5</ele><time>2026-04-02T16:46:41.977Z</time></trkpt><trkpt lat="43.8705824" lon="11.1828475"><ele>202.0</ele><time>2026-04-02T16:46:42.974Z</time></trkpt><trkpt lat="43.8705261" lon="11.1828068"><ele>199.5</ele><time>2026-04-02T16:46:43.97Z</time></trkpt><trkpt lat="43.8704256" lon="11.1826751"><ele>197.0</ele><time>2026-04-02T16:46:45.962Z</time></trkpt><trkpt lat="43.8703758" lon="11.1826127"><ele>194.5</ele><time>2026-04-02T16:46:46.975Z</time></trkpt><trkpt lat="43.8703226" lon="11.1825445"><ele>192.0</ele><time>2026-04-02T16:46:47.972Z</time></trkpt><trkpt lat="43.8702728" lon="11.1824721"><ele>192.0</ele><time>2026-04-02T16:46:48.974Z</time></trkpt><trkpt lat="43.8702133" lon="11.1824016"><ele>192.0</ele><time>2026-04-02T16:46:49.975Z</time></trkpt><trkpt lat="43.8701566" lon="11.1823331"><ele>192.0</ele><time>2026-04-02T16:46:50.971Z</time></trkpt><trkpt lat="43.8700692" lon="11.1821936"><ele>192.0</ele><time>2026-04-02T16:46:52.97Z</time></trkpt><trkpt lat="43.8700098" lon="11.1820727"><ele>192.0</ele><time>2026-04-02T16:46:54.977Z</time></trkpt><trkpt lat="43.8699524" lon="11.1820094"><ele>188.39999999999998</ele><time>2026-04-02T16:46:56.972Z</time></trkpt><trkpt lat="43.869867" lon="11.1820182"><ele>184.79999999999998</ele><time>2026-04-02T16:46:59.977Z</time></trkpt><trkpt lat="43.8698014" lon="11.182089"><ele>181.2</ele><time>2026-04-02T16:47:01.967Z</time></trkpt><trkpt lat="43.8696963" lon="11.1821891"><ele>177.6</ele><time>2026-04-02T16:47:03.97Z</time></trkpt><trkpt lat="43.8696288" lon="11.182271"><ele>174.0</ele><time>2026-04-02T16:47:05.98Z</time></trkpt><trkpt lat="43.8695442" lon="11.1823654"><ele>174.0</ele><time>2026-04-02T16:47:07.973Z</time></trkpt><trkpt lat="43.8694833" lon="11.1824352"><ele>174.0</ele><time>2026-04-02T16:47:08.968Z</time></trkpt><trkpt lat="43.8694454" lon="11.1825066"><ele>174.0</ele><time>2026-04-02T16:47:09.968Z</time></trkpt><trkpt lat="43.8694073" lon="11.18258"><ele>174.0</ele><time>2026-04-02T16:47:10.97Z</time></trkpt><trkpt lat="43.8693616" lon="11.1826672"><ele>174.0</ele><time>2026-04-02T16:47:12.977Z</time></trkpt><trkpt lat="43.8693291" lon="11.1827468"><ele>174.0</ele><time>2026-04-02T16:47:14.978Z</time></trkpt><trkpt lat="43.8693539" lon="11.1828338"><ele>174.0</ele><time>2026-04-02T16:47:19.976Z</time></trkpt><trkpt lat="43.8694191" lon="11.1828732"><ele>174.0</ele><time>2026-04-02T16:47:23.976Z</time></trkpt><trkpt lat="43.8694794" lon="11.1828988"><ele>174.0</ele><time>2026-04-02T16:47:26.978Z</time></trkpt><trkpt lat="43.8695342" lon="11.182991"><ele>174.0</ele><time>2026-04-02T16:47:29.972Z</time></trkpt><trkpt lat="43.8695714" lon="11.1830632"><ele>174.0</ele><time>2026-04-02T16:47:31.971Z</time></trkpt><trkpt lat="43.8696" lon="11.1831516"><ele>174.0</ele><time>2026-04-02T16:47:33.972Z</time></trkpt><trkpt lat="43.869633" lon="11.1832369"><ele>174.0</ele><time>2026-04-02T16:47:35.971Z</time></trkpt><trkpt lat="43.8696781" lon="11.1833241"><ele>174.0</ele><time>2026-04-02T16:47:38.976Z</time></trkpt><trkpt lat="43.8696714" lon="11.1834347"><ele>173.14285714285714</ele><time>2026-04-02T16:47:50.969Z</time></trkpt><trkpt lat="43.869631" lon="11.183504"><ele>172.28571428571428</ele><time>2026-04-02T16:47:53.969Z</time></trkpt><trkpt lat="43.8695824" lon="11.1835723"><ele>171.42857142857144</ele><time>2026-04-02T16:47:56.966Z</time></trkpt><trkpt lat="43.8695086" lon="11.1836401"><ele>170.57142857142856</ele><time>2026-04-02T16:47:59.972Z</time></trkpt><trkpt lat="43.8694519" lon="11.1836971"><ele>169.71428571428572</ele><time>2026-04-02T16:48:02.98Z</time></trkpt><trkpt lat="43.8693971" lon="11.1837605"><ele>168.85714285714286</ele><time>2026-04-02T16:48:04.973Z</time></trkpt><trkpt lat="43.8693739" lon="11.1838571"><ele>168.0</ele><time>2026-04-02T16:48:06.978Z</time></trkpt><trkpt lat="43.8693333" lon="11.1839685"><ele>168.71428571428572</ele><time>2026-04-02T16:48:08.967Z</time></trkpt><trkpt lat="43.8693003" lon="11.1840522"><ele>169.42857142857144</ele><time>2026-04-02T16:48:10.977Z</time></trkpt><trkpt lat="43.8692928" lon="11.1841392"><ele>170.14285714285714</ele><time>2026-04-02T16:48:12.971Z</time></trkpt><trkpt lat="43.8692857" lon="11.1842352"><ele>170.85714285714286</ele><time>2026-04-02T16:48:14.974Z</time></trkpt><trkpt lat="43.8692892" lon="11.184329"><ele>171.57142857142858</ele><time>2026-04-02T16:48:16.979Z</time></trkpt><trkpt lat="43.8693101" lon="11.1844508"><ele>172.28571428571428</ele><time>2026-04-02T16:48:19.973Z</time></trkpt><trkpt lat="43.8693325" lon="11.1845325"><ele>173.0</ele><time>2026-04-02T16:48:21.975Z</time></trkpt><trkpt lat="43.8693396" lon="11.1846588"><ele>173.0</ele><time>2026-04-02T16:48:24.977Z</time></trkpt><trkpt lat="43.8693555" lon="11.1847665"><ele>173.0</ele><time>2026-04-02T16:48:27.982Z</time></trkpt><trkpt lat="43.869417" lon="11.1847994"><ele>173.0</ele><time>2026-04-02T16:48:32.975Z</time></trkpt><trkpt lat="43.8694944" lon="11.1847589"><ele>173.0</ele><time>2026-04-02T16:48:35.973Z</time></trkpt><trkpt lat="43.8695745" lon="11.184712"><ele>173.0</ele><time>2026-04-02T16:48:38.978Z</time></trkpt><trkpt lat="43.869654" lon="11.1846626"><ele>173.0</ele><time>2026-04-02T16:48:41.972Z</time></trkpt><trkpt lat="43.8697367" lon="11.184606"><ele>173.0</ele><time>2026-04-02T16:48:44.975Z</time></trkpt><trkpt lat="43.869798" lon="11.1845591"><ele>173.0</ele><time>2026-04-02T16:48:46.979Z</time></trkpt><trkpt lat="43.8698674" lon="11.1845173"><ele>173.0</ele><time>2026-04-02T16:48:48.965Z</time></trkpt><trkpt lat="43.8699416" lon="11.1844876"><ele>173.0</ele><time>2026-04-02T16:48:50.961Z</time></trkpt><trkpt lat="43.8700056" lon="11.1844569"><ele>173.0</ele><time>2026-04-02T16:48:52.976Z</time></trkpt><trkpt lat="43.8700674" lon="11.1844253"><ele>173.0</ele><time>2026-04-02T16:48:54.98Z</time></trkpt><trkpt lat="43.8701328" lon="11.1843976"><ele>173.0</ele><time>2026-04-02T16:48:56.963Z</time></trkpt><trkpt lat="43.8701987" lon="11.1843738"><ele>176.57142857142856</ele><time>2026-04-02T16:48:58.974Z</time></trkpt><trkpt lat="43.8702698" lon="11.184341"><ele>180.14285714285717</ele><time>2026-04-02T16:49:00.969Z</time></trkpt><trkpt lat="43.8703356" lon="11.1843217"><ele>183.71428571428572</ele><time>2026-04-02T16:49:02.972Z</time></trkpt><trkpt lat="43.8704186" lon="11.1843266"><ele>187.28571428571428</ele><time>2026-04-02T16:49:05.966Z</time></trkpt><trkpt lat="43.8705086" lon="11.1843527"><ele>190.85714285714283</ele><time>2026-04-02T16:49:08.976Z</time></trkpt><trkpt lat="43.8705766" lon="11.1843523"><ele>194.42857142857144</ele><time>2026-04-02T16:49:10.975Z</time></trkpt><trkpt lat="43.8706393" lon="11.1843622"><ele>198.0</ele><time>2026-04-02T16:49:13.975Z</time></trkpt><trkpt lat="43.8705839" lon="11.1844865"><ele>198.0</ele><time>2026-04-02T16:49:16.971Z</time></trkpt><trkpt lat="43.8705644" lon="11.184602"><ele>198.0</ele><time>2026-04-02T16:49:18.977Z</time></trkpt><trkpt lat="43.8705388" lon="11.1847124"><ele>198.0</ele><time>2026-04-02T16:49:20.972Z</time></trkpt><trkpt lat="43.8705207" lon="11.1848162"><ele>198.0</ele><time>2026-04-02T16:49:22.978Z</time></trkpt><trkpt lat="43.8705082" lon="11.1849126"><ele>198.0</ele><time>2026-04-02T16:49:24.972Z</time></trkpt><trkpt lat="43.8704882" lon="11.1850047"><ele>198.0</ele><time>2026-04-02T16:49:26.972Z</time></trkpt><trkpt lat="43.870467" lon="11.1851023"><ele>198.0</ele><time>2026-04-02T16:49:33.969Z</time></trkpt><trkpt lat="43.8705131" lon="11.185014"><ele>198.0</ele><time>2026-04-02T16:49:53.972Z</time></trkpt><trkpt lat="43.8705346" lon="11.1849133"><ele>198.0</ele><time>2026-04-02T16:49:56.978Z</time></trkpt><trkpt lat="43.8705695" lon="11.1848037"><ele>198.0</ele><time>2026-04-02T16:49:59.97Z</time></trkpt><trkpt lat="43.870605" lon="11.1847017"><ele>198.0</ele><time>2026-04-02T16:50:01.976Z</time></trkpt><trkpt lat="43.870674" lon="11.184596"><ele>198.0</ele><time>2026-04-02T16:50:03.974Z</time></trkpt><trkpt lat="43.8707344" lon="11.1845005"><ele>198.0</ele><time>2026-04-02T16:50:05.977Z</time></trkpt><trkpt lat="43.870804" lon="11.1844053"><ele>198.0</ele><time>2026-04-02T16:50:07.973Z</time></trkpt><trkpt lat="43.8708592" lon="11.1843236"><ele>198.0</ele><time>2026-04-02T16:50:09.968Z</time></trkpt><trkpt lat="43.8709107" lon="11.1842268"><ele>198.0</ele><time>2026-04-02T16:50:11.972Z</time></trkpt><trkpt lat="43.8709584" lon="11.1841298"><ele>198.0</ele><time>2026-04-02T16:50:13.979Z</time></trkpt><trkpt lat="43.8710272" lon="11.1840234"><ele>201.16666666666666</ele><time>2026-04-02T16:50:15.972Z</time></trkpt><trkpt lat="43.8710709" lon="11.1839202"><ele>204.33333333333331</ele><time>2026-04-02T16:50:17.971Z</time></trkpt><trkpt lat="43.871114" lon="11.1838234"><ele>207.5</ele><time>2026-04-02T16:50:20.969Z</time></trkpt><trkpt lat="43.8711241" lon="11.1837344"><ele>210.66666666666666</ele><time>2026-04-02T16:50:22.971Z</time></trkpt><trkpt lat="43.8711296" lon="11.1836208"><ele>213.83333333333331</ele><time>2026-04-02T16:50:24.971Z</time></trkpt><trkpt lat="43.8711248" lon="11.1834889"><ele>217.0</ele><time>2026-04-02T16:50:26.975Z</time></trkpt><trkpt lat="43.8711214" lon="11.1833505"><ele>217.0</ele><time>2026-04-02T16:50:28.968Z</time></trkpt><trkpt lat="43.8711079" lon="11.1832371"><ele>217.0</ele><time>2026-04-02T16:50:30.976Z</time></trkpt><trkpt lat="43.8711004" lon="11.1831389"><ele>217.0</ele><time>2026-04-02T16:50:32.973Z</time></trkpt><trkpt lat="43.8710949" lon="11.1830201"><ele>217.0</ele><time>2026-04-02T16:50:35.972Z</time></trkpt><trkpt lat="43.8710515" lon="11.1830931"><ele>217.0</ele><time>2026-04-02T16:50:41.973Z</time></trkpt><trkpt lat="43.8710162" lon="11.1831806"><ele>217.0</ele><time>2026-04-02T16:50:43.975Z</time></trkpt><trkpt lat="43.8709589" lon="11.1832228"><ele>217.0</ele><time>2026-04-02T16:50:45.973Z</time></trkpt><trkpt lat="43.8708914" lon="11.1832111"><ele>212.0</ele><time>2026-04-02T16:50:47.973Z</time></trkpt><trkpt lat="43.8708128" lon="11.1831427"><ele>207.0</ele><time>2026-04-02T16:50:49.976Z</time></trkpt><trkpt lat="43.8707244" lon="11.1830346"><ele>202.0</ele><time>2026-04-02T16:50:51.976Z</time></trkpt><trkpt lat="43.8706376" lon="11.1829227"><ele>197.0</ele><time>2026-04-02T16:50:53.974Z</time></trkpt><trkpt lat="43.8705887" lon="11.1828658"><ele>192.0</ele><time>2026-04-02T16:50:54.97Z</time></trkpt><trkpt lat="43.8704931" lon="11.1827681"><ele>192.0</ele><time>2026-04-02T16:50:56.976Z</time></trkpt><trkpt lat="43.8704059" lon="11.1826635"><ele>192.0</ele><time>2026-04-02T16:50:58.971Z</time></trkpt><trkpt lat="43.8703246" lon="11.1825594"><ele>192.0</ele><time>2026-04-02T16:51:00.976Z</time></trkpt><trkpt lat="43.8702319" lon="11.1824492"><ele>192.0</ele><time>2026-04-02T16:51:02.977Z</time></trkpt><trkpt lat="43.8701757" lon="11.1823586"><ele>192.0</ele><time>2026-04-02T16:51:04.973Z</time></trkpt><trkpt lat="43.8701037" lon="11.1823464"><ele>188.39999999999998</ele><time>2026-04-02T16:51:08.969Z</time></trkpt><trkpt lat="43.8700481" lon="11.182439"><ele>184.79999999999998</ele><time>2026-04-02T16:51:12.973Z</time></trkpt><trkpt lat="43.8699767" lon="11.1825645"><ele>181.2</ele><time>2026-04-02T16:51:22.975Z</time></trkpt><trkpt lat="43.8699403" lon="11.1826732"><ele>177.6</ele><time>2026-04-02T16:51:25.971Z</time></trkpt><trkpt lat="43.8698973" lon="11.1827848"><ele>174.0</ele><time>2026-04-02T16:51:28.974Z</time></trkpt><trkpt lat="43.8698332" lon="11.1828626"><ele>174.0</ele><time>2026-04-02T16:51:31.974Z</time></trkpt><trkpt lat="43.8697657" lon="11.1829341"><ele>174.0</ele><time>2026-04-02T16:51:34.979Z</time></trkpt><trkpt lat="43.8696799" lon="11.1829415"><ele>174.0</ele><time>2026-04-02T16:51:37.977Z</time></trkpt><trkpt lat="43.8695857" lon="11.1829542"><ele>174.0</ele><time>2026-04-02T16:51:40.975Z</time></trkpt><trkpt lat="43.8695124" lon="11.1829473"><ele>174.0</ele><time>2026-04-02T16:51:42.968Z</time></trkpt><trkpt lat="43.869432" lon="11.1829453"><ele>174.0</ele><time>2026-04-02T16:51:44.971Z</time></trkpt><trkpt lat="43.8693402" lon="11.1829251"><ele>169.79999999999998</ele><time>2026-04-02T16:51:46.972Z</time></trkpt><trkpt lat="43.8692465" lon="11.1829029"><ele>165.6</ele><time>2026-04-02T16:51:49.023Z</time></trkpt><trkpt lat="43.8691341" lon="11.1828658"><ele>161.4</ele><time>2026-04-02T16:51:51.041Z</time></trkpt><trkpt lat="43.8690601" lon="11.1828479"><ele>157.2</ele><time>2026-04-02T16:51:51.995Z</time></trkpt><trkpt lat="43.8689578" lon="11.1828295"><ele>153.0</ele><time>2026-04-02T16:51:53.973Z</time></trkpt><trkpt lat="43.8688786" lon="11.1828465"><ele>153.0</ele><time>2026-04-02T16:51:56.969Z</time></trkpt><trkpt lat="43.8688179" lon="11.1828228"><ele>153.0</ele><time>2026-04-02T16:51:59.042Z</time></trkpt><trkpt lat="43.8687331" lon="11.1827854"><ele>153.0</ele><time>2026-04-02T16:52:00.972Z</time></trkpt><trkpt lat="43.8686348" lon="11.1827119"><ele>153.0</ele><time>2026-04-02T16:52:02.969Z</time></trkpt><trkpt lat="43.8685249" lon="11.1826405"><ele>153.0</ele><time>2026-04-02T16:52:05.033Z</time></trkpt><trkpt lat="43.8684605" lon="11.1825968"><ele>150.0</ele><time>2026-04-02T16:52:06.03Z</time></trkpt><trkpt lat="43.8683988" lon="11.18256"><ele>147.0</ele><time>2026-04-02T16:52:06.966Z</time></trkpt><trkpt lat="43.8683418" lon="11.1825099"><ele>144.0</ele><time>2026-04-02T16:52:07.959Z</time></trkpt><trkpt lat="43.8682804" lon="11.1824552"><ele>141.0</ele><time>2026-04-02T16:52:08.957Z</time></trkpt><trkpt lat="43.8681858" lon="11.1823896"><ele>138.0</ele><time>2026-04-02T16:52:11.029Z</time></trkpt><trkpt lat="43.8680925" lon="11.1823243"><ele>135.0</ele><time>2026-04-02T16:52:12.955Z</time></trkpt><trkpt lat="43.8679838" lon="11.1822409"><ele>134.4</ele><time>2026-04-02T16:52:14.954Z</time></trkpt><trkpt lat="43.8678706" lon="11.1821577"><ele>133.8</ele><time>2026-04-02T16:52:16.948Z</time></trkpt><trkpt lat="43.8678108" lon="11.1821178"><ele>133.2</ele><time>2026-04-02T16:52:17.956Z</time></trkpt><trkpt lat="43.8677555" lon="11.182075"><ele>132.6</ele><time>2026-04-02T16:52:18.957Z</time></trkpt><trkpt lat="43.867641" lon="11.1819897"><ele>132.0</ele><time>2026-04-02T16:52:20.957Z</time></trkpt><trkpt lat="43.8675768" lon="11.1819392"><ele>129.66666666666666</ele><time>2026-04-02T16:52:21.955Z</time></trkpt><trkpt lat="43.8675167" lon="11.1818946"><ele>127.33333333333334</ele><time>2026-04-02T16:52:22.949Z</time></trkpt><trkpt lat="43.8674591" lon="11.1818512"><ele>125.0</ele><time>2026-04-02T16:52:24.041Z</time></trkpt><trkpt lat="43.8674015" lon="11.1818061"><ele>122.66666666666667</ele><time>2026-04-02T16:52:25.013Z</time></trkpt><trkpt lat="43.8673413" lon="11.1817644"><ele>120.33333333333334</ele><time>2026-04-02T16:52:26.012Z</time></trkpt><trkpt lat="43.8672258" lon="11.1816933"><ele>118.0</ele><time>2026-04-02T16:52:27.953Z</time></trkpt><trkpt lat="43.8671521" lon="11.1816737"><ele>118.0</ele><time>2026-04-02T16:52:29.949Z</time></trkpt><trkpt lat="43.867074" lon="11.1817851"><ele>118.00000000000001</ele><time>2026-04-02T16:52:32.957Z</time></trkpt><trkpt lat="43.8670526" lon="11.1818902"><ele>118.00000000000001</ele><time>2026-04-02T16:52:33.958Z</time></trkpt><trkpt lat="43.8670299" lon="11.1819999"><ele>118.0</ele><time>2026-04-02T16:52:35.024Z</time></trkpt><trkpt lat="43.8669965" lon="11.1821104"><ele>118.0</ele><time>2026-04-02T16:52:36.017Z</time></trkpt><trkpt lat="43.86696" lon="11.1822255"><ele>118.0</ele><time>2026-04-02T16:52:36.951Z</time></trkpt><trkpt lat="43.8669204" lon="11.1823424"><ele>118.00000000000001</ele><time>2026-04-02T16:52:37.953Z</time></trkpt><trkpt lat="43.8668832" lon="11.1824633"><ele>118.00000000000001</ele><time>2026-04-02T16:52:38.988Z</time></trkpt><trkpt lat="43.8668471" lon="11.1825735"><ele>118.0</ele><time>2026-04-02T16:52:40.044Z</time></trkpt><trkpt lat="43.8668149" lon="11.1826873"><ele>118.0</ele><time>2026-04-02T16:52:41.011Z</time></trkpt><trkpt lat="43.8667783" lon="11.1827991"><ele>117.16666666666667</ele><time>2026-04-02T16:52:41.975Z</time></trkpt><trkpt lat="43.866746" lon="11.1828954"><ele>116.33333333333334</ele><time>2026-04-02T16:52:43.047Z</time></trkpt><trkpt lat="43.8667152" lon="11.1829826"><ele>115.5</ele><time>2026-04-02T16:52:45.042Z</time></trkpt><trkpt lat="43.8666253" lon="11.1829554"><ele>114.66666666666666</ele><time>2026-04-02T16:52:46.957Z</time></trkpt><trkpt lat="43.8665598" lon="11.1829005"><ele>113.83333333333333</ele><time>2026-04-02T16:52:47.947Z</time></trkpt><trkpt lat="43.8664856" lon="11.1828477"><ele>113.0</ele><time>2026-04-02T16:52:48.946Z</time></trkpt><trkpt lat="43.8664067" lon="11.1828071"><ele>112.99999999999999</ele><time>2026-04-02T16:52:50.031Z</time></trkpt><trkpt lat="43.8663235" lon="11.1827688"><ele>113.0</ele><time>2026-04-02T16:52:51.008Z</time></trkpt><trkpt lat="43.8662427" lon="11.1827322"><ele>113.0</ele><time>2026-04-02T16:52:51.96Z</time></trkpt><trkpt lat="43.8661624" lon="11.1826992"><ele>113.0</ele><time>2026-04-02T16:52:52.961Z</time></trkpt><trkpt lat="43.866088" lon="11.182676"><ele>112.99999999999999</ele><time>2026-04-02T16:52:53.958Z</time></trkpt><trkpt lat="43.8660109" lon="11.1826434"><ele>113.0</ele><time>2026-04-02T16:52:54.959Z</time></trkpt><trkpt lat="43.8659381" lon="11.1826077"><ele>111.99999999999999</ele><time>2026-04-02T16:52:55.956Z</time></trkpt><trkpt lat="43.8658647" lon="11.1825693"><ele>111.0</ele><time>2026-04-02T16:52:56.952Z</time></trkpt><trkpt lat="43.8657883" lon="11.1825344"><ele>110.0</ele><time>2026-04-02T16:52:57.976Z</time></trkpt><trkpt lat="43.8657104" lon="11.1825015"><ele>109.0</ele><time>2026-04-02T16:52:58.948Z</time></trkpt><trkpt lat="43.865631" lon="11.1824667"><ele>107.99999999999999</ele><time>2026-04-02T16:52:59.953Z</time></trkpt><trkpt lat="43.8655533" lon="11.1824292"><ele>107.0</ele><time>2026-04-02T16:53:00.95Z</time></trkpt><trkpt lat="43.8654805" lon="11.1823971"><ele>106.99999999999999</ele><time>2026-04-02T16:53:01.953Z</time></trkpt><trkpt lat="43.8654009" lon="11.1823575"><ele>107.0</ele><time>2026-04-02T16:53:03.959Z</time></trkpt><trkpt lat="43.8653444" lon="11.182402"><ele>107.0</ele><time>2026-04-02T16:53:06.964Z</time></trkpt><trkpt lat="43.8652802" lon="11.1825227"><ele>107.0</ele><time>2026-04-02T16:53:08.961Z</time></trkpt><trkpt lat="43.8652406" lon="11.1825996"><ele>106.99999999999999</ele><time>2026-04-02T16:53:09.961Z</time></trkpt><trkpt lat="43.8651971" lon="11.1827032"><ele>107.0</ele><time>2026-04-02T16:53:10.959Z</time></trkpt><trkpt lat="43.8651698" lon="11.1828041"><ele>107.0</ele><time>2026-04-02T16:53:11.96Z</time></trkpt><trkpt lat="43.8651534" lon="11.1829277"><ele>106.99999999999999</ele><time>2026-04-02T16:53:12.948Z</time></trkpt><trkpt lat="43.865126" lon="11.1830587"><ele>106.99999999999999</ele><time>2026-04-02T16:53:13.959Z</time></trkpt><trkpt lat="43.8650986" lon="11.1831858"><ele>107.0</ele><time>2026-04-02T16:53:15.022Z</time></trkpt><trkpt lat="43.865068" lon="11.1833197"><ele>107.0</ele><time>2026-04-02T16:53:15.961Z</time></trkpt><trkpt lat="43.865048" lon="11.1834629"><ele>107.0</ele><time>2026-04-02T16:53:16.959Z</time></trkpt><trkpt lat="43.865027" lon="11.1836127"><ele>107.0</ele><time>2026-04-02T16:53:17.962Z</time></trkpt><trkpt lat="43.8650064" lon="11.1837659"><ele>107.0</ele><time>2026-04-02T16:53:18.959Z</time></trkpt><trkpt lat="43.8649793" lon="11.1839258"><ele>107.0</ele><time>2026-04-02T16:53:20.058Z</time></trkpt><trkpt lat="43.8649498" lon="11.1840924"><ele>107.0</ele><time>2026-04-02T16:53:20.972Z</time></trkpt><trkpt lat="43.86492" lon="11.1842648"><ele>107.0</ele><time>2026-04-02T16:53:21.965Z</time></trkpt><trkpt lat="43.8648945" lon="11.1844326"><ele>107.0</ele><time>2026-04-02T16:53:22.995Z</time></trkpt><trkpt lat="43.8648682" lon="11.1846051"><ele>107.0</ele><time>2026-04-02T16:53:24.043Z</time></trkpt><trkpt lat="43.8648459" lon="11.1847756"><ele>107.5</ele><time>2026-04-02T16:53:25.035Z</time></trkpt><trkpt lat="43.8648317" lon="11.1849444"><ele>108.0</ele><time>2026-04-02T16:53:26.038Z</time></trkpt><trkpt lat="43.8648266" lon="11.1851327"><ele>108.5</ele><time>2026-04-02T16:53:26.956Z</time></trkpt><trkpt lat="43.8648272" lon="11.1853309"><ele>109.0</ele><time>2026-04-02T16:53:27.957Z</time></trkpt><trkpt lat="43.8648322" lon="11.1855315"><ele>109.0</ele><time>2026-04-02T16:53:28.969Z</time></trkpt><trkpt lat="43.8648373" lon="11.1857355"><ele>109.0</ele><time>2026-04-02T16:53:30.034Z</time></trkpt><trkpt lat="43.8648443" lon="11.1859452"><ele>109.0</ele><time>2026-04-02T16:53:31.037Z</time></trkpt><trkpt lat="43.8648464" lon="11.186157"><ele>109.0</ele><time>2026-04-02T16:53:31.956Z</time></trkpt><trkpt lat="43.8648508" lon="11.186379"><ele>109.0</ele><time>2026-04-02T16:53:32.956Z</time></trkpt><trkpt lat="43.8648606" lon="11.1866043"><ele>109.0</ele><time>2026-04-02T16:53:33.952Z</time></trkpt><trkpt lat="43.8648736" lon="11.1868308"><ele>109.0</ele><time>2026-04-02T16:53:34.962Z</time></trkpt><trkpt lat="43.8648793" lon="11.1870597"><ele>109.0</ele><time>2026-04-02T16:53:35.952Z</time></trkpt><trkpt lat="43.8648862" lon="11.1872868"><ele>109.0</ele><time>2026-04-02T16:53:36.954Z</time></trkpt><trkpt lat="43.864892" lon="11.1875155"><ele>109.5</ele><time>2026-04-02T16:53:37.951Z</time></trkpt><trkpt lat="43.8648963" lon="11.1877292"><ele>110.0</ele><time>2026-04-02T16:53:38.974Z</time></trkpt><trkpt lat="43.8649053" lon="11.1879223"><ele>110.5</ele><time>2026-04-02T16:53:39.971Z</time></trkpt><trkpt lat="43.8649044" lon="11.1880838"><ele>111.0</ele><time>2026-04-02T16:53:40.954Z</time></trkpt><trkpt lat="43.8649135" lon="11.1882065"><ele>111.6</ele><time>2026-04-02T16:53:41.958Z</time></trkpt><trkpt lat="43.8649154" lon="11.1882958"><ele>112.19999999999999</ele><time>2026-04-02T16:53:42.956Z</time></trkpt><trkpt lat="43.8648036" lon="11.1884169"><ele>112.80000000000001</ele><time>2026-04-02T16:53:44.952Z</time></trkpt><trkpt lat="43.8647109" lon="11.1884861"><ele>113.4</ele><time>2026-04-02T16:53:45.953Z</time></trkpt><trkpt lat="43.8646164" lon="11.1885513"><ele>114.0</ele><time>2026-04-02T16:53:46.954Z</time></trkpt><trkpt lat="43.8645005" lon="11.1886008"><ele>114.0</ele><time>2026-04-02T16:53:47.958Z</time></trkpt><trkpt lat="43.8643662" lon="11.1886229"><ele>114.0</ele><time>2026-04-02T16:53:48.958Z</time></trkpt><trkpt lat="43.8642198" lon="11.1886454"><ele>114.0</ele><time>2026-04-02T16:53:49.953Z</time></trkpt><trkpt lat="43.8640721" lon="11.1886855"><ele>114.0</ele><time>2026-04-02T16:53:50.947Z</time></trkpt><trkpt lat="43.8639312" lon="11.1887203"><ele>112.25</ele><time>2026-04-02T16:53:51.957Z</time></trkpt><trkpt lat="43.8637938" lon="11.1887452"><ele>110.5</ele><time>2026-04-02T16:53:52.955Z</time></trkpt><trkpt lat="43.8636677" lon="11.1887655"><ele>108.75</ele><time>2026-04-02T16:53:53.949Z</time></trkpt><trkpt lat="43.8635605" lon="11.1887762"><ele>107.0</ele><time>2026-04-02T16:53:54.968Z</time></trkpt><trkpt lat="43.863478" lon="11.1887948"><ele>106.83333333333333</ele><time>2026-04-02T16:53:56.037Z</time></trkpt><trkpt lat="43.8634182" lon="11.1888326"><ele>106.66666666666666</ele><time>2026-04-02T16:53:56.95Z</time></trkpt><trkpt lat="43.863377" lon="11.1889074"><ele>106.5</ele><time>2026-04-02T16:53:57.959Z</time></trkpt><trkpt lat="43.8633584" lon="11.1890093"><ele>106.33333333333334</ele><time>2026-04-02T16:53:58.979Z</time></trkpt><trkpt lat="43.8633296" lon="11.1891005"><ele>106.16666666666667</ele><time>2026-04-02T16:53:59.977Z</time></trkpt><trkpt lat="43.8632734" lon="11.1891698"><ele>106.0</ele><time>2026-04-02T16:54:00.967Z</time></trkpt><trkpt lat="43.86318" lon="11.1891971"><ele>106.0</ele><time>2026-04-02T16:54:01.958Z</time></trkpt><trkpt lat="43.8630881" lon="11.1891875"><ele>106.0</ele><time>2026-04-02T16:54:03.028Z</time></trkpt><trkpt lat="43.8629829" lon="11.1891484"><ele>106.0</ele><time>2026-04-02T16:54:04.031Z</time></trkpt><trkpt lat="43.8628724" lon="11.1891282"><ele>106.0</ele><time>2026-04-02T16:54:05.029Z</time></trkpt><trkpt lat="43.8627545" lon="11.1891061"><ele>106.0</ele><time>2026-04-02T16:54:06.033Z</time></trkpt><trkpt lat="43.8626315" lon="11.1890707"><ele>106.0</ele><time>2026-04-02T16:54:06.955Z</time></trkpt><trkpt lat="43.862514" lon="11.1889984"><ele>106.0</ele><time>2026-04-02T16:54:07.958Z</time></trkpt><trkpt lat="43.8624111" lon="11.188927"><ele>106.0</ele><time>2026-04-02T16:54:08.953Z</time></trkpt><trkpt lat="43.8623104" lon="11.1888326"><ele>106.0</ele><time>2026-04-02T16:54:10.015Z</time></trkpt><trkpt lat="43.8622258" lon="11.1887252"><ele>106.0</ele><time>2026-04-02T16:54:10.968Z</time></trkpt><trkpt lat="43.8621481" lon="11.1885999"><ele>106.0</ele><time>2026-04-02T16:54:11.954Z</time></trkpt><trkpt lat="43.8620878" lon="11.1884833"><ele>106.0</ele><time>2026-04-02T16:54:13.038Z</time></trkpt><trkpt lat="43.8620623" lon="11.1883555"><ele>106.0</ele><time>2026-04-02T16:54:13.974Z</time></trkpt><trkpt lat="43.8620467" lon="11.1882022"><ele>106.0</ele><time>2026-04-02T16:54:15.028Z</time></trkpt><trkpt lat="43.8620095" lon="11.1880422"><ele>106.0</ele><time>2026-04-02T16:54:15.956Z</time></trkpt><trkpt lat="43.8619438" lon="11.1878769"><ele>106.0</ele><time>2026-04-02T16:54:16.961Z</time></trkpt><trkpt lat="43.8618692" lon="11.1877261"><ele>106.0</ele><time>2026-04-02T16:54:18.037Z</time></trkpt><trkpt lat="43.8617767" lon="11.1875699"><ele>106.0</ele><time>2026-04-02T16:54:19.029Z</time></trkpt><trkpt lat="43.8616843" lon="11.1874156"><ele>104.33333333333334</ele><time>2026-04-02T16:54:20.034Z</time></trkpt><trkpt lat="43.8615954" lon="11.187251"><ele>102.66666666666666</ele><time>2026-04-02T16:54:21.029Z</time></trkpt><trkpt lat="43.8614997" lon="11.1870794"><ele>101.0</ele><time>2026-04-02T16:54:21.964Z</time></trkpt><trkpt lat="43.861402" lon="11.1869049"><ele>101.0</ele><time>2026-04-02T16:54:22.956Z</time></trkpt><trkpt lat="43.8613035" lon="11.1867361"><ele>101.0</ele><time>2026-04-02T16:54:23.953Z</time></trkpt><trkpt lat="43.8611987" lon="11.1865684"><ele>101.0</ele><time>2026-04-02T16:54:24.956Z</time></trkpt><trkpt lat="43.8610987" lon="11.1864094"><ele>101.0</ele><time>2026-04-02T16:54:25.954Z</time></trkpt><trkpt lat="43.8610068" lon="11.1862609"><ele>101.0</ele><time>2026-04-02T16:54:26.951Z</time></trkpt><trkpt lat="43.8609403" lon="11.1861072"><ele>101.0</ele><time>2026-04-02T16:54:28.027Z</time></trkpt><trkpt lat="43.860891" lon="11.185951"><ele>101.0</ele><time>2026-04-02T16:54:28.977Z</time></trkpt><trkpt lat="43.8608315" lon="11.1857746"><ele>100.33333333333333</ele><time>2026-04-02T16:54:30.033Z</time></trkpt><trkpt lat="43.8607616" lon="11.185596"><ele>99.66666666666666</ele><time>2026-04-02T16:54:30.959Z</time></trkpt><trkpt lat="43.8606642" lon="11.1854239"><ele>99.0</ele><time>2026-04-02T16:54:31.958Z</time></trkpt><trkpt lat="43.8605675" lon="11.1852431"><ele>99.0</ele><time>2026-04-02T16:54:32.953Z</time></trkpt><trkpt lat="43.8604861" lon="11.1850507"><ele>99.0</ele><time>2026-04-02T16:54:33.959Z</time></trkpt><trkpt lat="43.8603973" lon="11.1848843"><ele>99.0</ele><time>2026-04-02T16:54:34.957Z</time></trkpt><trkpt lat="43.8602904" lon="11.1847341"><ele>98.33333333333334</ele><time>2026-04-02T16:54:35.962Z</time></trkpt><trkpt lat="43.8601611" lon="11.1845969"><ele>97.66666666666667</ele><time>2026-04-02T16:54:36.96Z</time></trkpt><trkpt lat="43.8600214" lon="11.1844752"><ele>97.0</ele><time>2026-04-02T16:54:37.956Z</time></trkpt><trkpt lat="43.8598871" lon="11.184344"><ele>97.0</ele><time>2026-04-02T16:54:39.049Z</time></trkpt><trkpt lat="43.8597498" lon="11.1842008"><ele>97.0</ele><time>2026-04-02T16:54:40.044Z</time></trkpt><trkpt lat="43.8596152" lon="11.1840581"><ele>97.0</ele><time>2026-04-02T16:54:41.034Z</time></trkpt><trkpt lat="43.8594787" lon="11.1839133"><ele>96.0</ele><time>2026-04-02T16:54:41.957Z</time></trkpt><trkpt lat="43.8593451" lon="11.1837784"><ele>95.0</ele><time>2026-04-02T16:54:42.957Z</time></trkpt><trkpt lat="43.8592118" lon="11.1836387"><ele>94.0</ele><time>2026-04-02T16:54:43.96Z</time></trkpt><trkpt lat="43.85908" lon="11.1834946"><ele>94.0</ele><time>2026-04-02T16:54:45.027Z</time></trkpt><trkpt lat="43.858947" lon="11.1833596"><ele>94.0</ele><time>2026-04-02T16:54:46.014Z</time></trkpt><trkpt lat="43.8588139" lon="11.1832284"><ele>94.0</ele><time>2026-04-02T16:54:46.952Z</time></trkpt><trkpt lat="43.8586853" lon="11.1831027"><ele>92.33333333333333</ele><time>2026-04-02T16:54:47.954Z</time></trkpt><trkpt lat="43.8585598" lon="11.1829814"><ele>90.66666666666667</ele><time>2026-04-02T16:54:48.976Z</time></trkpt><trkpt lat="43.8584269" lon="11.1828596"><ele>89.0</ele><time>2026-04-02T16:54:50.028Z</time></trkpt><trkpt lat="43.858292" lon="11.1827419"><ele>89.0</ele><time>2026-04-02T16:54:51.027Z</time></trkpt><trkpt lat="43.8581514" lon="11.1826434"><ele>89.0</ele><time>2026-04-02T16:54:51.956Z</time></trkpt><trkpt lat="43.8580073" lon="11.1825563"><ele>89.0</ele><time>2026-04-02T16:54:52.955Z</time></trkpt><trkpt lat="43.8578759" lon="11.1824517"><ele>89.0</ele><time>2026-04-02T16:54:53.987Z</time></trkpt><trkpt lat="43.8577469" lon="11.1823496"><ele>89.0</ele><time>2026-04-02T16:54:55.032Z</time></trkpt><trkpt lat="43.8576256" lon="11.1822481"><ele>89.0</ele><time>2026-04-02T16:54:56.04Z</time></trkpt><trkpt lat="43.8575088" lon="11.1821233"><ele>89.0</ele><time>2026-04-02T16:54:56.959Z</time></trkpt><trkpt lat="43.8574008" lon="11.1819788"><ele>88.75</ele><time>2026-04-02T16:54:57.96Z</time></trkpt><trkpt lat="43.8573051" lon="11.1818383"><ele>88.5</ele><time>2026-04-02T16:54:58.975Z</time></trkpt><trkpt lat="43.8572223" lon="11.181707"><ele>88.25</ele><time>2026-04-02T16:55:00.036Z</time></trkpt><trkpt lat="43.8571533" lon="11.1815659"><ele>88.0</ele><time>2026-04-02T16:55:01.038Z</time></trkpt><trkpt lat="43.857118" lon="11.1813751"><ele>86.0</ele><time>2026-04-02T16:55:01.946Z</time></trkpt><trkpt lat="43.8571152" lon="11.1811693"><ele>84.0</ele><time>2026-04-02T16:55:03.029Z</time></trkpt><trkpt lat="43.8571141" lon="11.1809483"><ele>82.0</ele><time>2026-04-02T16:55:03.951Z</time></trkpt><trkpt lat="43.8571146" lon="11.1807241"><ele>82.0</ele><time>2026-04-02T16:55:04.964Z</time></trkpt><trkpt lat="43.8571158" lon="11.1805079"><ele>82.0</ele><time>2026-04-02T16:55:05.965Z</time></trkpt><trkpt lat="43.8571149" lon="11.1802904"><ele>82.0</ele><time>2026-04-02T16:55:06.963Z</time></trkpt><trkpt lat="43.8571075" lon="11.1800896"><ele>82.0</ele><time>2026-04-02T16:55:07.961Z</time></trkpt><trkpt lat="43.8571011" lon="11.1798991"><ele>82.0</ele><time>2026-04-02T16:55:09.033Z</time></trkpt><trkpt lat="43.8570996" lon="11.1797206"><ele>82.0</ele><time>2026-04-02T16:55:10.028Z</time></trkpt><trkpt lat="43.8571012" lon="11.1795654"><ele>82.0</ele><time>2026-04-02T16:55:11.041Z</time></trkpt><trkpt lat="43.8571065" lon="11.1794143"><ele>81.39999999999999</ele><time>2026-04-02T16:55:12.042Z</time></trkpt><trkpt lat="43.8571058" lon="11.1792691"><ele>80.8</ele><time>2026-04-02T16:55:12.973Z</time></trkpt><trkpt lat="43.8571014" lon="11.1791348"><ele>80.2</ele><time>2026-04-02T16:55:13.964Z</time></trkpt><trkpt lat="43.8571072" lon="11.1790133"><ele>79.6</ele><time>2026-04-02T16:55:14.973Z</time></trkpt><trkpt lat="43.8571181" lon="11.178907"><ele>79.0</ele><time>2026-04-02T16:55:15.972Z</time></trkpt><trkpt lat="43.8571398" lon="11.1787909"><ele>78.5</ele><time>2026-04-02T16:55:17.971Z</time></trkpt><trkpt lat="43.8571501" lon="11.1786936"><ele>78.0</ele><time>2026-04-02T16:55:20.974Z</time></trkpt><trkpt lat="43.8571518" lon="11.1785947"><ele>77.5</ele><time>2026-04-02T16:55:31.979Z</time></trkpt><trkpt lat="43.8570324" lon="11.1785457"><ele>77.0</ele><time>2026-04-02T16:55:33.981Z</time></trkpt><trkpt lat="43.856954" lon="11.1785632"><ele>76.5</ele><time>2026-04-02T16:55:34.974Z</time></trkpt><trkpt lat="43.8568623" lon="11.1786067"><ele>76.0</ele><time>2026-04-02T16:55:35.973Z</time></trkpt><trkpt lat="43.8567656" lon="11.1786618"><ele>75.5</ele><time>2026-04-02T16:55:36.972Z</time></trkpt><trkpt lat="43.8566506" lon="11.1787117"><ele>75.0</ele><time>2026-04-02T16:55:37.973Z</time></trkpt><trkpt lat="43.8565363" lon="11.1787626"><ele>74.5</ele><time>2026-04-02T16:55:38.976Z</time></trkpt><trkpt lat="43.8564233" lon="11.1788103"><ele>74.0</ele><time>2026-04-02T16:55:39.966Z</time></trkpt><trkpt lat="43.8563137" lon="11.1788581"><ele>74.0</ele><time>2026-04-02T16:55:40.974Z</time></trkpt><trkpt lat="43.8561994" lon="11.1789061"><ele>74.0</ele><time>2026-04-02T16:55:41.976Z</time></trkpt><trkpt lat="43.8560877" lon="11.1789384"><ele>74.0</ele><time>2026-04-02T16:55:42.975Z</time></trkpt><trkpt lat="43.8559785" lon="11.1789673"><ele>74.0</ele><time>2026-04-02T16:55:43.974Z</time></trkpt><trkpt lat="43.8558803" lon="11.1789832"><ele>74.0</ele><time>2026-04-02T16:55:44.972Z</time></trkpt><trkpt lat="43.8557904" lon="11.179004"><ele>74.0</ele><time>2026-04-02T16:55:45.974Z</time></trkpt><trkpt lat="43.8557027" lon="11.1790075"><ele>74.0</ele><time>2026-04-02T16:55:46.974Z</time></trkpt><trkpt lat="43.8556205" lon="11.1790042"><ele>74.0</ele><time>2026-04-02T16:55:47.978Z</time></trkpt><trkpt lat="43.855538" lon="11.1789876"><ele>74.0</ele><time>2026-04-02T16:55:48.976Z</time></trkpt><trkpt lat="43.855452" lon="11.1789983"><ele>74.0</ele><time>2026-04-02T16:55:49.971Z</time></trkpt><trkpt lat="43.855353" lon="11.1790159"><ele>74.0</ele><time>2026-04-02T16:55:50.976Z</time></trkpt><trkpt lat="43.8552567" lon="11.1790304"><ele>74.0</ele><time>2026-04-02T16:55:51.971Z</time></trkpt><trkpt lat="43.8551547" lon="11.1790494"><ele>74.0</ele><time>2026-04-02T16:55:52.975Z</time></trkpt><trkpt lat="43.8550633" lon="11.1790786"><ele>74.0</ele><time>2026-04-02T16:55:53.975Z</time></trkpt><trkpt lat="43.8549781" lon="11.179094"><ele>74.0</ele><time>2026-04-02T16:55:54.98Z</time></trkpt><trkpt lat="43.8549179" lon="11.1791323"><ele>74.0</ele><time>2026-04-02T16:55:55.972Z</time></trkpt><trkpt lat="43.8548705" lon="11.1792096"><ele>74.0</ele><time>2026-04-02T16:55:56.969Z</time></trkpt><trkpt lat="43.8548495" lon="11.1793316"><ele>73.83333333333334</ele><time>2026-04-02T16:55:57.973Z</time></trkpt><trkpt lat="43.8548401" lon="11.1794452"><ele>73.66666666666667</ele><time>2026-04-02T16:55:58.973Z</time></trkpt><trkpt lat="43.854811" lon="11.1795423"><ele>73.5</ele><time>2026-04-02T16:55:59.972Z</time></trkpt><trkpt lat="43.8547429" lon="11.1795867"><ele>73.33333333333333</ele><time>2026-04-02T16:56:00.975Z</time></trkpt><trkpt lat="43.8546546" lon="11.1795885"><ele>73.16666666666666</ele><time>2026-04-02T16:56:01.968Z</time></trkpt><trkpt lat="43.8545651" lon="11.1796069"><ele>73.0</ele><time>2026-04-02T16:56:02.976Z</time></trkpt><trkpt lat="43.8544628" lon="11.1796519"><ele>73.0</ele><time>2026-04-02T16:56:03.975Z</time></trkpt><trkpt lat="43.8543688" lon="11.1797295"><ele>73.0</ele><time>2026-04-02T16:56:04.976Z</time></trkpt><trkpt lat="43.85427" lon="11.179805"><ele>73.0</ele><time>2026-04-02T16:56:05.972Z</time></trkpt><trkpt lat="43.8541746" lon="11.1799054"><ele>73.0</ele><time>2026-04-02T16:56:06.98Z</time></trkpt><trkpt lat="43.8540873" lon="11.1799875"><ele>73.0</ele><time>2026-04-02T16:56:07.965Z</time></trkpt><trkpt lat="43.854006" lon="11.1800678"><ele>75.0</ele><time>2026-04-02T16:56:08.97Z</time></trkpt><trkpt lat="43.8539297" lon="11.1801427"><ele>77.0</ele><time>2026-04-02T16:56:09.975Z</time></trkpt><trkpt lat="43.8538669" lon="11.1802239"><ele>79.0</ele><time>2026-04-02T16:56:10.981Z</time></trkpt><trkpt lat="43.8538093" lon="11.1803149"><ele>81.0</ele><time>2026-04-02T16:56:11.973Z</time></trkpt><trkpt lat="43.8537498" lon="11.1804124"><ele>83.0</ele><time>2026-04-02T16:56:12.97Z</time></trkpt><trkpt lat="43.8536898" lon="11.180508"><ele>83.0</ele><time>2026-04-02T16:56:13.972Z</time></trkpt><trkpt lat="43.8536318" lon="11.1806104"><ele>83.0</ele><time>2026-04-02T16:56:14.974Z</time></trkpt><trkpt lat="43.8535687" lon="11.1807144"><ele>83.0</ele><time>2026-04-02T16:56:15.966Z</time></trkpt><trkpt lat="43.8535054" lon="11.1808239"><ele>83.0</ele><time>2026-04-02T16:56:16.975Z</time></trkpt><trkpt lat="43.8534403" lon="11.1809267"><ele>83.0</ele><time>2026-04-02T16:56:17.973Z</time></trkpt><trkpt lat="43.8533822" lon="11.1810433"><ele>83.80000000000001</ele><time>2026-04-02T16:56:18.97Z</time></trkpt><trkpt lat="43.8533262" lon="11.1811602"><ele>84.6</ele><time>2026-04-02T16:56:20.025Z</time></trkpt><trkpt lat="43.8532738" lon="11.1812765"><ele>85.4</ele><time>2026-04-02T16:56:21.049Z</time></trkpt><trkpt lat="43.8532249" lon="11.1813915"><ele>86.19999999999999</ele><time>2026-04-02T16:56:21.959Z</time></trkpt><trkpt lat="43.8531691" lon="11.1814873"><ele>87.0</ele><time>2026-04-02T16:56:23.027Z</time></trkpt><trkpt lat="43.8531099" lon="11.1815707"><ele>89.5</ele><time>2026-04-02T16:56:24.025Z</time></trkpt><trkpt lat="43.8530503" lon="11.1816532"><ele>92.0</ele><time>2026-04-02T16:56:25.023Z</time></trkpt><trkpt lat="43.8529908" lon="11.1817373"><ele>94.5</ele><time>2026-04-02T16:56:26.029Z</time></trkpt><trkpt lat="43.8529521" lon="11.1818289"><ele>97.0</ele><time>2026-04-02T16:56:26.946Z</time></trkpt><trkpt lat="43.8528964" lon="11.1819573"><ele>99.5</ele><time>2026-04-02T16:56:28.955Z</time></trkpt><trkpt lat="43.8528232" lon="11.1819952"><ele>102.0</ele><time>2026-04-02T16:56:30.955Z</time></trkpt><trkpt lat="43.8527344" lon="11.1820472"><ele>102.0</ele><time>2026-04-02T16:56:32.947Z</time></trkpt><trkpt lat="43.8526709" lon="11.1820974"><ele>102.0</ele><time>2026-04-02T16:56:34.034Z</time></trkpt><trkpt lat="43.8526071" lon="11.1821373"><ele>102.0</ele><time>2026-04-02T16:56:35.015Z</time></trkpt><trkpt lat="43.8525423" lon="11.1821777"><ele>102.0</ele><time>2026-04-02T16:56:36.031Z</time></trkpt><trkpt lat="43.8524588" lon="11.1822526"><ele>102.0</ele><time>2026-04-02T16:56:37.966Z</time></trkpt><trkpt lat="43.8523806" lon="11.1823142"><ele>102.0</ele><time>2026-04-02T16:56:39.958Z</time></trkpt><trkpt lat="43.8523035" lon="11.1823784"><ele>101.83333333333333</ele><time>2026-04-02T16:56:41.963Z</time></trkpt><trkpt lat="43.8522245" lon="11.1823791"><ele>101.66666666666666</ele><time>2026-04-02T16:56:44.959Z</time></trkpt><trkpt lat="43.8521531" lon="11.1822814"><ele>101.5</ele><time>2026-04-02T16:56:46.954Z</time></trkpt><trkpt lat="43.8520792" lon="11.1821456"><ele>101.33333333333333</ele><time>2026-04-02T16:56:48.96Z</time></trkpt><trkpt lat="43.8520285" lon="11.182069"><ele>101.16666666666666</ele><time>2026-04-02T16:56:50.035Z</time></trkpt><trkpt lat="43.8519721" lon="11.1820143"><ele>101.0</ele><time>2026-04-02T16:56:50.968Z</time></trkpt><trkpt lat="43.8519087" lon="11.1819877"><ele>86.0</ele><time>2026-04-02T16:56:51.957Z</time></trkpt><trkpt lat="43.8518382" lon="11.1819809"><ele>86.0</ele><time>2026-04-02T16:56:52.957Z</time></trkpt><trkpt lat="43.8517771" lon="11.1820444"><ele>78.0</ele><time>2026-04-02T16:56:55.036Z</time></trkpt><trkpt lat="43.8517425" lon="11.1819674"><ele>78.0</ele><time>2026-04-02T16:58:40.967Z</time></trkpt></trkseg></trk></gpx>